Date StartTime U_cm/s V_cm/s W_cm/s Ustd_cm/s Vstd_cm/s Wstd_cm/s Uvar_(cm/s)^2 Vvar_(cm/s)^2 Wvar_(cm/s)^2 KE_(m/s)^2 TurbulentKE_(m/s)^2 HorizWindSpeed_cm/s FrictionSpeec_cm/s DragCoef SpeedOfSound_m/s SonicTemperature_C Pressure_mb 
01/10/2014  00:00:00        8.023       19.722        1.822       14.709       15.859       15.286      216.345      251.498      233.664        0.058        0.035       21.292       10.787        0.257      336.252        7.428      864.032
01/10/2014  00:01:00       74.884       18.392        5.360       29.359       20.486       23.993      861.976      419.666      575.658        0.392        0.093       77.110       20.509        0.071      336.249        7.425      863.983
01/10/2014  00:02:00       68.006       68.906       58.494       59.031       23.369       24.052     3484.675      546.114      578.491        0.870        0.230       96.813       28.999        0.090      336.267        7.454      863.948
01/10/2014  00:03:00       -4.841       28.911       56.916       17.318       35.392       25.186      299.903     1252.590      634.315        0.314        0.109       29.313       22.834        0.607      336.349        7.592      863.947
01/10/2014  00:04:00       15.363       17.101       20.278       23.580       18.042       13.249      556.001      325.519      175.537        0.100        0.053       22.988       13.000        0.320      336.429        7.725      863.993
01/10/2014  00:05:00       49.773       45.086       17.697       22.118       16.672       20.327      489.196      277.965      413.168        0.300        0.059       67.157       11.400        0.029      336.363        7.614      864.028
01/10/2014  00:06:00      108.458       51.489       17.965       64.490       31.241       23.838     4159.003      976.024      568.251        1.022        0.285      120.059       14.112        0.014      336.271        7.460      864.053
01/10/2014  00:07:00      144.779       80.597       17.177       33.478       35.365       24.185     1120.785     1250.651      584.906        1.535        0.148      165.701        4.523        0.001      336.272        7.462      864.044
01/10/2014  00:08:00      108.122       90.510       60.614       90.045       55.745       42.808     8108.162     3107.504     1832.554        1.830        0.652      141.005       41.184        0.085      336.338        7.571      864.014
01/10/2014  00:09:00      -64.041       18.699       17.296       61.748       65.414       50.323     3812.823     4279.017     2532.399        0.769        0.531       66.715       36.425        0.298      336.160        7.273      864.046
01/10/2014  00:10:00     -309.999      -61.206       -4.892       82.833       71.767       40.616     6861.355     5150.442     1649.619        5.676        0.683      315.984       35.393        0.013      335.964        6.946      864.083
01/10/2014  00:11:00     -143.489      -72.492       -3.530       83.117       64.629       33.949     6908.518     4176.898     1152.508        1.905        0.612      160.761       32.333        0.040      336.086        7.149      864.112
01/10/2014  00:12:00       21.588      -35.223        9.847       27.510       61.822       21.476      756.810     3822.002      461.231        0.342        0.252       41.312       12.995        0.099      336.250        7.425      864.097
01/10/2014  00:13:00       -5.677       52.390       76.106       31.487       36.315       30.721      991.438     1318.778      943.771        0.591        0.163       52.696       29.197        0.307      336.306        7.518      864.081
01/10/2014  00:14:00        8.269       -3.337       34.550       25.714       62.915       30.681      661.197     3958.282      941.331        0.342        0.278        8.917       40.261       20.386      336.264        7.450      864.089
01/10/2014  00:15:00       27.666      -92.557      -14.842       38.375       39.135       19.508     1472.671     1531.563      380.550        0.647        0.169       96.603       18.561        0.037      336.323        7.546      864.092
01/10/2014  00:16:00       38.733      -97.883       -5.341       40.929       38.615       29.946     1675.170     1491.085      896.744        0.759        0.203      105.268       28.204        0.072      336.342        7.581      864.113
01/10/2014  00:17:00       56.608       11.180       29.873       44.601       37.767       34.236     1989.210     1426.336     1172.099        0.440        0.229       57.701       25.734        0.199      336.521        7.878      864.104
01/10/2014  00:18:00      101.225        1.327       18.518       56.568       36.083       34.472     3199.912     1301.957     1188.335        0.814        0.285      101.234       32.027        0.100      336.594        8.001      864.080
01/10/2014  00:19:00       15.443       46.577       77.523       40.618       46.309       29.891     1649.860     2144.546      893.482        0.655        0.234       49.070       27.334        0.310      336.406        7.686      864.058
01/10/2014  00:20:00       13.051       89.294       93.453       40.291       44.660       36.313     1623.329     1994.488     1318.619        1.091        0.247       90.243       31.436        0.121      336.475        7.803      864.051
01/10/2014  00:21:00       29.316       75.551       69.774       43.538       39.273       41.088     1895.544     1542.391     1688.222        0.828        0.256       81.039       34.802        0.184      336.451        7.762      864.062
01/10/2014  00:22:00       94.030       44.342       26.789       50.924       41.537       33.068     2593.290     1725.287     1093.508        0.847        0.271      103.961       26.223        0.064      336.449        7.757      864.057
01/10/2014  00:23:00      139.525       68.307       23.852       51.470       35.467       36.303     2649.130     1257.874     1317.887        1.496        0.261      155.348       28.549        0.034      336.506        7.853      864.054
01/10/2014  00:24:00       74.980       67.290       34.941       50.106       37.739       49.960     2510.578     1424.198     2496.047        0.890        0.322      100.747       21.659        0.046      336.374        7.633      864.071
01/10/2014  00:25:00       13.081       82.610       -4.314       32.284       45.830       21.004     1042.285     2100.354      441.178        0.530        0.179       83.639       28.758        0.118      336.313        7.530      864.130
01/10/2014  00:26:00      101.139       75.906       11.177       52.839       42.173       26.941     2792.002     1778.586      725.801        1.071        0.265      126.455       24.403        0.037      336.411        7.694      864.155
01/10/2014  00:27:00       54.365       67.139       49.854       60.463       30.289       40.886     3655.777      917.411     1671.669        0.810        0.312       86.390       41.767        0.234      336.198        7.339      864.143
01/10/2014  00:28:00       92.462       35.125        0.245       33.979       44.645       24.018     1154.570     1993.151      576.843        0.675        0.186       98.909       15.170        0.024      336.248        7.423      864.187
01/10/2014  00:29:00        1.379        2.038       -1.850       24.874       19.427        7.998      618.737      377.389       63.968        0.053        0.053        2.461       10.123       16.923      336.250        7.424      864.228
01/10/2014  00:30:00      -64.642        9.738      -13.034       11.320       15.100        7.803      128.143      228.011       60.884        0.243        0.021       65.371        4.865        0.006      335.885        6.817      864.265
01/10/2014  00:31:00      -33.627      111.346      -17.050       27.960       40.495       19.073      781.744     1639.814      363.778        0.830        0.139      116.313       11.139        0.009      336.569        7.959      864.292
01/10/2014  00:32:00       23.001      140.325      -18.428       29.047       25.566       18.471      843.751      653.632      341.193        1.120        0.092      142.197       16.094        0.013      336.593        7.999      864.295
01/10/2014  00:33:00       27.441       70.449       -8.673       20.743       30.597       19.850      430.284      936.207      394.036        0.378        0.088       75.605       18.449        0.060      336.370        7.627      864.277
01/10/2014  00:34:00       -2.789       62.326       -4.796       24.567       17.010       11.336      603.548      289.346      128.498        0.247        0.051       62.388        7.502        0.014      336.397        7.671      864.239
01/10/2014  00:35:00      -36.306       76.458      -11.957       32.620       46.963       16.569     1064.071     2205.517      274.529        0.542        0.177       84.640       20.409        0.058      336.375        7.634      864.230
01/10/2014  00:36:00     -102.772       13.955      -13.487       27.055       19.085       10.540      731.948      364.231      111.089        0.607        0.060      103.715        9.858        0.009      335.830        6.725      864.264
01/10/2014  00:37:00     -185.588        6.152      -25.037       57.536       26.509       21.285     3310.400      702.727      453.061        1.979        0.223      185.690       19.055        0.011      335.679        6.473      864.288
01/10/2014  00:38:00     -187.295       23.244      -19.817       34.666       38.607       22.119     1201.751     1490.501      489.244        1.960        0.159      188.732       17.293        0.008      335.787        6.653      864.288
01/10/2014  00:39:00     -124.555        6.651       -9.391       36.620       39.006       20.748     1341.009     1521.444      430.471        0.947        0.165      124.732       19.636        0.025      335.842        6.745      864.277
01/10/2014  00:40:00     -107.307       24.648      -12.265       33.976       26.425       16.656     1154.379      698.293      277.416        0.720        0.107      110.102       11.026        0.010      335.932        6.894      864.249
01/10/2014  00:41:00     -101.557       -1.052      -14.068       30.723       33.071       22.532      943.908     1093.684      507.701        0.653        0.127      101.563       14.985        0.022      335.806        6.685      864.208
01/10/2014  00:42:00     -104.116      -15.986      -11.929       24.835       30.853       16.058      616.800      951.894      257.875        0.653        0.091      105.336       10.825        0.011      335.726        6.552      864.196
01/10/2014  00:43:00      -95.123      -34.285       -5.499       24.720       29.095       14.214      611.083      846.504      202.024        0.596        0.083      101.113        8.452        0.007      335.641        6.409      864.197
01/10/2014  00:44:00     -123.753      -46.930       -5.546       21.203       17.807       10.859      449.584      317.095      117.915        0.922        0.044      132.353        6.835        0.003      335.519        6.207      864.181
01/10/2014  00:45:00     -163.037      -39.736       -7.783       39.735       26.075       17.970     1578.882      679.903      322.927        1.540        0.129      167.810       17.539        0.011      335.473        6.130      864.182
01/10/2014  00:46:00     -173.759        6.061      -23.079       22.291       34.407       10.135      496.871     1183.860      102.713        1.627        0.089      173.864       11.432        0.004      336.034        7.064      864.181
01/10/2014  00:47:00     -224.202       64.345      -16.589       38.614       24.561       18.599     1491.044      603.222      345.915        2.856        0.122      233.253       10.481        0.002      335.989        6.986      864.166
01/10/2014  00:48:00     -227.379       19.005      -25.224       49.232       64.152       33.729     2423.780     4115.431     1137.624        3.019        0.384      228.172       17.984        0.006      335.689        6.486      864.192
01/10/2014  00:49:00     -194.603        6.056      -17.993       38.633       55.869       23.265     1492.523     3121.395      541.253        2.169        0.258      194.697       11.458        0.003      335.745        6.583      864.224
01/10/2014  00:50:00     -154.863      -28.749      -34.897       42.956       54.462       23.074     1845.250     2966.122      532.430        1.568        0.267      157.509        6.253        0.002      335.755        6.600      864.237
01/10/2014  00:51:00     -151.009      -10.649      -17.622       49.284       77.320       27.120     2428.915     5978.445      735.486        1.618        0.457      151.384       29.141        0.037      335.828        6.721      864.243
01/10/2014  00:52:00      -63.394      106.033      -14.081       63.654       44.330       25.861     4051.879     1965.191      668.779        1.107        0.334      123.538       26.764        0.047      336.401        7.678      864.192
01/10/2014  00:53:00     -135.848       65.350      -14.715       62.228       48.603       27.961     3872.287     2362.236      781.843        1.498        0.351      150.750       30.278        0.040      336.055        7.099      864.195
01/10/2014  00:54:00     -118.564      112.982      -22.196       52.253       52.086       30.026     2730.342     2712.982      901.585        1.683        0.317      163.776       28.013        0.029      336.387        7.653      864.197
01/10/2014  00:55:00     -159.959      119.400      -29.618       53.965       48.782       33.937     2912.188     2379.712     1151.706        2.358        0.322      199.607       25.267        0.016      336.012        7.026      864.252
01/10/2014  00:56:00      -88.314       18.608      -16.305       51.492       41.691       31.794     2651.437     1738.174     1010.884        0.691        0.270       90.253       33.204        0.135      335.805        6.682      864.257
01/10/2014  00:57:00      -32.066      -13.452        4.656       87.906       37.160       36.073     7727.545     1380.867     1301.257        0.582        0.520       34.773       49.045        1.989      335.723        6.548      864.288
01/10/2014  00:58:00     -104.614     -101.981       -2.258       95.837       49.209       45.121     9184.794     2421.522     2035.880        1.749        0.682      146.097       55.611        0.145      335.613        6.363      864.316
01/10/2014  00:59:00     -120.419     -182.507       -1.697       80.773       63.474       36.651     6524.288     4028.918     1343.268        2.985        0.595      218.654       29.390        0.018      335.928        6.884      864.327
01/10/2014  01:00:00      -90.670      -65.046       10.860       48.302       58.693       29.507     2333.039     3444.886      870.642        0.961        0.332      111.589       27.948        0.063      336.013        7.030      864.328
01/10/2014  01:01:00      -59.987      -73.914        5.632       62.793       41.274       27.940     3942.942     1703.513      780.644        0.776        0.321       95.193       26.720        0.079      336.091        7.161      864.326
01/10/2014  01:02:00     -131.735     -119.424      -11.551       46.884       64.616       25.011     2198.063     4175.223      625.554        1.937        0.350      177.810       21.823        0.015      335.926        6.883      864.339
01/10/2014  01:03:00      -85.269      -67.619        4.327       49.566       49.454       28.260     2456.773     2445.649      798.620        0.878        0.285      108.826       14.908        0.019      335.859        6.774      864.350
01/10/2014  01:04:00     -140.945      -87.142      -10.139       24.825       27.477       16.395      616.278      754.969      268.782        1.460        0.082      165.708        8.981        0.003      335.865        6.783      864.346
01/10/2014  01:05:00      -90.736      -61.889       -6.615       38.089       45.317       24.233     1450.761     2053.596      587.217        0.810        0.205      109.833       12.567        0.013      335.802        6.679      864.329
01/10/2014  01:06:00     -127.023      -64.905       -6.040       31.125       32.938       20.513      968.769     1084.917      420.800        1.143        0.124      142.645       16.836        0.014      335.827        6.720      864.313
01/10/2014  01:07:00      -96.020      -35.980        1.538       47.859       36.957       23.652     2290.499     1365.841      559.416        0.737        0.211      102.540       24.342        0.056      335.746        6.586      864.283
01/10/2014  01:08:00     -100.613      -21.004       -9.682       40.298       44.729       20.891     1623.913     2000.700      436.421        0.736        0.203      102.782       15.828        0.024      335.752        6.595      864.256
01/10/2014  01:09:00     -103.524       32.812       -9.697       40.460       31.719       20.816     1636.979     1006.089      433.294        0.748        0.154      108.600       22.236        0.042      335.648        6.422      864.251
01/10/2014  01:10:00     -113.108       39.464      -10.246       35.555       29.963       18.723     1264.129      897.758      350.556        0.848        0.126      119.795       10.686        0.008      335.654        6.432      864.230
01/10/2014  01:11:00      -84.752       -6.639       -4.116       45.062       25.500       22.407     2030.544      650.239      502.065        0.521        0.159       85.012       21.035        0.061      335.627        6.387      864.227
01/10/2014  01:12:00      -87.000      -12.434       -4.842       33.197       26.984       20.498     1102.034      728.111      420.179        0.500        0.113       87.884       16.683        0.036      335.660        6.443      864.243
01/10/2014  01:13:00      -71.610       -6.706       -3.187       25.155       21.390       15.294      632.787      457.539      233.919        0.325        0.066       71.923       13.944        0.038      335.616        6.368      864.250
01/10/2014  01:14:00      -81.986       -8.983       -7.965       17.816       26.625       13.076      317.406      708.896      170.972        0.403        0.060       82.477       10.239        0.015      335.678        6.472      864.226
01/10/2014  01:15:00      -44.896      -47.344       -5.159       19.468       13.584       12.298      378.995      184.523      151.235        0.250        0.036       65.246       10.462        0.026      335.672        6.462      864.211
01/10/2014  01:16:00      -62.568      -40.665       -5.760       16.934       12.603       12.884      286.747      158.837      165.993        0.311        0.031       74.622        1.070        0.000      335.661        6.445      864.204
01/10/2014  01:17:00      -76.299      -38.702       -7.731       22.561       21.736       12.666      508.980      472.441      160.432        0.426        0.057       85.553        7.742        0.008      335.608        6.356      864.221
01/10/2014  01:18:00      -68.584      -13.800        0.504       21.016       19.530       12.959      441.675      381.409      167.933        0.294        0.050       69.958       11.379        0.026      335.493        6.164      864.247
01/10/2014  01:19:00      -75.667       17.155        0.414       17.016       13.888        9.883      289.552      192.869       97.665        0.330        0.029       77.587        6.942        0.008      335.507        6.187      864.286
01/10/2014  01:20:00      -63.344       14.622       -5.431       25.984       15.774       12.653      675.143      248.815      160.096        0.267        0.054       65.010        8.414        0.017      335.537        6.237      864.350
01/10/2014  01:21:00      -15.515      -10.150       -2.694       14.142       15.827        9.690      199.991      250.509       93.888        0.045        0.027       18.541        6.639        0.128      335.399        6.006      864.395
01/10/2014  01:22:00       17.250      -20.973        1.097       12.598        9.785        8.102      158.717       95.754       65.645        0.053        0.016       27.156        5.604        0.043      335.474        6.131      864.410
01/10/2014  01:23:00       13.865        3.248        2.082       11.667       10.878       11.741      136.124      118.320      137.849        0.030        0.020       14.241        8.203        0.332      335.545        6.250      864.408
01/10/2014  01:24:00       41.330       19.500        7.733       19.441       14.102       13.168      377.944      198.870      173.384        0.145        0.038       45.699       10.139        0.049      335.525        6.216      864.390
01/10/2014  01:25:00       57.081       69.036       54.646       49.634       35.781       39.991     2463.548     1280.295     1599.318        0.818        0.267       89.578       27.907        0.097      335.311        5.860      864.361
01/10/2014  01:26:00       92.172       47.907       15.884       42.157       24.926       30.972     1777.207      621.288      959.292        0.720        0.168      103.878       12.260        0.014      335.055        5.437      864.370
01/10/2014  01:27:00      134.281       59.028       11.343       40.882       42.932       25.954     1671.322     1843.197      673.599        1.292        0.209      146.682       18.951        0.017      335.061        5.446      864.372
01/10/2014  01:28:00       91.156       62.414        9.662       50.147       33.185       21.945     2514.672     1101.235      481.580        0.820        0.205      110.476       14.142        0.016      335.039        5.409      864.369
01/10/2014  01:29:00       82.449       65.654        9.615       45.453       31.203       27.244     2065.972      973.642      742.250        0.749        0.189      105.396       19.178        0.033      334.967        5.289      864.373
01/10/2014  01:30:00       25.342       29.458        6.172       22.478       26.454       26.827      505.269      699.824      719.690        0.174        0.096       38.859       17.525        0.203      334.979        5.309      864.381
01/10/2014  01:31:00       21.029      111.978      -15.164       20.350       31.428       14.791      414.137      987.740      218.772        0.742        0.081      113.935       17.450        0.023      335.249        5.757      864.404
01/10/2014  01:32:00        1.115      131.984      -19.915       12.286       16.264        7.413      150.950      264.531       54.953        0.914        0.024      131.988        8.480        0.004      335.502        6.178      864.432
01/10/2014  01:33:00       -9.775      103.791      -15.008       21.927       27.798       11.348      480.811      772.715      128.788        0.624        0.069      104.250       10.274        0.010      335.495        6.167      864.447
01/10/2014  01:34:00        4.303       74.598       -8.604       25.091       39.035       14.415      629.541     1523.765      207.783        0.401        0.118       74.722       13.083        0.031      335.488        6.154      864.435
01/10/2014  01:35:00       -1.464        4.638        2.586       15.664       10.660        9.819      245.346      113.629       96.417        0.024        0.023        4.863        6.305        1.681      335.279        5.806      864.379
01/10/2014  01:36:00      -18.256       -2.040        5.418       14.696       15.579        9.178      215.977      242.701       84.238        0.045        0.027       18.370        9.117        0.246      335.009        5.359      864.341
01/10/2014  01:37:00       50.732       32.410        8.260       14.247       13.751       11.099      202.964      189.089      123.189        0.210        0.026       60.201        6.657        0.012      335.309        5.855      864.341
01/10/2014  01:38:00       28.923       37.875        3.457       20.665       18.332       14.716      427.062      336.070      216.570        0.163        0.049       47.655       12.255        0.066      335.246        5.750      864.379
01/10/2014  01:39:00        2.044       83.415      -13.002       19.688       21.033        8.839      387.620      442.372       78.120        0.402        0.045       83.440       10.831        0.017      335.293        5.828      864.422
01/10/2014  01:40:00      -17.939       90.899       -9.071       19.759       31.784       17.649      390.433     1010.235      311.491        0.519        0.086       92.652       14.856        0.026      335.483        6.146      864.454
01/10/2014  01:41:00      -47.886       69.052      -15.369       19.377       26.709       11.252      375.481      713.378      126.601        0.426        0.061       84.031       12.118        0.021      335.361        5.944      864.473
01/10/2014  01:42:00      -23.107       86.558      -12.925       16.856       17.709       13.520      284.114      313.619      182.780        0.449        0.039       89.589       10.600        0.014      335.475        6.133      864.480
01/10/2014  01:43:00       -5.755       81.390      -10.199       18.297       21.866       13.460      334.796      478.131      181.169        0.388        0.050       81.593       11.394        0.019      335.590        6.326      864.491
01/10/2014  01:44:00      -15.903       79.205       -3.925       26.021       30.062       16.709      677.069      903.727      279.199        0.420        0.093       80.786       15.454        0.037      335.486        6.152      864.512
01/10/2014  01:45:00      -29.768       80.144       -9.217       20.484       32.175       17.609      419.608     1035.253      310.088        0.458        0.088       85.493       17.117        0.040      335.357        5.935      864.523
01/10/2014  01:46:00      -24.223       69.009       -8.284       20.336       29.795       10.834      413.543      887.739      117.368        0.342        0.071       73.137       11.969        0.027      335.463        6.114      864.535
01/10/2014  01:47:00       -4.273       38.314        1.330       20.388       20.422       10.294      415.684      417.053      105.968        0.121        0.047       38.551        8.908        0.053      335.566        6.286      864.550
01/10/2014  01:48:00      -77.399      -11.589      -15.756       18.465       13.362       10.887      340.945      178.556      118.536        0.351        0.032       78.262        8.965        0.013      334.757        4.941      864.568
01/10/2014  01:49:00     -130.208        4.358      -17.017       36.621       23.406       17.712     1341.091      547.858      313.721        0.973        0.110      130.281        5.039        0.001      334.476        4.473      864.607
01/10/2014  01:50:00      -98.166        1.284       -6.679       42.318       39.101       21.367     1790.805     1528.922      456.551        0.673        0.189       98.175       16.902        0.030      334.386        4.325      864.655
01/10/2014  01:51:00      -69.871       10.720      -14.277       35.178       22.382       16.833     1237.495      500.957      283.361        0.361        0.101       70.689       18.977        0.072      334.518        4.543      864.697
01/10/2014  01:52:00      -55.212       12.533      -11.762       13.629       19.835       12.930      185.739      393.431      167.185        0.204        0.037       56.616        9.816        0.030      334.719        4.877      864.704
01/10/2014  01:53:00      -46.739       13.074      -10.892       15.550       18.057       16.758      241.815      326.046      280.843        0.166        0.042       48.533       12.152        0.063      334.743        4.917      864.701
01/10/2014  01:54:00      -72.267       -7.084      -14.932       17.624       15.151       11.852      310.611      229.539      140.464        0.309        0.034       72.614        6.646        0.008      334.707        4.856      864.694
01/10/2014  01:55:00      -73.430      -13.341      -14.430       12.871       10.375        8.700      165.667      107.632       75.696        0.306        0.017       74.632        7.033        0.009      334.670        4.794      864.689
01/10/2014  01:56:00      -85.957      -15.044      -14.131       13.081       17.593        9.879      171.115      309.516       97.592        0.420        0.029       87.264        8.864        0.010      334.474        4.470      864.646
01/10/2014  01:57:00      -74.119       -7.941      -11.892       16.814       16.595       15.928      282.714      275.377      253.715        0.325        0.041       74.543       12.065        0.026      334.493        4.502      864.602
01/10/2014  01:58:00      -52.512      -22.819       -9.147       17.078       21.906       16.699      291.656      479.853      278.870        0.221        0.053       57.256       13.597        0.056      334.556        4.606      864.584
01/10/2014  01:59:00      -43.545      -17.754      -13.361        9.174       13.853        6.041       84.160      191.899       36.493        0.135        0.016       47.025        2.979        0.004      334.811        5.029      864.582
01/10/2014  02:00:00      -55.279      -14.076      -10.991       19.789        9.650        6.535      391.608       93.120       42.701        0.195        0.026       57.043        4.946        0.008      334.647        4.758      864.575
01/10/2014  02:01:00      -65.780      -22.619      -15.331       11.100        9.065        6.928      123.211       82.176       47.997        0.266        0.013       69.560        6.132        0.008      334.569        4.628      864.566
01/10/2014  02:02:00      -80.289      -31.506      -14.413        9.441        8.841        5.975       89.136       78.158       35.699        0.392        0.010       86.249        4.122        0.002      334.549        4.596      864.556
01/10/2014  02:03:00      -72.163      -34.134      -15.421        6.652        5.730        4.914       44.255       32.837       24.152        0.336        0.005       79.829        3.444        0.002      334.573        4.635      864.536
01/10/2014  02:04:00      -71.194      -30.926      -16.405        6.498        6.741        5.851       42.221       45.447       34.229        0.321        0.006       77.621        3.348        0.002      334.635        4.737      864.521
01/10/2014  02:05:00      -71.054      -24.403      -15.548       10.334        6.316        8.300      106.784       39.896       68.884        0.305        0.011       75.128        6.724        0.008      334.679        4.811      864.516
01/10/2014  02:06:00      -87.182      -24.155      -14.997       10.587        6.427        5.698      112.082       41.313       32.466        0.430        0.009       90.467        1.470        0.000      334.730        4.896      864.514
01/10/2014  02:07:00     -147.859      -14.505      -21.254       25.912       19.670       11.197      671.434      386.919      125.376        1.185        0.059      148.569       10.137        0.005      334.423        4.387      864.519
01/10/2014  02:08:00     -165.575      -42.900      -24.803       18.522       21.991       15.046      343.074      483.594      226.397        1.546        0.053      171.043        5.960        0.001      334.284        4.155      864.532
01/10/2014  02:09:00     -131.384      -41.929      -18.232       29.015       23.407       19.784      841.848      547.867      391.410        1.057        0.089      137.912       15.018        0.012      334.164        3.956      864.529
01/10/2014  02:10:00     -143.558      -64.874        1.231       47.735       33.383       23.193     2278.639     1114.441      537.938        1.437        0.197      157.536       22.533        0.020      334.290        4.167      864.529
01/10/2014  02:11:00     -154.324      -60.568       -3.291       20.600       20.792       12.605      424.372      432.300      158.897        1.426        0.051      165.784        6.325        0.001      334.295        4.174      864.534
01/10/2014  02:12:00     -119.329      -34.316       -3.063       32.567       28.304       19.558     1060.582      801.094      382.533        0.883        0.112      124.166       14.384        0.013      334.623        4.718      864.549
01/10/2014  02:13:00      -69.436      -22.186       -0.960       30.190       30.193       20.487      911.416      911.605      419.708        0.378        0.112       72.895       18.928        0.067      334.624        4.719      864.539
01/10/2014  02:14:00      -94.928      -37.732       -3.362       25.824       18.431       12.398      666.862      339.714      153.722        0.580        0.058      102.152        5.145        0.003      334.576        4.638      864.527
01/10/2014  02:15:00      -63.377      -50.262       -0.338       17.873       15.874       12.119      319.442      251.977      146.870        0.363        0.036       80.889       11.056        0.019      334.634        4.738      864.525
01/10/2014  02:16:00      -54.917      -32.892        0.172       12.556       16.907       10.046      157.660      285.846      100.931        0.232        0.027       64.013        7.813        0.015      334.829        5.060      864.508
01/10/2014  02:17:00      -48.099      -12.709        1.704       14.045       12.626        8.591      197.273      159.409       73.809        0.145        0.022       49.750        5.959        0.014      334.753        4.935      864.487
01/10/2014  02:18:00      -69.872      -25.831        0.554       21.213       21.742       12.265      450.006      472.712      150.434        0.331        0.054       74.494       10.190        0.019      334.552        4.600      864.477
01/10/2014  02:19:00     -106.450      -36.787       -8.457       15.683       18.208       11.248      245.953      331.523      126.512        0.673        0.035      112.627        9.989        0.008      334.205        4.024      864.474
01/10/2014  02:20:00      -62.356      -27.150        2.082       30.286       19.821       10.156      917.236      392.856      103.139        0.302        0.071       68.010        9.839        0.021      334.075        3.808      864.480
01/10/2014  02:21:00      -20.063      -21.918        6.963       34.258       15.186       11.352     1173.600      230.606      128.869        0.123        0.077       29.714       12.933        0.189      334.142        3.920      864.465
01/10/2014  02:22:00       -0.493      -10.161       14.066       11.455       15.997       11.589      131.219      255.918      134.306        0.041        0.026       10.173        7.719        0.576      334.402        4.353      864.436
01/10/2014  02:23:00       10.297       18.306       29.364       15.653       13.865       12.032      245.023      192.238      144.774        0.094        0.029       21.003        9.845        0.220      334.267        4.128      864.427
01/10/2014  02:24:00       14.118       -1.940        3.977        9.257       13.989       10.671       85.690      195.697      113.864        0.031        0.020       14.251        9.172        0.414      334.235        4.075      864.412
01/10/2014  02:25:00       17.262       -1.769        2.651        9.122       16.854        9.914       83.204      284.049       98.282        0.039        0.023       17.353        9.796        0.319      334.603        4.685      864.375
01/10/2014  02:26:00       17.258       -2.904        2.464       32.134       21.889       15.063     1032.605      479.112      226.880        0.103        0.087       17.500       12.720        0.528      334.284        4.156      864.383
01/10/2014  02:27:00        6.823      -31.228       -0.600       19.261       13.276       12.941      370.980      176.250      167.465        0.087        0.036       31.965        9.737        0.093      334.344        4.255      864.449
01/10/2014  02:28:00       53.205       19.728       33.695       24.353       39.673       15.415      593.089     1573.929      237.634        0.338        0.120       56.745       13.036        0.053      334.261        4.118      864.514
01/10/2014  02:29:00      117.001       57.490       14.262       30.362       23.997       20.764      921.865      575.869      431.162        0.956        0.096      130.362       18.554        0.020      334.071        3.801      864.546
01/10/2014  02:30:00      126.943       62.834        2.917       26.028       22.224       20.892      677.454      493.896      436.478        1.084        0.080      141.643       14.833        0.011      333.990        3.666      864.572
01/10/2014  02:31:00       83.128       36.668        5.257       24.772       24.139       15.592      613.641      582.675      243.119        0.486        0.072       90.856       12.046        0.018      333.955        3.610      864.579
01/10/2014  02:32:00        2.132       -9.047        5.188       28.704       15.509       11.789      823.937      240.523      138.978        0.066        0.060        9.295       13.875        2.228      333.964        3.626      864.601
01/10/2014  02:33:00      -30.404      -24.164       -2.086       21.970       10.734       11.183      482.694      115.220      125.069        0.112        0.036       38.837       12.153        0.098      334.014        3.708      864.611
01/10/2014  02:34:00       -9.475      -32.427       -4.080       16.340       14.602        7.060      266.983      213.218       49.841        0.084        0.027       33.783        6.223        0.034      334.120        3.883      864.614
01/10/2014  02:35:00       33.180       19.844       17.686       23.143       14.043       13.402      535.591      197.201      179.619        0.136        0.046       38.661       12.800        0.110      334.080        3.816      864.581
01/10/2014  02:36:00       34.048       33.002       22.402       28.070       19.746       17.641      787.902      389.896      311.212        0.212        0.074       47.417       15.996        0.114      334.182        3.986      864.558
01/10/2014  02:37:00       -4.363       -5.251        8.714       11.846       18.285       13.740      140.331      334.333      188.780        0.039        0.033        6.827       10.495        2.363      334.200        4.016      864.550
01/10/2014  02:38:00     -108.572      -30.754       -8.134       48.342       40.680       15.941     2336.941     1654.866      254.125        0.852        0.212      112.844       13.687        0.015      334.095        3.841      864.534
01/10/2014  02:39:00     -115.805      -73.977       -2.363       28.990       26.099       20.497      840.413      681.184      420.130        1.042        0.097      137.417       17.413        0.016      333.980        3.651      864.483
01/10/2014  02:40:00     -106.886      -57.454       -6.879       17.201       17.643       14.894      295.866      311.263      221.838        0.780        0.041      121.349       11.226        0.009      334.161        3.950      864.441
01/10/2014  02:41:00      -66.895      -25.157       -8.859       23.713       15.572        9.641      562.305      242.492       92.958        0.304        0.045       71.469        6.863        0.009      334.265        4.123      864.439
01/10/2014  02:42:00      -23.867      -20.748       -0.722       19.746       10.348        8.707      389.915      107.090       75.806        0.079        0.029       31.625        7.696        0.059      334.272        4.136      864.428
01/10/2014  02:43:00      -91.454      -36.588      -14.510       25.580       13.904        9.364      654.324      193.309       87.693        0.542        0.047       98.501        6.377        0.004      334.248        4.095      864.408
01/10/2014  02:44:00     -149.909      -45.866       -2.493       24.817       25.344       14.700      615.886      642.312      216.083        1.303        0.074      156.768       10.167        0.004      334.039        3.749      864.393
01/10/2014  02:45:00     -153.217      -66.169        2.581       43.901       38.938       24.544     1927.285     1516.191      602.408        1.595        0.202      166.894       21.516        0.017      334.036        3.743      864.374
01/10/2014  02:46:00     -120.545      -13.317       -4.374       30.945       28.850       16.496      957.572      832.324      272.105        0.839        0.103      121.279       13.451        0.012      334.068        3.796      864.359
01/10/2014  02:47:00      -97.012       45.322       -5.579       44.456       31.994       23.446     1976.367     1023.592      549.732        0.752        0.177      107.077       21.792        0.041      334.162        3.953      864.343
01/10/2014  02:48:00      -93.354       78.494      -17.294       26.373       26.457       18.909      695.559      699.955      357.564        0.846        0.088      121.968       15.688        0.017      334.447        4.426      864.336
01/10/2014  02:49:00      -80.180       54.227      -16.942       25.345       27.062       15.471      642.349      732.372      239.357        0.563        0.081       96.796       16.985        0.031      334.613        4.701      864.353
01/10/2014  02:50:00      -42.597       16.877       -8.448       14.507       13.572        9.623      210.453      184.200       92.601        0.133        0.024       45.818        1.830        0.002      334.632        4.734      864.373
01/10/2014  02:51:00      -38.297        9.316       -6.230        6.122        4.614        4.329       37.480       21.291       18.744        0.083        0.004       39.413        2.646        0.005      334.801        5.011      864.358
01/10/2014  02:52:00      -30.651        4.644       -3.424        3.692        3.000        3.400       13.627        9.000       11.563        0.050        0.002       31.001        1.063        0.001      335.019        5.380      864.327
01/10/2014  02:53:00      -38.732       -4.011        2.311       12.079       12.610        6.246      145.910      159.006       39.008        0.093        0.017       38.939        7.224        0.034      334.716        4.873      864.342
01/10/2014  02:54:00      -58.155      -19.091      -13.380        8.602        7.506        7.662       73.994       56.336       58.708        0.206        0.009       61.208        3.933        0.004      334.304        4.188      864.372
01/10/2014  02:55:00      -32.916       -4.687      -10.631       16.855       12.424        4.037      284.098      154.358       16.299        0.084        0.023       33.248        4.789        0.021      334.415        4.373      864.382
01/10/2014  02:56:00       15.395        8.623        2.826       12.587       11.758       12.976      158.439      138.240      168.376        0.039        0.023       17.645        7.695        0.190      334.617        4.707      864.374
01/10/2014  02:57:00       30.607       41.054        4.195        8.971       11.556       12.822       80.482      133.533      164.394        0.151        0.019       51.208        9.431        0.034      334.333        4.237      864.387
01/10/2014  02:58:00       23.380       87.064       -4.170       11.033       17.399       12.531      121.721      302.731      157.035        0.436        0.029       90.149       10.771        0.014      334.475        4.473      864.407
01/10/2014  02:59:00       19.438      154.993      -26.554       22.708       56.612       18.768      515.671     3204.915      352.237        1.459        0.204      156.207       23.768        0.023      334.186        3.990      864.423
01/10/2014  03:00:00       13.096      179.320      -27.417       19.899       31.798       15.957      395.969     1011.098      254.631        1.737        0.083      179.798       14.211        0.006      334.313        4.202      864.442
01/10/2014  03:01:00      -35.121      156.475      -24.203       20.684       25.549       11.760      427.839      652.736      138.306        1.376        0.061      160.368        7.638        0.002      334.584        4.653      864.462
01/10/2014  03:02:00      -48.146       16.123       -3.158       17.652       33.576       12.764      311.605     1127.320      162.932        0.209        0.080       50.774        5.534        0.012      334.218        4.045      864.508
01/10/2014  03:03:00      -41.385       -6.450       -8.102       13.698       23.633        7.218      187.628      558.515       52.099        0.131        0.040       41.884        6.198        0.022      334.064        3.790      864.511
01/10/2014  03:04:00      -38.675      -30.086       -7.389       15.861       12.794       10.484      251.583      163.699      109.915        0.149        0.026       48.999        6.132        0.016      333.868        3.464      864.489
01/10/2014  03:05:00      -75.055      -29.554      -12.134       14.582       21.519       12.095      212.638      463.062      146.280        0.374        0.041       80.664       11.306        0.020      333.837        3.413      864.488
01/10/2014  03:06:00     -108.283      -41.790      -14.480       15.694       20.424       12.956      246.307      417.154      167.855        0.726        0.042      116.067       11.096        0.009      333.649        3.101      864.509
01/10/2014  03:07:00      -64.138      -19.171       -6.501       28.376       23.035       19.343      805.185      530.607      374.143        0.312        0.085       66.942       16.056        0.058      333.620        3.054      864.521
01/10/2014  03:08:00      -47.809        0.410       -5.980       20.654       15.321        8.981      426.568      234.745       80.661        0.153        0.037       47.811        6.662        0.019      333.761        3.287      864.520
01/10/2014  03:09:00      -41.371        4.574       -8.005       12.872       16.593       11.288      165.689      275.318      127.417        0.118        0.028       41.623        8.886        0.046      334.122        3.887      864.506
01/10/2014  03:10:00      -47.981      -18.297       -0.958       17.170       16.916        9.301      294.818      286.161       86.503        0.165        0.033       51.352        6.550        0.016      334.073        3.806      864.507
01/10/2014  03:11:00      -84.342      -26.626      -12.759        9.457        9.258        9.230       89.444       85.702       85.198        0.412        0.013       88.445        6.743        0.006      333.776        3.312      864.530
01/10/2014  03:12:00      -91.062      -36.611      -11.598       26.726       16.286       15.837      714.255      265.219      250.806        0.550        0.062       98.146       12.103        0.015      333.581        2.990      864.528
01/10/2014  03:13:00      -76.439      -41.322      -16.849       15.530       16.196       11.070      241.177      262.317      122.548        0.423        0.031       86.893        4.813        0.003      333.656        3.112      864.495
01/10/2014  03:14:00      -79.825      -30.477       -8.342       13.761       11.086        9.102      189.368      122.906       82.839        0.388        0.020       85.445        5.368        0.004      333.713        3.207      864.454
01/10/2014  03:15:00      -76.863      -34.530      -10.811       13.186       10.323        8.264      173.873      106.555       68.296        0.378        0.017       84.263        6.153        0.005      333.924        3.560      864.421
01/10/2014  03:16:00      -74.808      -19.833      -17.479        8.540       12.831        6.592       72.940      164.644       43.454        0.329        0.014       77.392        1.253        0.000      333.899        3.518      864.404
01/10/2014  03:17:00      -84.872       -3.400      -17.532        6.884        7.663        6.440       47.394       58.716       41.479        0.383        0.007       84.940        2.056        0.001      333.886        3.494      864.430
01/10/2014  03:18:00      -76.384        0.287      -13.932       10.721        8.160        9.832      114.937       66.586       96.676        0.315        0.014       76.385        4.394        0.003      333.956        3.611      864.462
01/10/2014  03:19:00      -25.196       16.941       -4.881       14.979       10.972        7.040      224.379      120.387       49.555        0.067        0.020       30.361        7.183        0.056      334.675        4.804      864.471
01/10/2014  03:20:00       29.045       15.135        5.250       14.703        9.347       10.797      216.191       87.373      116.577        0.076        0.021       32.752        7.230        0.049      334.826        5.054      864.462
01/10/2014  03:21:00       19.534       -5.672        5.448       13.365       14.672       13.155      178.619      215.256      173.046        0.051        0.028       20.341       10.154        0.249      334.526        4.555      864.446
01/10/2014  03:22:00        7.989      -33.121        2.874       13.766       19.064       12.463      189.505      363.446      155.331        0.094        0.035       34.070        9.934        0.085      334.423        4.387      864.437
01/10/2014  03:23:00      -23.840      -34.740       -1.048       28.817       20.985       16.399      830.404      440.388      268.912        0.166        0.077       42.134       14.892        0.125      334.183        3.987      864.425
01/10/2014  03:24:00      -87.459      -11.764       -9.819        9.968       13.332        7.617       99.365      177.734       58.020        0.411        0.017       88.247        6.654        0.006      333.910        3.535      864.414
01/10/2014  03:25:00      -91.521       -4.818       -7.343       10.445       13.894        7.709      109.105      193.046       59.422        0.441        0.018       91.648        5.748        0.004      333.901        3.522      864.416
01/10/2014  03:26:00      -65.576       -5.753       -3.675       21.033       12.787        6.630      442.387      163.501       43.962        0.250        0.032       65.828        7.752        0.014      333.956        3.610      864.392
01/10/2014  03:27:00      -70.488      -16.020       -7.639       15.270       12.899        8.229      233.181      166.383       67.711        0.288        0.023       72.285        7.774        0.012      333.845        3.426      864.379
01/10/2014  03:28:00     -108.595      -18.917      -12.366       22.056       19.330       13.217      486.469      373.666      174.691        0.667        0.052      110.230       11.465        0.011      333.783        3.324      864.383
01/10/2014  03:29:00     -127.907      -18.527      -18.093       24.187       16.438       10.816      584.993      270.218      116.977        0.900        0.049      129.242       10.803        0.007      333.722        3.223      864.404
01/10/2014  03:30:00      -71.475       -4.064       -3.734       42.482       19.750       17.071     1804.684      390.065      291.412        0.381        0.124       71.591       14.454        0.041      333.471        2.807      864.427
01/10/2014  03:31:00      -61.975       -6.559       -9.125       26.039       21.213       17.243      678.032      450.012      297.314        0.270        0.071       62.321       13.086        0.044      333.577        2.983      864.433
01/10/2014  03:32:00      -87.231      -37.818       -1.957       44.666       20.989       18.789     1995.065      440.558      353.022        0.592        0.139       95.076       13.515        0.020      333.471        2.806      864.430
01/10/2014  03:33:00     -123.921      -54.417       -9.001       22.619       31.996       13.310      511.642     1023.774      177.153        1.006        0.086      135.343        8.198        0.004      333.494        2.845      864.429
01/10/2014  03:34:00     -110.999      -15.238       -4.637       37.462       18.856       15.657     1403.425      355.542      245.135        0.729        0.100      112.040       15.224        0.018      333.482        2.825      864.437
01/10/2014  03:35:00     -112.975      -22.874      -10.290       16.320       13.235       11.670      266.337      175.168      136.185        0.698        0.029      115.267        7.481        0.004      333.568        2.967      864.442
01/10/2014  03:36:00     -111.779        0.098       -6.272       13.059       10.626        7.544      170.526      112.908       56.918        0.644        0.017      111.780        5.630        0.003      333.628        3.066      864.433
01/10/2014  03:37:00     -113.707       12.133      -14.438       13.661       11.208        7.856      186.635      125.613       61.712        0.683        0.019      114.353        1.659        0.000      333.624        3.061      864.421
01/10/2014  03:38:00      -77.606       10.019       -9.657       16.001       15.842       10.922      256.017      250.963      119.286        0.342        0.031       78.250        9.509        0.015      333.638        3.086      864.425
01/10/2014  03:39:00      -80.007       -0.167      -14.152       14.602       21.057       11.463      213.223      443.395      131.411        0.369        0.039       80.008        9.394        0.014      333.646        3.098      864.447
01/10/2014  03:40:00     -110.410      -47.192      -12.809       28.694       26.771       15.536      823.343      716.707      241.354        0.818        0.089      120.073        9.165        0.006      333.509        2.869      864.478
01/10/2014  03:41:00      -64.360      -31.115       -4.933       51.448       38.756       19.859     2646.869     1502.006      394.393        0.484        0.227       71.487       16.410        0.053      333.482        2.826      864.525
01/10/2014  03:42:00     -100.074      -39.614        0.083       45.573       39.188       22.222     2076.934     1535.690      493.813        0.784        0.205      107.630       24.789        0.053      333.510        2.871      864.552
01/10/2014  03:43:00     -100.686      -18.409       -6.828       20.033       28.112       15.176      401.326      790.274      230.326        0.597        0.071      102.355       10.313        0.010      333.455        2.780      864.578
01/10/2014  03:44:00     -104.640       17.043       -8.586       44.847       25.475       22.109     2011.293      648.998      488.816        0.723        0.157      106.019       23.613        0.050      333.521        2.889      864.599
01/10/2014  03:45:00     -134.798      -11.858      -14.117       39.098       17.141       18.159     1528.641      293.826      329.741        1.033        0.108      135.318       19.528        0.021      333.585        2.996      864.611
01/10/2014  03:46:00      -69.451      -20.576       -8.934       32.161       14.070       14.119     1034.331      197.952      199.349        0.338        0.072       72.435       18.411        0.065      333.651        3.106      864.602
01/10/2014  03:47:00      -16.872      -15.754        3.304       15.784       10.108        9.958      249.122      102.163       99.167        0.050        0.023       23.084        7.067        0.094      333.843        3.423      864.585
01/10/2014  03:48:00      -57.657       -7.856       -5.852       19.590       10.121       10.224      383.751      102.433      104.535        0.201        0.030       58.190        8.700        0.022      333.682        3.156      864.574
01/10/2014  03:49:00      -49.019      -23.612       -0.140       16.554       19.502       11.011      274.037      380.337      121.243        0.187        0.039       54.409        9.046        0.028      333.575        2.980      864.597
01/10/2014  03:50:00      -41.742       -4.900        5.264       17.128       18.107       12.528      293.374      327.873      156.942        0.129        0.039       42.029       10.743        0.065      333.571        2.973      864.608
01/10/2014  03:51:00      -20.191      -16.491       -3.526        9.284        5.158        3.834       86.191       26.602       14.703        0.041        0.006       26.070        2.978        0.013      333.756        3.279      864.601
01/10/2014  03:52:00      -23.690      -21.193        0.095       21.206        9.083        4.294      449.706       82.510       18.442        0.078        0.028       31.786        3.736        0.014      333.865        3.461      864.591
01/10/2014  03:53:00      -79.844      -27.934       -9.143       15.379       10.515        5.598      236.502      110.559       31.342        0.381        0.019       84.590        4.308        0.003      333.767        3.297      864.594
01/10/2014  03:54:00      -89.442      -30.892       -8.546        7.082        7.259        7.129       50.162       52.686       50.820        0.459        0.008       94.627        4.292        0.002      333.654        3.110      864.602
01/10/2014  03:55:00      -80.781      -15.888       -4.463       12.634       11.226        6.957      159.618      126.026       48.399        0.357        0.017       82.329        4.954        0.004      333.621        3.055      864.620
01/10/2014  03:56:00      -79.482       23.087       -7.613       14.192       13.543        7.949      201.415      183.426       63.180        0.368        0.022       82.767        6.215        0.006      333.685        3.161      864.672
01/10/2014  03:57:00      -57.732       39.732       -9.680       19.353       17.288        9.122      374.535      298.865       83.218        0.288        0.038       70.083        4.379        0.004      333.835        3.412      864.737
01/10/2014  03:58:00      -29.947       64.463       -8.573       16.517       15.700        9.550      272.796      246.489       91.202        0.287        0.031       71.080        2.071        0.001      334.118        3.880      864.788
01/10/2014  03:59:00      -43.216       71.060       -7.748       24.986       22.678       17.954      624.312      514.297      322.355        0.422        0.073       83.169       15.018        0.033      334.093        3.839      864.811
01/10/2014  04:00:00      -42.965       46.240       -4.796       14.698       13.117        9.437      216.031      172.043       89.051        0.224        0.024       63.120        5.862        0.009      334.333        4.236      864.812
01/10/2014  04:01:00       29.624       13.870       14.656       20.035        8.715       13.659      401.399       75.952      186.579        0.097        0.033       32.710        3.370        0.011      333.974        3.641      864.832
01/10/2014  04:02:00       52.345       27.911        2.205       27.124       13.672       10.570      735.720      186.917      111.714        0.228        0.052       59.321        3.520        0.004      333.706        3.197      864.862
01/10/2014  04:03:00       49.883       28.722        0.995       36.194       29.361       21.924     1310.016      862.045      480.682        0.298        0.133       57.561       14.539        0.064      333.639        3.085      864.887
01/10/2014  04:04:00       30.470       26.609        9.249       24.321       18.878       16.198      591.490      356.387      262.360        0.147        0.061       40.453       10.098        0.062      333.411        2.708      864.923
01/10/2014  04:05:00       30.402       82.441       -3.538       30.427       51.445       26.424      925.830     2646.632      698.251        0.600        0.214       87.868       31.635        0.130      333.327        2.569      864.950
01/10/2014  04:06:00       29.676      127.342       -9.662       32.777       39.888       30.230     1074.324     1591.014      913.853        1.038        0.179      130.754       26.756        0.042      333.527        2.899      864.955
01/10/2014  04:07:00       24.050       93.311      -12.543       29.501       43.451       27.530      870.311     1887.996      757.917        0.648        0.176       96.361       23.997        0.062      333.642        3.090      864.929
01/10/2014  04:08:00       28.487       68.807       -5.883       22.729       30.445       22.026      516.609      926.899      485.161        0.375        0.096       74.471       17.402        0.055      333.863        3.458      864.912
01/10/2014  04:09:00       33.438       48.165       -4.727       23.950       30.308       17.506      573.580      918.580      306.473        0.263        0.090       58.634       13.995        0.057      333.974        3.642      864.922
01/10/2014  04:10:00       49.646       10.370       15.008       34.163       25.948       11.926     1167.137      673.319      142.225        0.239        0.099       50.717        3.492        0.005      334.014        3.709      864.946
01/10/2014  04:11:00        1.024      -10.588        4.458       16.887       17.249        7.117      285.184      297.513       50.650        0.038        0.032       10.638        6.035        0.322      334.128        3.897      864.959
01/10/2014  04:12:00      -68.999      -13.185       -9.656       15.513       13.067        7.636      240.664      170.737       58.313        0.275        0.023       70.248        4.428        0.004      333.628        3.068      864.978
01/10/2014  04:13:00      -72.648      -12.024      -13.215       11.552       10.765       10.474      133.441      115.888      109.712        0.298        0.018       73.637        6.447        0.008      333.877        3.481      865.000
01/10/2014  04:14:00      -92.456       -0.356      -13.610       11.268       12.842       10.680      126.973      164.905      114.052        0.457        0.020       92.457        7.473        0.007      333.896        3.512      865.017
01/10/2014  04:15:00      -82.626       -1.624      -17.686       19.947       15.437       13.326      397.883      238.300      177.586        0.398        0.041       82.641       13.097        0.025      334.008        3.697      865.020
01/10/2014  04:16:00      -59.423        8.823       -6.526       18.081       14.175        9.961      326.940      200.919       99.220        0.214        0.031       60.075        8.386        0.019      334.036        3.744      865.011
01/10/2014  04:17:00      -36.147       16.933       -2.880       16.862       22.827        7.146      284.335      521.092       51.072        0.123        0.043       39.916        5.649        0.020      334.113        3.873      865.001
01/10/2014  04:18:00       -0.905       11.406        2.269       20.512       13.020       12.267      420.760      169.529      150.489        0.044        0.037       11.442        7.050        0.380      334.288        4.162      865.005
01/10/2014  04:19:00      -48.980      -30.260      -11.855       14.133       15.734        9.936      199.749      247.564       98.720        0.200        0.027       57.574        9.101        0.025      334.006        3.694      865.013
01/10/2014  04:20:00      -61.733      -41.748      -12.942       28.913       13.593       10.344      835.979      184.781      106.998        0.342        0.056       74.524        4.465        0.004      333.708        3.201      865.012
01/10/2014  04:21:00      -88.144      -21.839      -10.778       13.461       19.244        8.878      181.212      370.318       78.814        0.450        0.032       90.809        5.489        0.004      333.627        3.066      865.017
01/10/2014  04:22:00     -104.622       -2.340      -16.166        8.964       10.242        9.117       80.360      104.893       83.115        0.574        0.013      104.648        3.995        0.001      333.677        3.149      865.034
01/10/2014  04:23:00      -83.482      -22.344      -17.168        8.164        7.523        6.399       66.656       56.597       40.946        0.396        0.008       86.420        4.874        0.003      333.918        3.548      865.046
01/10/2014  04:24:00      -68.118       -6.586      -15.063       10.157        7.116        6.561      103.164       50.632       43.051        0.255        0.010       68.436        3.640        0.003      334.024        3.726      865.044
01/10/2014  04:25:00      -80.932      -14.434      -13.561        9.924       10.951        7.908       98.483      119.926       62.529        0.361        0.014       82.209        6.044        0.005      333.846        3.429      865.066
01/10/2014  04:26:00     -111.777      -15.811      -16.957       12.736       12.240        9.374      162.201      149.826       87.878        0.672        0.020      112.890        5.962        0.003      333.524        2.895      865.077
01/10/2014  04:27:00      -83.517      -26.689      -11.720       16.076       15.088       16.758      258.446      227.654      280.834        0.430        0.038       87.677        7.849        0.008      333.477        2.817      865.081
01/10/2014  04:28:00     -110.063      -29.793      -15.109       39.910       33.794       17.642     1592.799     1142.062      311.255        0.814        0.152      114.024       14.797        0.017      333.524        2.893      865.094
01/10/2014  04:29:00     -127.018      -51.092      -16.358       13.660       14.847       12.681      186.585      220.439      160.796        0.979        0.028      136.908        7.557        0.003      333.522        2.890      865.114
01/10/2014  04:30:00     -100.104      -45.360      -10.011       19.143       16.356        8.844      366.448      267.524       78.211        0.645        0.036      109.902        5.832        0.003      333.584        2.994      865.127
01/10/2014  04:31:00     -115.805      -32.735      -15.370       27.059       15.961       11.656      732.166      254.738      135.862        0.792        0.056      120.342        8.837        0.005      333.488        2.835      865.128
01/10/2014  04:32:00     -180.835      -31.452      -13.762       43.111       28.772       22.892     1858.523      827.809      524.036        1.854        0.161      183.549       21.500        0.014      333.347        2.601      865.125
01/10/2014  04:33:00     -136.095      -51.430        1.375       60.978       45.394       22.869     3718.328     2060.607      522.982        1.373        0.315      145.488       23.028        0.025      333.376        2.649      865.132
01/10/2014  04:34:00     -148.000      -19.406      -12.730       33.475       23.801       18.529     1120.582      566.506      343.315        1.224        0.102      149.267       17.333        0.013      333.365        2.631      865.153
01/10/2014  04:35:00     -128.746      -36.810      -17.994       24.500       19.583       14.925      600.228      383.487      222.743        0.973        0.060      133.905       13.190        0.010      333.406        2.700      865.176
01/10/2014  04:36:00     -115.780      -46.562       -9.853       19.837       13.204       11.584      393.524      174.343      134.190        0.819        0.035      124.792        8.762        0.005      333.638        3.084      865.174
01/10/2014  04:37:00     -115.530      -33.209      -15.175       22.415       17.060        8.802      502.419      291.027       77.469        0.778        0.044      120.208        4.835        0.002      333.644        3.094      865.188
01/10/2014  04:38:00     -138.634      -37.390      -19.316       12.672       15.430        8.348      160.580      238.084       69.691        1.073        0.023      143.588        4.219        0.001      333.578        2.986      865.219
01/10/2014  04:39:00     -115.514      -75.464      -16.298       35.207       19.620       21.386     1239.512      384.951      457.351        1.069        0.104      137.979       11.987        0.008      333.531        2.906      865.233
01/10/2014  04:40:00      -81.497      -55.220        1.358       47.039       39.528       30.190     2212.686     1562.497      911.420        0.719        0.234       98.443       31.803        0.104      333.381        2.659      865.232
01/10/2014  04:41:00     -120.667      -59.237       -5.473       36.319       24.933       20.488     1319.057      621.648      419.745        1.023        0.118      134.423       20.156        0.022      333.394        2.681      865.220
01/10/2014  04:42:00     -151.278      -49.169       -6.783       31.451       24.047       20.743      989.135      578.272      430.277        1.367        0.100      159.068       16.937        0.011      333.382        2.660      865.209
01/10/2014  04:43:00      -84.708      -54.175        2.733       55.877       24.755       19.044     3122.191      612.825      362.682        0.711        0.205      100.550       23.635        0.055      333.364        2.630      865.196
01/10/2014  04:44:00     -104.940      -94.120       -6.123       47.345       37.363       25.256     2241.548     1396.027      637.881        1.209        0.214      140.964       23.748        0.028      333.566        2.965      865.187
01/10/2014  04:45:00     -184.241      -92.818       -1.438       71.856       47.963       35.524     5163.345     2300.449     1261.939        2.564        0.436      206.300       30.425        0.022      333.541        2.919      865.183
01/10/2014  04:46:00     -179.332      -87.796       -3.933       49.593       46.514       30.170     2459.512     2163.521      910.204        2.271        0.277      199.670       25.729        0.017      333.672        3.139      865.166
01/10/2014  04:47:00     -129.976      -32.192        0.292       56.683       38.374       25.686     3213.001     1472.543      659.760        1.164        0.267      133.904       25.797        0.037      333.755        3.278      865.154
01/10/2014  04:48:00     -127.995      -12.154       -2.418       27.974       26.088       21.320      782.519      680.609      454.540        0.923        0.096      128.571       17.857        0.019      333.697        3.182      865.142
01/10/2014  04:49:00      -97.302      -31.252       -1.001       25.128       16.328       14.898      631.413      266.617      221.960        0.578        0.056      102.198       15.892        0.024      333.577        2.981      865.161
01/10/2014  04:50:00      -87.515      -44.365       -3.281       29.837       21.993       19.707      890.250      483.700      388.378        0.570        0.088       98.117       14.831        0.023      333.559        2.953      865.194
01/10/2014  04:51:00     -127.816      -29.429      -12.749       19.823       19.147       11.836      392.934      366.590      140.102        0.913        0.045      131.160        9.252        0.005      333.658        3.117      865.239
01/10/2014  04:52:00     -128.721      -43.868       -8.506       23.478       23.870       17.083      551.213      569.764      291.844        0.999        0.071      135.991       12.032        0.008      333.381        2.657      865.290
01/10/2014  04:53:00     -105.539      -28.194       -6.081       41.286       33.093       21.860     1704.512     1095.143      477.843        0.762        0.164      109.240       21.719        0.040      333.270        2.476      865.330
01/10/2014  04:54:00     -123.600        0.699      -10.646       40.348       37.174       22.914     1627.968     1381.939      525.064        0.946        0.177      123.602       16.434        0.018      333.461        2.791      865.338
01/10/2014  04:55:00     -106.850       -8.143       -3.430       31.418       21.396       22.097      987.113      457.780      488.263        0.671        0.097      107.159       18.790        0.031      333.478        2.818      865.325
01/10/2014  04:56:00      -85.221       -9.307       -9.548       26.247       23.742       16.271      688.907      563.694      264.747        0.448        0.076       85.728       11.170        0.017      333.401        2.691      865.302
01/10/2014  04:57:00      -78.641      -33.079       -0.406       34.073       24.685       17.099     1160.969      609.336      292.359        0.467        0.103       85.315       11.673        0.019      333.259        2.456      865.283
01/10/2014  04:58:00      -42.545      -33.083        0.154       23.005       19.718       16.439      529.245      388.814      270.242        0.205        0.059       53.894       14.411        0.071      333.251        2.442      865.255
01/10/2014  04:59:00      -30.947      -27.346        2.561       18.809       16.763       12.381      353.787      280.998      153.301        0.125        0.039       41.298       12.009        0.085      333.284        2.497      865.248
01/10/2014  05:00:00       -8.102      -39.656        4.439       25.243       14.078       11.265      637.233      198.197      126.899        0.131        0.048       40.475       11.130        0.076      333.402        2.694      865.251
01/10/2014  05:01:00      -61.211      -43.193       -2.651       15.560       14.902        9.826      242.118      222.070       96.549        0.309        0.028       74.916        6.742        0.008      333.382        2.658      865.251
01/10/2014  05:02:00      -70.791      -29.146       -8.813        8.870       12.212        7.633       78.679      149.135       58.259        0.311        0.014       76.556        5.175        0.005      333.298        2.522      865.256
01/10/2014  05:03:00      -77.313      -34.924       -4.746       12.567       11.140        6.957      157.942      124.098       48.404        0.377        0.017       84.835        5.731        0.005      333.294        2.514      865.257
01/10/2014  05:04:00      -60.424      -46.932       -8.847       17.503       29.709       14.947      306.357      882.602      223.412        0.367        0.071       76.510       13.936        0.033      333.512        2.875      865.252
01/10/2014  05:05:00      -50.896      -41.471        1.715       57.094       25.450       24.432     3259.781      647.684      596.938        0.441        0.225       65.653       30.473        0.215      333.430        2.737      865.244
01/10/2014  05:06:00      -66.699      -63.337        4.028       49.261       33.237       22.105     2426.616     1104.687      488.644        0.625        0.201       91.980       22.271        0.059      333.598        3.017      865.246
01/10/2014  05:07:00      -77.381      -45.826       -1.027       17.976       26.561       11.459      323.144      705.508      131.318        0.462        0.058       89.932        7.821        0.008      333.678        3.149      865.245
01/10/2014  05:08:00      -83.461      -31.967       -9.095       14.915       12.864       10.964      222.469      165.474      120.209        0.429        0.025       89.373        7.148        0.006      333.494        2.843      865.253
01/10/2014  05:09:00      -64.706      -26.147        1.851       27.227       19.213       16.083      741.327      369.142      258.648        0.312        0.068       69.789       14.230        0.042      333.330        2.574      865.279
01/10/2014  05:10:00      -47.931      -31.003        5.208       33.711       24.981       19.530     1136.420      624.045      381.416        0.271        0.107       57.084       17.312        0.092      333.410        2.706      865.301
01/10/2014  05:11:00      -44.466      -31.492        7.633       48.817       34.323       23.093     2383.104     1178.038      533.296        0.356        0.205       54.488       24.445        0.201      333.352        2.609      865.300
01/10/2014  05:12:00      -56.043      -49.245        1.795       62.919       47.876       29.632     3958.836     2292.085      878.059        0.635        0.356       74.605       17.420        0.055      333.241        2.426      865.294
01/10/2014  05:13:00     -133.059      -84.519       -4.286       59.713       37.318       32.840     3565.642     1392.659     1078.442        1.545        0.302      157.633       36.489        0.054      333.392        2.676      865.277
01/10/2014  05:14:00     -132.154      -27.197       -7.666       39.558       34.790       21.356     1564.832     1210.354      456.084        1.075        0.162      134.924       19.122        0.020      333.358        2.620      865.262
01/10/2014  05:15:00     -101.124      -26.993       -0.897       44.029       21.205       21.616     1938.563      449.660      467.247        0.691        0.143      104.665       22.675        0.047      333.279        2.489      865.267
01/10/2014  05:16:00      -86.473       -8.428        1.652       48.021       39.661       24.376     2306.061     1572.989      594.211        0.601        0.224       86.883       29.051        0.112      333.411        2.709      865.256
01/10/2014  05:17:00     -103.839        0.354       -2.769       30.559       23.411       17.873      933.856      548.060      319.437        0.630        0.090      103.840       12.388        0.014      333.453        2.777      865.237
01/10/2014  05:18:00      -67.744      -20.053        1.628       40.506       31.806       20.335     1640.761     1011.627      413.530        0.403        0.153       70.650       23.836        0.114      333.411        2.707      865.231
01/10/2014  05:19:00     -107.647      -48.934       -1.454       35.055       29.878       16.100     1228.828      892.689      259.207        0.818        0.119      118.247       12.442        0.011      333.469        2.803      865.219
01/10/2014  05:20:00      -87.792      -55.684       -2.104       50.032       25.749       18.889     2503.191      662.988      356.812        0.717        0.176      103.962       15.884        0.023      333.297        2.519      865.220
01/10/2014  05:21:00     -130.659      -70.782       -2.612       34.894       25.369       18.311     1217.568      643.608      335.298        1.214        0.110      148.600       14.893        0.010      333.391        2.675      865.230
01/10/2014  05:22:00      -90.715      -41.602        6.692       58.859       31.614       24.504     3464.329      999.443      600.450        0.753        0.253       99.800       31.132        0.097      333.205        2.366      865.224
01/10/2014  05:23:00      -89.458      -63.759       -1.040       40.899       31.285       23.669     1672.763      978.782      560.212        0.764        0.161      109.854       22.732        0.043      333.163        2.298      865.212
01/10/2014  05:24:00     -131.391      -62.269       -1.166       29.671       34.327       22.594      880.381     1178.330      510.473        1.186        0.128      145.400       20.662        0.020      333.141        2.262      865.208
01/10/2014  05:25:00     -124.302      -49.564       -0.485       31.791       34.462       19.476     1010.695     1187.654      379.314        1.024        0.129      133.819       18.504        0.019      333.178        2.322      865.209
01/10/2014  05:26:00     -138.336      -29.471       -9.326       50.376       22.279       17.909     2537.755      496.334      320.735        1.172        0.168      141.441       24.131        0.029      333.161        2.294      865.232
01/10/2014  05:27:00     -143.311      -35.616       -6.840       26.291       24.212       17.333      691.237      586.207      300.447        1.172        0.079      147.670       10.156        0.005      333.194        2.348      865.248
01/10/2014  05:28:00     -123.403      -33.394       -6.220       17.575       19.916       13.709      308.879      396.643      187.941        0.864        0.045      127.842        9.318        0.005      333.357        2.619      865.259
01/10/2014  05:29:00      -91.495      -40.484       -4.929       20.690       18.678       12.476      428.068      348.854      155.649        0.548        0.047      100.052       11.042        0.012      333.420        2.724      865.247
01/10/2014  05:30:00      -48.666      -31.842        9.759       46.666       29.123       20.336     2177.744      848.137      413.571        0.346        0.172       58.158       24.810        0.182      333.377        2.652      865.248
01/10/2014  05:31:00      -63.194      -78.258       -1.077       51.235       41.839       27.550     2625.032     1750.514      758.999        0.763        0.257      100.587       21.915        0.047      333.495        2.847      865.273
01/10/2014  05:32:00     -107.789      -63.007       -2.827       34.090       28.124       20.404     1162.101      790.948      416.323        0.898        0.118      124.854       14.516        0.014      333.625        3.061      865.310
01/10/2014  05:33:00      -82.020      -52.157       -3.420       24.501       20.699       14.427      600.286      428.453      208.137        0.535        0.062       97.199        7.251        0.006      333.578        2.985      865.349
01/10/2014  05:34:00      -69.468      -35.032       -2.994       24.150       20.166       10.557      583.221      406.680      111.442        0.358        0.055       77.801       11.613        0.022      333.505        2.862      865.354
01/10/2014  05:35:00       -4.697      -29.524        1.924       23.020       17.126       10.116      529.907      293.293      102.341        0.091        0.046       29.896        4.745        0.025      333.564        2.961      865.342
01/10/2014  05:36:00        4.814      -16.196        9.257        6.838       16.235        9.517       46.754      263.589       90.566        0.039        0.020       16.896       10.712        0.402      333.525        2.898      865.348
01/10/2014  05:37:00       18.863       46.652       46.972       34.553       26.911       21.295     1193.886      724.176      453.496        0.355        0.119       50.321       16.236        0.104      333.321        2.559      865.370
01/10/2014  05:38:00       55.026       50.276       50.190       38.463       29.921       27.448     1479.440      895.243      753.415        0.560        0.156       74.536       17.743        0.057      333.188        2.339      865.399
01/10/2014  05:39:00        9.880       15.765       35.060       25.967       21.271       15.310      674.302      452.466      234.385        0.147        0.068       18.605       11.035        0.352      333.070        2.146      865.459
01/10/2014  05:40:00        2.227       13.057       29.674       12.553       28.619       14.502      157.576      819.074      210.318        0.112        0.059       13.245       14.177        1.146      333.077        2.156      865.541
01/10/2014  05:41:00        1.825       15.450       18.597       11.565       11.537       14.274      133.759      133.101      203.736        0.053        0.024       15.558        9.870        0.402      333.027        2.073      865.614
01/10/2014  05:42:00       -5.099       13.248       14.389       18.103       14.460       11.193      327.722      209.083      125.283        0.054        0.033       14.196        5.898        0.173      332.912        1.884      865.651
01/10/2014  05:43:00      -41.558       -3.289       -2.621       26.761       22.684       12.590      716.172      514.551      158.508        0.157        0.069       41.688       10.565        0.064      333.024        2.069      865.669
01/10/2014  05:44:00      -83.160      -53.874        3.066       49.637       34.390       23.738     2463.865     1182.703      563.494        0.702        0.211       99.086       22.082        0.050      333.052        2.115      865.654
01/10/2014  05:45:00      -65.423       -3.932        0.389       29.973       16.991       11.842      898.391      288.678      140.224        0.281        0.066       65.541       15.825        0.058      333.170        2.308      865.600
01/10/2014  05:46:00      -47.792       29.201       -6.137       15.053       11.767       12.108      226.598      138.454      146.608        0.184        0.026       56.007       10.554        0.036      333.079        2.159      865.550
01/10/2014  05:47:00      -60.904       20.000      -15.508       12.553       12.345        9.473      157.575      152.390       89.731        0.237        0.020       64.104        6.868        0.011      332.908        1.878      865.541
01/10/2014  05:48:00      -51.787       10.102       -6.471        8.369        9.403        6.810       70.048       88.425       46.373        0.152        0.010       52.763        1.060        0.000      332.961        1.965      865.554
01/10/2014  05:49:00      -39.038      -18.415        2.214       12.688       14.021        9.786      160.994      196.593       95.774        0.116        0.023       43.164        8.625        0.040      333.018        2.058      865.555
01/10/2014  05:50:00       -1.916       -0.089       12.675       15.216       13.247       14.142      231.540      175.485      200.006        0.039        0.030        1.918       14.350       55.982      332.913        1.885      865.585
01/10/2014  05:51:00        7.696      137.748      -18.816       15.179       47.403       17.635      230.394     2247.068      310.980        1.109        0.139      137.963       23.638        0.029      332.487        1.181      865.606
01/10/2014  05:52:00       28.087      131.043      -23.257       22.017       42.833       22.028      484.754     1834.628      485.238        1.065        0.140      134.019       24.785        0.034      332.500        1.202      865.596
01/10/2014  05:53:00       26.497      110.217      -21.561       18.345       32.255       16.223      336.549     1040.382      263.195        0.748        0.082      113.357       18.406        0.026      332.477        1.164      865.594
01/10/2014  05:54:00        4.305       99.679      -19.466       10.522       17.655        9.078      110.717      311.712       82.418        0.542        0.025       99.772        8.067        0.007      332.475        1.161      865.618
01/10/2014  05:55:00      -23.540      109.417      -12.624       19.190       24.477       14.583      368.256      599.143      212.666        0.693        0.059      111.921        3.254        0.001      332.626        1.410      865.662
01/10/2014  05:56:00        1.974       99.096      -13.407       21.570       20.747       11.509      465.266      430.442      132.453        0.552        0.051       99.116        9.698        0.010      332.674        1.489      865.693
01/10/2014  05:57:00        5.350       73.268      -12.578       16.011       27.492        8.658      256.338      755.824       74.953        0.332        0.054       73.463        7.518        0.010      332.684        1.507      865.697
01/10/2014  05:58:00      -10.906       67.546      -11.365       11.417        9.902        5.905      130.350       98.050       34.865        0.254        0.013       68.421        3.317        0.002      332.814        1.722      865.706
01/10/2014  05:59:00      -17.797       12.758        7.949       24.250       28.039       11.415      588.065      786.188      130.292        0.102        0.075       21.897       12.939        0.349      332.773        1.653      865.714
01/10/2014  06:00:00       -2.265      101.370       -9.874       19.509       26.840        7.372      380.612      720.379       54.341        0.577        0.058      101.395        6.627        0.004      332.944        1.937      865.718
01/10/2014  06:01:00       25.314       94.036      -17.142        9.978        9.994        6.358       99.569       99.885       40.422        0.501        0.012       97.384        3.399        0.001      332.906        1.874      865.735
01/10/2014  06:02:00       22.062       41.615      -10.364       15.745       26.538       10.649      247.917      704.257      113.405        0.170        0.053       47.102        9.109        0.037      332.891        1.850      865.737
01/10/2014  06:03:00       -0.471       28.519       -5.564        8.354        6.430        5.728       69.788       41.348       32.807        0.049        0.007       28.523        5.171        0.033      333.038        2.091      865.732
01/10/2014  06:04:00        5.309       37.016        0.816       10.944        7.029        4.940      119.769       49.402       24.399        0.080        0.010       37.395        1.603        0.002      333.223        2.398      865.733
01/10/2014  06:05:00       26.255       42.292       -1.803       11.103       14.668       10.702      123.269      215.137      114.527        0.147        0.023       49.778        9.339        0.035      332.975        1.987      865.743
01/10/2014  06:06:00       42.629       33.879        3.354       13.461       11.594       12.857      181.203      134.411      165.291        0.173        0.024       54.452        9.317        0.029      332.956        1.956      865.745
01/10/2014  06:07:00       53.753       40.509        2.426       21.480       21.037       16.003      461.384      442.552      256.085        0.285        0.058       67.308       13.077        0.038      333.017        2.056      865.752
01/10/2014  06:08:00       42.999       31.845        1.862       21.806       25.265       19.731      475.505      638.329      389.299        0.218        0.075       53.507       16.504        0.095      332.973        1.983      865.761
01/10/2014  06:09:00       48.522       31.738        6.140       16.476       18.593       14.215      271.466      345.697      202.080        0.211        0.041       57.980       10.606        0.033      332.976        1.989      865.768
01/10/2014  06:10:00       -2.129        6.121        3.563       10.235       20.154        9.654      104.753      406.188       93.202        0.033        0.030        6.481       11.243        3.010      332.979        1.994      865.775
01/10/2014  06:11:00        6.008       57.442       -6.125        9.754       11.461        4.582       95.134      131.348       20.998        0.181        0.012       57.755        2.903        0.003      333.408        2.703      865.779
01/10/2014  06:12:00       -3.274       48.671       -2.999       13.804        8.196        5.608      190.556       67.171       31.449        0.134        0.014       48.781        3.532        0.005      333.520        2.889      865.742
01/10/2014  06:13:00      -12.193       17.831       -3.767       16.238       17.822        7.097      263.664      317.606       50.368        0.056        0.032       21.601        6.598        0.093      333.612        3.042      865.696
01/10/2014  06:14:00      -48.272      -19.581      -11.166       12.824        9.570        6.454      164.456       91.589       41.656        0.157        0.015       52.092        6.036        0.013      333.142        2.265      865.682
01/10/2014  06:15:00      -57.940      -21.914       -9.075        5.857       10.465        5.509       34.309      109.513       30.353        0.205        0.009       61.945        4.835        0.006      333.202        2.360      865.689
01/10/2014  06:16:00      -75.627       -4.707      -12.253       13.600        8.582        6.044      184.951       73.657       36.525        0.309        0.015       75.774        6.057        0.006      333.094        2.184      865.699
01/10/2014  06:17:00     -118.461       -3.382      -12.943       15.443        9.991        9.150      238.489       99.818       83.723        0.732        0.021      118.509        6.043        0.003      332.997        2.024      865.748
01/10/2014  06:18:00     -117.529        2.816      -15.587       12.035       10.298        7.428      144.845      106.047       55.180        0.718        0.015      117.563        3.752        0.001      333.022        2.064      865.794
01/10/2014  06:19:00      -87.646        0.389      -14.706       15.476       10.981        9.612      239.522      120.580       92.384        0.418        0.023       87.647        5.930        0.005      333.018        2.058      865.822
01/10/2014  06:20:00     -120.116      -10.715      -18.806       15.837       12.521       11.415      250.802      156.766      130.309        0.772        0.027      120.593        2.455        0.000      332.953        1.951      865.824
01/10/2014  06:21:00     -121.559      -43.076      -17.007       19.168       22.668       13.083      367.429      513.830      171.159        0.899        0.053      128.966        8.389        0.004      332.825        1.741      865.806
01/10/2014  06:22:00     -144.370      -54.928       -7.131       24.380       39.003       19.277      594.381     1521.220      371.605        1.320        0.124      154.466        9.153        0.004      332.697        1.529      865.774
01/10/2014  06:23:00      -63.472      -32.749        9.766       40.875       33.447       25.820     1670.754     1118.719      666.677        0.433        0.173       71.423       24.831        0.121      332.636        1.427      865.744
01/10/2014  06:24:00     -107.654      -20.129       -3.003       31.538       31.989       20.910      994.640     1023.271      437.213        0.723        0.123      109.520       16.008        0.021      332.682        1.503      865.723
01/10/2014  06:25:00      -90.026      -23.717       -5.621       21.766       32.602       12.821      473.763     1062.873      164.368        0.520        0.085       93.098        9.460        0.010      332.670        1.486      865.711
01/10/2014  06:26:00     -144.372      -22.836      -14.355       16.211       18.369       11.028      262.790      337.437      121.607        1.115        0.036      146.167        5.927        0.002      332.701        1.534      865.722
01/10/2014  06:27:00     -124.936      -61.202       -8.596       25.052       31.132       18.234      627.608      969.178      332.489        1.068        0.096      139.122       16.654        0.014      332.722        1.569      865.753
01/10/2014  06:28:00     -103.610      -56.987      -11.990       39.360       26.828       17.962     1549.240      719.716      322.623        0.836        0.130      118.248       16.792        0.020      332.765        1.641      865.789
01/10/2014  06:29:00      -94.559      -40.715      -11.009       20.450       19.686       13.385      418.189      387.521      179.157        0.585        0.049      102.952        4.340        0.002      332.747        1.612      865.809
01/10/2014  06:30:00      -67.227      -12.435       -2.732       19.712       23.020        9.876      388.551      529.928       97.532        0.285        0.051       68.367       10.538        0.024      332.778        1.663      865.812
01/10/2014  06:31:00      -73.757       -5.921       -4.851       21.892       16.577       10.966      479.273      274.783      120.263        0.319        0.044       73.995        9.218        0.016      332.692        1.520      865.823
01/10/2014  06:32:00      -57.663       -7.427       -1.272       31.404       13.535       12.876      986.193      183.205      165.801        0.236        0.067       58.139       13.777        0.056      332.663        1.473      865.843
01/10/2014  06:33:00      -56.794      -26.024       -6.622       21.137       22.534       12.679      446.763      507.801      160.766        0.253        0.056       62.473       12.214        0.038      332.695        1.525      865.867
01/10/2014  06:34:00      -75.464      -21.615       -8.551       22.952       24.806       11.568      526.793      615.317      133.830        0.376        0.064       78.499       10.286        0.017      332.739        1.598      865.882
01/10/2014  06:35:00     -118.590      -10.492      -17.205       16.046       24.518       13.946      257.459      601.118      194.490        0.776        0.053      119.053       10.537        0.008      332.727        1.578      865.909
01/10/2014  06:36:00     -142.516      -16.237      -13.631       26.879       20.710       19.483      722.501      428.895      379.591        1.115        0.077      143.438       16.260        0.013      332.598        1.364      865.946
01/10/2014  06:37:00      -89.697      -30.532        3.625       31.288       25.081       14.121      978.927      629.047      199.398        0.540        0.090       94.751       10.982        0.013      332.592        1.355      865.974
01/10/2014  06:38:00      -22.302       -2.256        7.964       33.607       13.486       13.559     1129.454      181.871      183.858        0.103        0.075       22.415       15.754        0.494      332.632        1.421      865.971
01/10/2014  06:39:00       21.070       15.095       20.856       12.103        7.838        7.878      146.476       61.432       62.063        0.069        0.013       25.919        3.795        0.021      332.696        1.527      865.952
01/10/2014  06:40:00       56.932       43.228       26.923       34.532       15.547       18.587     1192.492      241.718      345.495        0.381        0.089       71.484       16.823        0.055      332.861        1.798      865.920
01/10/2014  06:41:00        6.885       33.234       38.285       21.390       19.360       13.707      457.536      374.808      187.891        0.182        0.051       33.939       10.912        0.103      332.860        1.799      865.918
01/10/2014  06:42:00       -9.494       -2.330       11.328       11.542       17.396       18.010      133.210      302.637      324.343        0.049        0.038        9.775       15.877        2.638      332.824        1.739      865.957
01/10/2014  06:43:00      -40.453       12.808       -4.589       18.874       11.379       14.368      356.241      129.492      206.450        0.126        0.035       42.433        8.725        0.042      332.902        1.868      866.007
01/10/2014  06:44:00       -8.750        2.649        9.553       12.972        7.174        5.741      168.278       51.465       32.954        0.021        0.013        9.142        7.263        0.631      332.914        1.886      866.036
01/10/2014  06:45:00        4.566       -0.914        4.380       13.882       14.233       11.143      192.701      202.580      124.174        0.028        0.026        4.656       10.664        5.245      332.823        1.736      866.035
01/10/2014  06:46:00        8.172        9.915       -0.649       15.400        7.519        7.858      237.173       56.529       61.747        0.026        0.018       12.848        8.356        0.423      333.134        2.250      866.043
01/10/2014  06:47:00      -33.822        0.132        0.109       17.355        7.549        7.111      301.213       56.983       50.571        0.078        0.020       33.823        7.903        0.055      333.109        2.209      866.087
01/10/2014  06:48:00      -65.215       14.961       -5.388       13.869       13.332        9.511      192.349      177.752       90.467        0.248        0.023       66.909        6.967        0.011      332.795        1.691      866.140
01/10/2014  06:49:00      -50.728       20.725       -8.954       19.856       13.731       10.229      394.260      188.548      104.625        0.189        0.034       54.798        4.117        0.006      332.698        1.529      866.170
01/10/2014  06:50:00        3.567        8.576       -1.767        7.666        8.148        8.085       58.773       66.392       65.372        0.014        0.010        9.288        4.040        0.189      332.889        1.846      866.153
01/10/2014  06:51:00        2.616        7.941        4.006       14.473       13.675        8.511      209.475      186.993       72.434        0.028        0.023        8.361        7.663        0.840      333.020        2.063      866.135
01/10/2014  06:52:00      -14.009      -17.704       -4.403        9.627       15.237        6.670       92.685      232.167       44.486        0.045        0.018       22.576        5.069        0.050      332.976        1.990      866.139
01/10/2014  06:53:00       -1.383      -11.637        7.284       11.317        9.852       10.621      128.084       97.055      112.812        0.026        0.017       11.719        9.645        0.677      332.903        1.869      866.149
01/10/2014  06:54:00      -47.101       12.073       -2.771       20.105       12.283        6.621      404.219      150.875       43.839        0.149        0.030       48.624        6.511        0.018      332.852        1.786      866.171
01/10/2014  06:55:00      -47.388        7.196       -5.203       18.580       10.701        8.539      345.220      114.511       72.911        0.143        0.027       47.931        8.895        0.034      332.821        1.733      866.163
01/10/2014  06:56:00        4.412        4.936        8.651       18.545        8.810        8.033      343.907       77.610       64.525        0.030        0.024        6.620        8.871        1.796      332.850        1.780      866.132
01/10/2014  06:57:00       17.879        7.377       14.324       16.782        9.936        9.744      281.643       98.714       94.938        0.053        0.024       19.341        8.433        0.190      332.912        1.883      866.135
01/10/2014  06:58:00      -41.354       12.704       -3.208       27.399       17.603       11.960      750.712      309.856      143.048        0.154        0.060       43.262       12.509        0.084      332.647        1.445      866.138
01/10/2014  06:59:00      -44.091        8.607       -5.245        8.712       15.228        8.769       75.898      231.896       76.898        0.122        0.019       44.923        4.331        0.009      332.532        1.256      866.115
01/10/2014  07:00:00      -33.258      -23.218        0.838       22.568       15.815        9.370      509.319      250.100       87.798        0.125        0.042       40.560       11.677        0.083      332.577        1.331      866.092
01/10/2014  07:01:00      -48.860      -32.233       -6.863       16.975       10.632        9.028      288.140      113.029       81.511        0.198        0.024       58.535        6.014        0.011      332.703        1.537      866.079
01/10/2014  07:02:00      -45.968      -20.126       -8.087        7.985        9.255        7.358       63.762       85.654       54.141        0.139        0.010       50.181        3.421        0.005      332.616        1.393      866.054
01/10/2014  07:03:00      -52.962      -13.972       -6.917       15.641       11.306        6.304      244.636      127.834       39.740        0.173        0.021       54.774        7.327        0.018      332.552        1.288      866.053
01/10/2014  07:04:00      -42.759      -10.640       -3.668       13.715       10.384        8.186      188.111      107.831       67.004        0.116        0.018       44.063        7.548        0.029      332.611        1.386      866.066
01/10/2014  07:05:00      -87.459        2.316       -6.515       27.137       14.748       14.367      736.428      217.505      206.415        0.443        0.058       87.490       15.074        0.030      332.592        1.355      866.109
01/10/2014  07:06:00      -49.035        7.559       -1.546       13.245       16.556       10.362      175.443      274.087      107.381        0.151        0.028       49.614        7.093        0.020      332.500        1.202      866.161
01/10/2014  07:07:00      -54.860      -14.416       -9.319       11.037       15.101        8.358      121.824      228.027       69.862        0.186        0.021       56.722        6.752        0.014      332.437        1.100      866.199
01/10/2014  07:08:00      -65.129      -14.642       -7.685       17.346       16.243       11.042      300.885      263.836      121.930        0.260        0.034       66.755        6.662        0.010      332.459        1.135      866.219
01/10/2014  07:09:00      -61.069       -2.993       -8.039       13.828       10.399        9.797      191.216      108.145       95.986        0.210        0.020       61.142        7.751        0.016      332.447        1.114      866.204
01/10/2014  07:10:00      -64.566      -12.219       -8.114       24.686       15.194       11.828      609.381      230.869      139.895        0.268        0.049       65.712       13.436        0.042      332.416        1.063      866.199
01/10/2014  07:11:00      -75.609      -30.997      -18.654       13.359       12.654       10.545      178.467      160.135      111.199        0.374        0.022       81.716        5.280        0.004      332.470        1.153      866.199
01/10/2014  07:12:00      -28.562      -34.501       -6.874       25.296       26.949       18.093      639.908      726.274      327.351        0.187        0.085       44.790       18.620        0.173      332.466        1.147      866.179
01/10/2014  07:13:00      -82.474      -31.668       -5.600       32.960       15.606       18.185     1086.366      243.554      330.692        0.475        0.083       88.345       19.687        0.050      332.589        1.351      866.145
01/10/2014  07:14:00      -95.607        3.181       -7.726       10.591       14.013        6.536      112.172      196.366       42.721        0.478        0.018       95.660        4.428        0.002      332.825        1.740      866.146
01/10/2014  07:15:00      -74.004       12.575       -7.591       19.691        9.227        8.921      387.752       85.141       79.584        0.312        0.028       75.065        7.482        0.010      332.698        1.531      866.187
01/10/2014  07:16:00      -41.527       14.794       -9.056        7.483       10.151        8.004       56.001      103.037       64.064        0.112        0.011       44.084        5.512        0.016      332.709        1.548      866.216
01/10/2014  07:17:00      -26.056       21.946       -0.049       20.575       17.593        9.783      423.317      309.524       95.713        0.099        0.041       34.067        7.932        0.054      332.988        2.009      866.249
01/10/2014  07:18:00       25.016       52.792       -9.536       24.900       20.213       12.933      620.004      408.558      167.270        0.235        0.060       58.420       10.211        0.031      332.711        1.551      866.261
01/10/2014  07:19:00       61.846       28.156        7.325       30.858       21.589       19.101      952.190      466.090      364.854        0.323        0.089       67.954       14.994        0.049      332.558        1.298      866.245
01/10/2014  07:20:00       12.044       82.874      -11.754       11.487       28.334       12.063      131.941      802.841      145.521        0.412        0.054       83.745       16.469        0.039      332.579        1.333      866.234
01/10/2014  07:21:00       -4.627      124.696      -20.657       13.828       16.615        7.186      191.216      276.056       51.636        0.826        0.026      124.782        5.529        0.002      332.773        1.654      866.240
01/10/2014  07:22:00      -14.416      122.513      -14.987       15.105       37.874       14.982      228.164     1434.454      224.457        0.866        0.094      123.359        8.599        0.005      332.925        1.906      866.242
01/10/2014  07:23:00      -22.511       70.186       -2.430       28.019       43.322       20.393      785.060     1876.771      415.875        0.426        0.154       73.708       22.324        0.092      332.999        2.026      866.231
01/10/2014  07:24:00      -14.907      103.148      -10.099       28.956       39.979       16.317      838.451     1598.300      266.239        0.683        0.135      104.219       17.064        0.027      333.247        2.436      866.235
01/10/2014  07:25:00      -22.530      133.562      -15.056       23.472       27.178       15.586      550.911      738.635      242.936        1.005        0.077      135.449        6.076        0.002      333.354        2.614      866.276
01/10/2014  07:26:00      -32.802        7.605        1.195       17.914       23.168       12.389      320.898      536.758      153.479        0.107        0.051       33.672       10.771        0.102      332.834        1.755      866.304
01/10/2014  07:27:00      -80.232      -17.683       -9.704       16.012       25.292       10.080      256.368      639.681      101.608        0.392        0.050       82.157        9.985        0.015      332.509        1.215      866.302
01/10/2014  07:28:00     -104.194      -47.297      -17.486       17.458       17.590       12.246      304.796      309.416      149.964        0.708        0.038      114.427        3.726        0.001      332.415        1.061      866.300
01/10/2014  07:29:00      -98.642      -25.111       -8.739       32.577       21.279       12.983     1061.252      452.802      168.562        0.606        0.084      101.788       16.492        0.026      332.495        1.194      866.299
01/10/2014  07:30:00     -100.069       -4.732      -14.930       14.982       12.661       11.633      224.446      160.301      135.322        0.539        0.026      100.181        8.649        0.007      332.678        1.497      866.296
01/10/2014  07:31:00     -104.379      -14.952      -11.964       17.492       11.907       14.768      305.953      141.779      218.086        0.596        0.033      105.444       11.338        0.012      332.662        1.471      866.322
01/10/2014  07:32:00      -92.133      -35.829      -16.501       19.374       14.183       16.942      375.364      201.167      287.031        0.545        0.043       98.855       12.438        0.016      332.570        1.318      866.355
01/10/2014  07:33:00      -78.414      -32.298      -13.068       14.726       17.295        9.579      216.842      299.111       91.748        0.399        0.030       84.805        7.063        0.007      332.554        1.293      866.361
01/10/2014  07:34:00      -93.507       -6.555      -10.805       25.972       16.364       13.519      674.540      267.795      182.766        0.501        0.056       93.737       12.343        0.017      332.608        1.381      866.389
01/10/2014  07:35:00      -63.814        3.756       -4.366       24.935       16.798       14.847      621.752      282.187      220.439        0.261        0.056       63.924        9.542        0.022      332.605        1.377      866.409
01/10/2014  07:36:00      -55.719       -6.662       -8.032       34.744       12.451       12.860     1207.174      155.024      165.373        0.237        0.076       56.116       11.873        0.045      332.726        1.577      866.399
01/10/2014  07:37:00      -85.697      -25.411       -6.591       25.339       21.906       15.989      642.075      479.851      255.639        0.471        0.069       89.385       11.879        0.018      332.863        1.803      866.356
01/10/2014  07:38:00      -34.844      -42.491       -1.310       25.746       23.608       14.465      662.849      557.348      209.236        0.223        0.071       54.951       13.020        0.056      332.807        1.710      866.293
01/10/2014  07:39:00      -99.977       -0.137      -11.962       24.408       18.789       13.398      595.768      353.045      179.498        0.563        0.056       99.977       10.871        0.012      332.802        1.703      866.294
01/10/2014  07:40:00     -113.130       52.674      -16.780       29.467       37.052       20.290      868.286     1372.878      411.670        0.925        0.133      124.792       15.429        0.015      332.746        1.608      866.398
01/10/2014  07:41:00     -117.245       28.476      -17.822       46.351       44.349       29.704     2148.384     1966.829      882.304        0.994        0.250      120.654       23.257        0.037      332.907        1.875      866.504
01/10/2014  07:42:00     -119.276        1.403      -22.440       45.252       46.505       32.627     2047.714     2162.682     1064.521        1.000        0.264      119.285       29.484        0.061      333.032        2.081      866.525
01/10/2014  07:43:00     -106.345      -39.952       -5.225       31.777       29.617       25.007     1009.764      877.185      625.348        0.772        0.126      113.602       15.920        0.020      333.019        2.060      866.490
01/10/2014  07:44:00      -46.459      -54.445       -0.262       55.568       25.725       23.206     3087.808      661.773      538.520        0.470        0.214       71.573       24.339        0.116      332.868        1.810      866.447
01/10/2014  07:45:00      -35.052      -34.093        9.032       38.540       30.496       20.941     1485.336      929.979      438.525        0.266        0.143       48.898       18.412        0.142      332.961        1.965      866.404
01/10/2014  07:46:00     -129.070      -46.753      -13.556       26.770       35.980       19.879      716.608     1294.536      395.186        1.072        0.120      137.276       12.995        0.009      333.013        2.050      866.388
01/10/2014  07:47:00     -127.583       11.518      -16.128       20.292       16.585       12.521      411.773      275.070      156.774        0.876        0.042      128.102       10.867        0.007      332.966        1.972      866.426
01/10/2014  07:48:00     -104.300       15.693       -8.103       50.411       30.807       23.127     2541.230      949.069      534.863        0.761        0.201      105.474       24.877        0.056      333.222        2.396      866.477
01/10/2014  07:49:00     -107.725       37.655      -14.541       45.176       34.859       28.960     2040.869     1215.119      838.671        0.866        0.205      114.117       25.785        0.051      333.147        2.270      866.541
01/10/2014  07:50:00      -16.773       35.511        5.234       68.324       23.427       25.216     4668.218      548.826      635.846        0.371        0.293       39.273       24.605        0.393      333.213        2.380      866.560
01/10/2014  07:51:00       19.463       44.589       19.098       32.191       35.948       42.102     1036.251     1292.274     1772.544        0.342        0.205       48.652       32.133        0.436      333.250        2.442      866.512
01/10/2014  07:52:00       -6.112       66.027       79.225       19.972       35.340       31.865      398.888     1248.883     1015.398        0.667        0.133       66.310       25.544        0.148      333.108        2.208      866.470
01/10/2014  07:53:00       -8.882       13.567       19.832        8.462       14.480       12.439       71.609      209.671      154.737        0.055        0.022       16.216        8.231        0.258      333.141        2.261      866.470
01/10/2014  07:54:00      -15.392        4.703       -1.711       11.388        7.662        7.791      129.689       58.699       60.695        0.026        0.012       16.095        6.168        0.147      333.205        2.368      866.489
01/10/2014  07:55:00      -53.269        7.352      -11.575       15.093       11.170        9.147      227.811      124.774       83.660        0.173        0.022       53.774        6.992        0.017      333.237        2.418      866.498
01/10/2014  07:56:00      -74.592       13.950      -14.990       12.252       11.358        7.756      150.115      128.994       60.149        0.316        0.017       75.885        7.133        0.009      333.214        2.382      866.529
01/10/2014  07:57:00      -29.456      -13.643       -4.267       20.463        6.708        5.132      418.720       44.991       26.342        0.078        0.025       32.462        8.167        0.063      333.293        2.512      866.537
01/10/2014  07:58:00       -2.322       10.467       49.469       12.927       45.375       40.437      167.108     2058.883     1635.118        0.321        0.193       10.721       38.631       12.983      333.329        2.571      866.494
01/10/2014  07:59:00       -4.556       70.950       95.382       18.886       35.406       20.911      356.699     1253.558      437.267        0.810        0.102       71.096       22.908        0.104      333.272        2.478      866.463
01/10/2014  08:00:00       69.011       66.604       22.741       57.039       42.024       41.868     3253.395     1765.998     1752.938        0.824        0.339       95.909       37.170        0.150      333.085        2.168      866.502
01/10/2014  08:01:00       92.295       68.577        8.080       37.452       39.528       28.531     1402.675     1562.494      813.993        0.853        0.189      114.983       21.171        0.034      332.763        1.637      866.563
01/10/2014  08:02:00       48.132       43.538       -2.067       27.553       25.334       21.331      759.192      641.796      455.030        0.304        0.093       64.902       13.040        0.040      332.723        1.571      866.607
01/10/2014  08:03:00       11.527       11.741        6.520       21.027       19.575       10.965      442.150      383.174      120.238        0.063        0.047       16.453       10.625        0.417      332.708        1.546      866.631
01/10/2014  08:04:00       -5.351        9.523       -3.384        7.048       10.293        6.185       49.681      105.943       38.254        0.016        0.010       10.924        5.160        0.223      332.923        1.902      866.654
01/10/2014  08:05:00      -17.602      -29.262       -1.828        9.727       20.150        4.945       94.621      406.028       24.451        0.085        0.026       34.148        3.954        0.013      332.999        2.024      866.650
01/10/2014  08:06:00       -8.942      -78.998       -0.219        8.284       14.051       12.254       68.630      197.420      150.161        0.337        0.021       79.503        8.926        0.013      333.114        2.216      866.622
01/10/2014  08:07:00       -1.955      -14.423       -4.311       28.197       38.244       23.955      795.065     1462.620      573.834        0.153        0.142       14.555       20.596        2.003      333.336        2.584      866.621
01/10/2014  08:08:00      -23.353       13.274       13.683       16.731       12.177       16.726      279.938      148.287      279.759        0.081        0.035       26.862        8.612        0.103      333.324        2.563      866.674
01/10/2014  08:09:00      -11.342       29.165       -2.161       17.928       12.753       12.601      321.424      162.634      158.779        0.081        0.032       31.293        6.838        0.048      333.355        2.615      866.756
01/10/2014  08:10:00       25.944       31.009       11.376       13.613       15.578       11.175      185.310      242.677      124.889        0.116        0.028       40.431        9.427        0.054      333.411        2.708      866.778
01/10/2014  08:11:00       19.593       84.144      -11.995       13.726       11.907       10.910      188.403      141.772      119.020        0.403        0.022       86.395       10.295        0.014      333.232        2.411      866.786
01/10/2014  08:12:00       15.511      128.809      -20.978       18.841       41.396       18.464      354.972     1713.658      340.913        0.984        0.120      129.740       17.270        0.018      333.118        2.222      866.819
01/10/2014  08:13:00      -20.204      121.221      -19.796       25.726       54.661       18.694      661.829     2987.803      349.461        0.975        0.200      122.894       22.997        0.035      333.218        2.388      866.862
01/10/2014  08:14:00      -23.703       57.780       -6.438       27.001       36.080       18.169      729.063     1301.776      330.120        0.315        0.118       62.453       10.886        0.030      333.187        2.336      866.903
01/10/2014  08:15:00        4.147       76.977       -5.817       30.625       21.882       16.183      937.871      478.817      261.903        0.383        0.084       77.089       15.559        0.041      333.290        2.508      866.925
01/10/2014  08:16:00       23.089       87.932      -10.602       23.741       26.357       19.489      563.632      694.709      379.806        0.501        0.082       90.913       17.311        0.036      333.169        2.307      866.932
01/10/2014  08:17:00       18.691       34.940       -6.352       17.388       17.762        9.251      302.359      315.499       85.579        0.116        0.035       39.626        6.477        0.027      333.194        2.349      866.939
01/10/2014  08:18:00      -12.999       20.796       -3.097        6.953        6.529        3.714       48.339       42.622       13.795        0.036        0.005       24.525        2.484        0.010      333.339        2.588      867.003
01/10/2014  08:19:00      -19.235        0.098       -4.074       12.070       11.002        6.418      145.689      121.043       41.196        0.035        0.015       19.235        6.132        0.102      333.353        2.613      867.041
01/10/2014  08:20:00      -29.171       -2.197       -4.350        7.501        5.134        5.220       56.272       26.357       27.253        0.049        0.005       29.254        4.741        0.026      333.290        2.506      867.045
01/10/2014  08:21:00        2.582        8.411        5.270       13.736       12.361       11.162      188.673      152.782      124.584        0.029        0.023        8.798       11.650        1.753      333.342        2.594      867.031
01/10/2014  08:22:00       62.726       26.710       19.736       20.212       21.355       20.725      408.527      456.020      429.526        0.317        0.065       68.176       15.351        0.051      333.207        2.370      867.026
01/10/2014  08:23:00       43.521       50.354       48.189       25.180       22.067       16.625      634.022      486.955      276.378        0.407        0.070       66.556        8.063        0.015      333.259        2.458      867.031
01/10/2014  08:24:00       81.120       56.780       29.770       28.176       23.875       23.067      793.910      570.012      532.073        0.629        0.095       99.017       17.728        0.032      333.303        2.529      867.051
01/10/2014  08:25:00      124.533       70.268       23.676       29.701       26.284       29.686      882.151      690.829      881.276        1.173        0.123      142.990       14.361        0.010      333.206        2.367      867.056
01/10/2014  08:26:00       89.270       96.093       75.782       50.433       32.764       39.772     2543.495     1073.504     1581.777        1.407        0.260      131.160       36.947        0.079      333.168        2.305      867.062
01/10/2014  08:27:00       56.811       26.905       67.762       63.663      106.258       60.304     4053.023    11290.729     3636.631        1.376        0.949       62.860       79.433        1.597      333.137        2.255      867.050
01/10/2014  08:28:00      129.433     -137.502      -26.255       32.497       32.826       28.835     1056.068     1077.562      831.466        1.966        0.148      188.838       15.078        0.006      333.051        2.114      867.065
01/10/2014  08:29:00        4.336       55.432       74.256       28.273       38.310       26.603      799.362     1467.669      707.743        0.579        0.149       55.602       23.884        0.185      333.163        2.297      867.091
01/10/2014  08:30:00       60.223       86.019       66.713       45.695       34.452       36.245     2087.989     1186.930     1313.673        1.003        0.229      105.005       29.545        0.079      333.120        2.228      867.094
01/10/2014  08:31:00       83.783       81.854       74.573       38.613       54.473       44.968     1490.993     2967.357     2022.150        1.288        0.324      117.131       37.999        0.105      333.028        2.074      867.107
01/10/2014  08:32:00       85.606      133.251      116.858       42.335       38.432       33.111     1792.226     1476.992     1096.357        2.155        0.218      158.379       19.987        0.016      332.892        1.850      867.117
01/10/2014  08:33:00       24.456       59.459       75.214       48.343       53.299       29.535     2337.027     2840.831      872.298        0.792        0.303       64.292       23.847        0.138      332.982        2.001      867.134
01/10/2014  08:34:00       54.492      -54.122       22.951       38.105       80.519       37.542     1451.981     6483.255     1409.367        0.788        0.467       76.802       47.237        0.378      333.022        2.065      867.125
01/10/2014  08:35:00       87.994      -99.280      -16.895       46.573       62.822       38.307     2169.011     3946.604     1467.406        1.273        0.379      132.663       37.508        0.080      333.056        2.120      867.103
01/10/2014  08:36:00       36.158      -88.744      -10.695       64.335       58.200       39.897     4138.979     3387.183     1591.790        0.921        0.456       95.828       43.202        0.203      333.145        2.268      867.112
01/10/2014  08:37:00       69.211       56.014       40.052       53.965       39.912       29.095     2912.246     1592.968      846.494        0.744        0.268       89.038       19.188        0.046      333.133        2.247      867.134
01/10/2014  08:38:00      131.164       72.180       14.029       47.115       35.359       32.143     2219.782     1250.279     1033.187        1.356        0.225      149.713       17.621        0.014      333.084        2.169      867.151
01/10/2014  08:39:00       78.490       62.051       49.216       41.511       31.105       30.885     1723.139      967.534      953.894        0.804        0.182      100.055       23.249        0.054      333.051        2.113      867.170
01/10/2014  08:40:00       13.797       28.573       36.465       21.121       33.032       19.160      446.089     1091.146      367.125        0.212        0.095       31.730       21.999        0.481      333.099        2.193      867.200
01/10/2014  08:41:00       27.027       -9.033       14.309       20.066       17.658       15.019      402.645      311.815      225.556        0.098        0.047       28.496       10.673        0.140      333.156        2.287      867.206
01/10/2014  08:42:00       59.037       55.942       25.059       23.694       28.911       21.466      561.404      835.859      460.791        0.455        0.093       81.332       20.404        0.063      333.097        2.191      867.200
01/10/2014  08:43:00      116.340       81.719       -0.112       21.885       18.081       24.413      478.943      326.913      595.976        1.081        0.070      142.172       14.948        0.011      333.049        2.110      867.179
01/10/2014  08:44:00       79.970       61.416        7.646       26.509       26.162       22.452      702.712      684.427      504.098        0.606        0.095      100.832       10.855        0.012      333.039        2.093      867.157
01/10/2014  08:45:00       64.143       56.972        0.308       31.739       24.670       29.806     1007.377      608.601      888.411        0.493        0.125       85.791       18.124        0.045      333.017        2.057      867.167
01/10/2014  08:46:00       63.067       44.176        1.703       30.162       22.744       20.762      909.743      517.288      431.042        0.389        0.093       77.000       14.327        0.035      332.976        1.990      867.193
01/10/2014  08:47:00       87.149       70.111        6.082       27.311       24.586       20.601      745.911      604.463      424.402        0.716        0.089      111.851       11.649        0.011      332.987        2.008      867.222
01/10/2014  08:48:00       93.344       65.484        3.878       40.801       29.601       26.203     1664.732      876.218      686.616        0.812        0.161      114.023       20.663        0.033      332.988        2.009      867.254
01/10/2014  08:49:00       40.199       37.775        4.889       38.667       29.476       16.877     1495.124      868.858      284.848        0.286        0.132       55.162       12.755        0.053      332.971        1.980      867.281
01/10/2014  08:50:00       47.721       30.906        6.232       19.107       15.654       16.964      365.062      245.057      287.787        0.208        0.045       56.855        9.838        0.030      332.951        1.946      867.276
01/10/2014  08:51:00       21.488       29.155        7.489       19.649       15.305       15.091      386.083      234.253      227.738        0.111        0.042       36.219        8.854        0.060      333.020        2.062      867.299
01/10/2014  08:52:00       71.400       40.477        3.559       29.314       15.158       18.209      859.319      229.765      331.552        0.408        0.071       82.075        5.192        0.004      333.027        2.072      867.334
01/10/2014  08:53:00       81.693       51.645       19.169       23.907       18.264       23.020      571.539      333.585      529.942        0.557        0.072       96.649       12.384        0.016      332.996        2.023      867.356
01/10/2014  08:54:00       79.740       60.247       19.310       24.507       19.733       23.706      600.609      389.377      561.965        0.596        0.078       99.941       16.120        0.026      333.091        2.178      867.375
01/10/2014  08:55:00       94.474       66.702       21.054       34.066       38.381       31.868     1160.492     1473.108     1015.551        0.873        0.182      115.648       19.053        0.027      333.087        2.172      867.380
01/10/2014  08:56:00       94.843       50.740       14.246       36.209       37.704       32.223     1311.095     1421.600     1038.306        0.777        0.189      107.562       23.386        0.047      333.098        2.191      867.391
01/10/2014  08:57:00       82.252       50.848       17.775       35.920       38.116       26.068     1290.281     1452.810      679.552        0.654        0.171       96.700       17.021        0.031      333.139        2.258      867.425
01/10/2014  08:58:00       33.537       35.412       10.234       39.455       21.280       24.075     1556.681      452.834      579.611        0.254        0.129       48.772       24.672        0.256      333.277        2.487      867.460
01/10/2014  08:59:00       35.078       59.066       32.387       28.206       22.006       34.436      795.550      484.279     1185.872        0.412        0.123       68.697       17.856        0.068      333.283        2.496      867.466
01/10/2014  09:00:00       56.770       37.410       33.675       32.488       26.752       30.047     1055.470      715.670      902.817        0.421        0.134       67.988       21.621        0.101      333.222        2.396      867.444
01/10/2014  09:01:00       27.187       33.154       45.475       29.209       31.701       28.355      853.159     1004.970      803.992        0.328        0.133       42.876       18.535        0.187      333.390        2.672      867.442
01/10/2014  09:02:00       27.730       20.808       32.881       26.721       22.059       21.468      714.028      486.610      460.875        0.197        0.083       34.669       19.803        0.326      333.365        2.631      867.464
01/10/2014  09:03:00        6.865      -15.127       18.729       18.859       35.979       26.776      355.653     1294.506      716.981        0.150        0.118       16.612       26.783        2.599      333.585        2.997      867.475
01/10/2014  09:04:00       31.693       73.101       78.913       44.067       48.004       38.265     1941.866     2304.390     1464.225        0.914        0.286       79.675       37.389        0.220      333.586        2.998      867.472
01/10/2014  09:05:00       37.447       55.857       69.597       34.614       35.726       16.414     1198.131     1276.324      269.434        0.605        0.137       67.248       15.407        0.052      333.393        2.679      867.454
01/10/2014  09:06:00       55.384       32.981       38.881       32.270       23.785       22.987     1041.371      565.736      528.391        0.390        0.107       64.460       14.965        0.054      333.419        2.720      867.421
01/10/2014  09:07:00       21.670      -46.650        5.139       35.402       30.734       25.647     1253.288      944.568      657.763        0.276        0.143       51.437       24.462        0.226      333.658        3.117      867.418
01/10/2014  09:08:00       22.681       -6.229       13.599       27.838       25.993       22.244      774.937      675.616      494.811        0.134        0.097       23.521       13.114        0.311      333.678        3.151      867.434
01/10/2014  09:09:00        6.559      -26.825       12.094       19.820       46.055       27.476      392.814     2121.080      754.929        0.209        0.163       27.615       31.070        1.266      333.783        3.324      867.450
01/10/2014  09:10:00        0.138       32.491       56.315       21.045       24.255       14.166      442.913      588.301      200.681        0.273        0.062       32.492       14.323        0.194      333.787        3.332      867.456
01/10/2014  09:11:00      -11.436       75.474       92.505       14.037       37.498       20.620      197.042     1406.079      425.194        0.821        0.101       76.335       23.702        0.096      333.831        3.404      867.478
01/10/2014  09:12:00       -1.707       60.331       76.126       16.343       25.239       14.091      267.083      637.019      198.562        0.527        0.055       60.355       16.008        0.070      333.810        3.370      867.522
01/10/2014  09:13:00       39.943       29.810       33.539       28.946       23.264       18.602      837.843      541.225      346.039        0.267        0.086       49.841       13.339        0.072      333.782        3.322      867.579
01/10/2014  09:14:00       65.780       50.810       29.891       27.748       24.648       21.342      769.977      607.546      455.480        0.482        0.092       83.118       15.724        0.036      333.887        3.497      867.608
01/10/2014  09:15:00       63.977       74.029       49.139       28.375       20.198       26.513      805.165      407.960      702.943        0.695        0.096       97.844       16.051        0.027      333.905        3.527      867.614
01/10/2014  09:16:00       30.291       61.565       68.340       22.446       28.431       12.915      503.840      808.297      166.791        0.543        0.074       68.613       11.684        0.029      333.941        3.587      867.621
01/10/2014  09:17:00       48.094      -13.001       18.428       37.492       39.962       31.109     1405.673     1596.973      967.781        0.340        0.199       49.820       33.697        0.457      334.044        3.757      867.641
01/10/2014  09:18:00        4.736       12.762       34.933       22.439       35.515       22.154      503.495     1261.289      490.802        0.183        0.113       13.613       14.686        1.164      334.293        4.170      867.670
01/10/2014  09:19:00      -27.159        2.297       13.770       16.926       19.205       16.718      286.491      368.841      279.477        0.093        0.047       27.256       10.188        0.140      334.157        3.947      867.703
01/10/2014  09:20:00       -9.825       -0.708        3.277       21.143       17.454       11.365      447.037      304.630      129.161        0.049        0.044        9.850       11.089        1.267      334.281        4.150      867.715
01/10/2014  09:21:00      -29.498       -9.139        7.089       23.182       19.410       20.354      537.409      376.754      414.283        0.117        0.066       30.882       19.490        0.398      334.314        4.203      867.730
01/10/2014  09:22:00      -26.972       -6.191        1.097       11.518        7.880        8.370      132.669       62.097       70.058        0.052        0.013       27.673        7.719        0.078      334.230        4.065      867.755
01/10/2014  09:23:00      -10.504        5.895       17.808       21.590       11.912       14.016      466.122      141.905      196.453        0.063        0.040       12.045       14.443        1.438      334.478        4.477      867.772
01/10/2014  09:24:00       23.185        8.560       28.478       17.741       10.465       21.117      314.739      109.509      445.932        0.115        0.044       24.714       14.077        0.324      334.560        4.615      867.770
01/10/2014  09:25:00       -3.589       19.757      -11.199       16.276       13.418       10.714      264.917      180.037      114.786        0.054        0.028       20.081        4.597        0.052      334.395        4.339      867.766
01/10/2014  09:26:00       -5.204       31.632        5.659       17.138       22.290       17.027      293.713      496.857      289.913        0.107        0.054       32.057       13.632        0.181      334.649        4.762      867.763
01/10/2014  09:27:00        1.047       23.128        1.059       11.257       17.370       16.004      126.710      301.705      256.134        0.061        0.034       23.151       11.659        0.254      334.561        4.615      867.772
01/10/2014  09:28:00       -4.990       24.308        7.993       23.977       18.682       18.365      574.879      349.006      337.271        0.097        0.063       24.815       18.734        0.570      334.627        4.724      867.776
01/10/2014  09:29:00       24.172       57.686       18.370       24.329       30.085       22.652      591.889      905.132      513.124        0.313        0.101       62.546       24.870        0.158      334.557        4.608      867.787
01/10/2014  09:30:00       26.208       43.146        5.821       22.534       46.198       19.620      507.795     2134.298      384.929        0.280        0.151       50.482       24.869        0.243      334.677        4.807      867.819
01/10/2014  09:31:00       26.030       14.202        7.304       28.076       29.500       19.503      788.254      870.269      380.380        0.149        0.102       29.652       16.866        0.324      334.738        4.909      867.865
01/10/2014  09:32:00      -19.516       71.813      -20.672       25.418       31.970       13.862      646.066     1022.097      192.158        0.391        0.093       74.418        7.696        0.011      334.362        4.283      867.874
01/10/2014  09:33:00       25.824       12.691        5.731       21.231       24.440       23.314      450.774      597.297      543.555        0.123        0.080       28.774       11.809        0.168      334.575        4.640      867.853
01/10/2014  09:34:00       30.780       -1.037       16.915       30.482       27.695       22.973      929.166      767.016      527.757        0.173        0.111       30.797        8.238        0.072      334.655        4.770      867.813
01/10/2014  09:35:00        7.203       14.748       16.474       18.815       18.257       19.336      354.014      333.336      373.898        0.080        0.053       16.413       13.873        0.714      334.821        5.047      867.803
01/10/2014  09:36:00      -55.710       39.732       -6.212       20.794       16.435       16.670      432.380      270.099      277.887        0.285        0.049       68.427       13.590        0.039      334.556        4.606      867.853
01/10/2014  09:37:00      -36.000       55.628       -7.333       41.515       35.203       18.381     1723.488     1239.278      337.878        0.387        0.165       66.260       17.793        0.072      334.672        4.799      867.872
01/10/2014  09:38:00       28.663       52.619       -6.191       18.696       24.703       18.572      349.532      610.230      344.905        0.247        0.065       59.920       15.574        0.068      334.921        5.212      867.851
01/10/2014  09:39:00       35.931       49.009       -2.337       24.409       28.676       28.297      595.793      822.320      800.705        0.296        0.111       60.769       23.802        0.153      334.764        4.952      867.862
01/10/2014  09:40:00       84.332       61.386       -2.612       42.101       26.773       25.141     1772.496      716.796      632.085        0.700        0.156      104.308       11.132        0.011      334.729        4.894      867.888
01/10/2014  09:41:00      109.718       68.615        3.321       39.115       34.854       31.160     1529.997     1214.780      970.968        1.024        0.186      129.407       17.258        0.018      334.825        5.053      867.881
01/10/2014  09:42:00       90.426       69.363       -1.376       22.115       18.797       21.816      489.076      353.339      475.935        0.715        0.066      113.965        8.958        0.006      334.778        4.975      867.884
01/10/2014  09:43:00       69.382       50.308       -3.843       20.432       22.086       21.535      417.463      487.792      463.745        0.436        0.068       85.701       14.904        0.030      334.912        5.197      867.910
01/10/2014  09:44:00       41.917       51.591        0.929       28.365       24.307       25.436      804.581      590.841      646.972        0.323        0.102       66.473       15.984        0.058      334.957        5.272      867.930
01/10/2014  09:45:00       83.181       41.716       14.279       21.611       17.775       22.993      467.039      315.965      528.659        0.509        0.066       93.055       18.323        0.039      334.893        5.165      867.945
01/10/2014  09:46:00       30.685       30.339       -4.582       30.491       28.851       16.923      929.676      832.401      286.397        0.197        0.102       43.151       14.219        0.109      334.960        5.278      867.953
01/10/2014  09:47:00       34.475       50.768       24.518       36.971       27.317       27.236     1366.841      746.221      741.805        0.361        0.143       61.367       16.386        0.071      335.367        5.953      867.965
01/10/2014  09:48:00        4.106      -10.644       40.564       33.381       31.395       28.555     1114.316      985.659      815.362        0.234        0.146       11.409       25.667        5.061      335.567        6.287      867.956
01/10/2014  09:49:00       18.930       43.866       56.711       31.750       42.967       25.682     1008.046     1846.151      659.570        0.451        0.176       47.776       24.228        0.257      335.444        6.082      867.958
01/10/2014  09:50:00        1.053       51.006       69.620       28.849       32.805       26.121      832.267     1076.166      682.293        0.502        0.130       51.017       24.814        0.237      335.431        6.060      867.973
01/10/2014  09:51:00        8.219      -19.039       30.489       40.064       67.122       37.407     1605.155     4505.396     1399.319        0.443        0.375       20.738       39.050        3.546      335.443        6.079      868.004
01/10/2014  09:52:00       33.520      -62.955        7.552       32.367       39.696       28.307     1047.641     1575.798      801.298        0.428        0.171       71.323       22.472        0.099      335.291        5.826      868.068
01/10/2014  09:53:00       11.486       30.592       21.522       29.791       23.715       21.206      887.525      562.424      449.682        0.171        0.095       32.677       10.589        0.105      335.490        6.159      868.140
01/10/2014  09:54:00      -33.083        0.304       13.260       19.806       25.737       15.914      392.290      662.393      253.243        0.129        0.065       33.084       12.413        0.141      335.381        5.977      868.165
01/10/2014  09:55:00       -8.029        6.347       26.285       12.803       14.893       16.771      163.916      221.796      281.280        0.073        0.033       10.235       14.512        2.010      335.818        6.705      868.154
01/10/2014  09:56:00      -32.146       -0.149       -6.309       10.655        9.427       11.865      113.519       88.871      140.774        0.071        0.017       32.147        4.307        0.018      335.385        5.983      868.157
01/10/2014  09:57:00      -54.428      -17.923       -3.608       19.203       16.262       11.418      368.753      264.442      130.382        0.203        0.038       57.303        6.107        0.011      335.385        5.983      868.170
01/10/2014  09:58:00      -46.594      -51.499        5.647       60.358       59.578       29.506     3643.141     3549.544      870.581        0.646        0.403       69.449       27.726        0.159      335.413        6.031      868.199
01/10/2014  09:59:00      -85.624      -95.256       -1.696       39.421       36.996       24.667     1554.029     1368.713      608.454        0.997        0.177      128.083       18.536        0.021      335.199        5.673      868.234
01/10/2014  10:00:00      -99.995      -85.303        3.864       72.823       45.143       26.415     5303.224     2037.856      697.773        1.266        0.402      131.436       27.090        0.042      335.231        5.727      868.256
01/10/2014  10:01:00     -142.617      -95.221       -1.819       66.083       45.548       33.895     4366.927     2074.593     1148.894        1.850        0.380      171.483       33.509        0.038      335.262        5.776      868.268
01/10/2014  10:02:00      -96.038      -78.496        3.022       57.156       49.867       33.596     3266.860     2486.739     1128.684        1.114        0.344      124.036       35.675        0.083      335.317        5.872      868.275
01/10/2014  10:03:00      -78.047      -72.643        9.593       45.153       37.312       26.722     2038.836     1392.165      714.079        0.780        0.207      106.623       26.329        0.061      335.389        5.989      868.278
01/10/2014  10:04:00      -48.555     -118.932       -1.119       58.793       41.224       36.069     3456.604     1699.457     1300.975        1.148        0.323      128.462       35.846        0.078      335.355        5.934      868.295
01/10/2014  10:05:00      -77.115      -34.254        2.040       47.153       49.900       26.131     2223.399     2489.968      682.818        0.626        0.270       84.380        9.196        0.012      335.347        5.920      868.301
01/10/2014  10:06:00      -53.781     -101.780       -5.971       43.175       35.721       27.628     1864.054     1276.007      763.306        0.859        0.195      115.115       20.153        0.031      335.235        5.733      868.293
01/10/2014  10:07:00     -100.820     -121.706       -7.841       46.531       37.285       28.833     2165.104     1390.167      831.350        1.471        0.219      158.042       25.347        0.026      335.188        5.658      868.297
01/10/2014  10:08:00      -75.737     -152.455       -9.868       32.650       45.016       20.603     1066.021     2026.451      424.500        1.630        0.176      170.231       19.099        0.013      335.134        5.566      868.288
01/10/2014  10:09:00     -116.184     -142.536      -12.997       59.983       48.457       32.240     3597.986     2348.100     1039.404        2.048        0.349      183.889       36.065        0.038      335.211        5.693      868.278
01/10/2014  10:10:00     -114.728     -114.168        0.204       54.700       59.680       33.984     2992.050     3561.685     1154.930        1.695        0.385      161.854       32.505        0.040      335.299        5.838      868.289
01/10/2014  10:11:00      -95.755      -87.931       -9.480       50.247       44.739       36.990     2524.760     2001.578     1368.267        1.144        0.295      130.003       25.664        0.039      335.388        5.988      868.314
01/10/2014  10:12:00      -48.239      -34.470        2.014       41.590       43.115       24.836     1729.730     1858.866      616.814        0.386        0.210       59.289       21.112        0.127      335.697        6.504      868.315
01/10/2014  10:13:00      -19.197       -5.494       12.217       26.663       19.400       23.296      710.902      376.368      542.703        0.109        0.081       19.968       14.557        0.531      336.019        7.041      868.285
01/10/2014  10:14:00        4.733       52.991       89.065       34.459       36.710       30.723     1187.421     1347.648      943.913        0.712        0.174       53.202       18.273        0.118      336.011        7.027      868.270
01/10/2014  10:15:00       39.200       27.462       70.397       39.972       68.997       44.057     1597.766     4760.533     1941.057        0.777        0.415       47.862       47.047        0.966      335.923        6.879      868.245
01/10/2014  10:16:00       21.889       85.895       91.853       48.897       46.078       31.479     2390.929     2123.214      990.948        1.090        0.275       88.640       31.481        0.126      335.934        6.899      868.248
01/10/2014  10:17:00       86.199       66.021       32.833       20.922       23.262       30.382      437.738      541.126      923.092        0.738        0.095      108.578       19.909        0.034      335.415        6.032      868.280
01/10/2014  10:18:00       36.345       37.254       20.302       13.756       15.145       21.134      189.232      229.368      446.653        0.199        0.043       52.046        7.903        0.023      335.601        6.344      868.274
01/10/2014  10:19:00        2.547       25.113       26.820       38.836       35.773       22.773     1508.246     1279.675      518.610        0.233        0.165       25.242       12.972        0.264      336.180        7.309      868.260
01/10/2014  10:20:00       48.023       71.295       81.771       43.681       44.310       32.897     1908.056     1963.408     1082.209        0.951        0.248       85.960       25.745        0.090      335.942        6.913      868.256
01/10/2014  10:21:00        8.107       69.464       82.818       26.335       33.415       21.470      693.530     1116.574      460.958        0.701        0.114       69.935       19.680        0.079      335.863        6.781      868.292
01/10/2014  10:22:00        9.718       41.038       40.725       22.974       25.431       20.278      527.813      646.735      411.190        0.251        0.079       42.173       15.389        0.133      335.924        6.882      868.328
01/10/2014  10:23:00       20.806       43.495       87.594       54.566       49.395       44.938     2977.439     2439.820     2019.425        0.872        0.372       48.215       40.307        0.699      336.099        7.174      868.353
01/10/2014  10:24:00       23.782       59.979       90.868       46.060       49.708       21.140     2121.537     2470.891      446.916        0.873        0.252       64.521       17.081        0.070      335.973        6.964      868.390
01/10/2014  10:25:00       55.512       32.229       60.419       34.839       29.654       24.265     1213.779      879.344      588.785        0.523        0.134       64.190       13.645        0.045      335.788        6.656      868.425
01/10/2014  10:26:00       35.376       33.215       44.385       27.490       30.217       20.358      755.701      913.056      414.439        0.320        0.104       48.525       14.839        0.094      335.965        6.950      868.443
01/10/2014  10:27:00        9.433      -18.378       54.779       33.537       55.669       33.797     1124.741     3099.038     1142.252        0.440        0.268       20.657       22.561        1.193      336.267        7.455      868.466
01/10/2014  10:28:00       12.073       46.526       78.572       38.373       55.352       29.435     1472.487     3063.819      866.447        0.694        0.270       48.066       27.549        0.328      336.311        7.528      868.461
01/10/2014  10:29:00       73.247      119.266      107.329       63.730       46.124       34.641     4061.564     2127.381     1199.967        1.925        0.369      139.962       30.081        0.046      335.992        6.995      868.443
01/10/2014  10:30:00      106.852       75.754       60.714       47.737       47.091       46.764     2278.856     2217.529     2186.833        1.376        0.334      130.981       38.480        0.086      335.803        6.680      868.425
01/10/2014  10:31:00      113.971       24.660       21.320       31.870       48.644       36.894     1015.722     2366.259     1361.134        0.940        0.237      116.609       29.655        0.065      335.886        6.819      868.402
01/10/2014  10:32:00       45.339       29.600       28.203       53.169       44.709       20.666     2826.978     1998.905      427.065        0.449        0.263       54.146       22.169        0.168      336.224        7.383      868.382
01/10/2014  10:33:00        5.076        1.988       16.452       25.725       28.364       31.280      661.754      804.492      978.429        0.137        0.122        5.452       11.719        4.620      336.362        7.612      868.354
01/10/2014  10:34:00        1.373       29.487       36.961       24.608       38.276       33.924      605.551     1465.068     1150.807        0.273        0.161       29.519       19.008        0.415      336.433        7.730      868.360
01/10/2014  10:35:00       90.865       81.002       65.690       51.088       51.880       54.173     2609.948     2691.526     2934.760        1.368        0.412      121.728       38.142        0.098      336.035        7.067      868.375
01/10/2014  10:36:00       63.876       92.306       61.493       55.420       39.254       31.921     3071.412     1540.891     1018.936        1.101        0.282      112.252       29.402        0.069      336.172        7.295      868.374
01/10/2014  10:37:00       98.988       77.402       31.475       36.978       35.721       36.802     1367.338     1275.972     1354.376        1.039        0.200      125.657       25.117        0.040      336.190        7.325      868.351
01/10/2014  10:38:00      113.671       80.342       -5.147       60.875       39.700       25.960     3705.719     1576.095      673.905        1.268        0.298      139.197       13.588        0.010      336.235        7.400      868.336
01/10/2014  10:39:00      140.609      114.543       40.258       60.841       51.482       46.714     3701.575     2650.367     2182.225        2.152        0.427      181.358       37.346        0.042      336.236        7.400      868.333
01/10/2014  10:40:00      174.538      112.764       32.829       69.594       39.588       52.717     4843.332     1567.232     2779.072        2.672        0.459      207.796       32.753        0.025      335.948        6.918      868.348
01/10/2014  10:41:00       43.770       86.349       86.089       51.994       43.795       36.733     2703.339     1917.967     1349.298        1.138        0.299       96.809       33.804        0.122      336.398        7.672      868.347
01/10/2014  10:42:00       32.806       74.557       78.889       52.837       52.870       43.101     2791.760     2795.286     1857.668        1.015        0.372       81.456       35.683        0.192      336.573        7.964      868.346
01/10/2014  10:43:00      121.118      101.976       53.772       99.718       55.764       55.324     9943.656     3109.598     3060.690        2.203        0.806      158.331       62.223        0.154      336.323        7.544      868.334
01/10/2014  10:44:00       50.116       39.237       18.945       47.493       46.448       35.667     2255.610     2157.452     1272.102        0.505        0.284       63.649       19.903        0.098      336.436        7.736      868.341
01/10/2014  10:45:00      153.097      102.178       30.806       62.303       35.589       34.940     3881.676     1266.588     1220.838        2.060        0.318      184.063       28.943        0.025      336.059        7.105      868.341
01/10/2014  10:46:00      102.894       26.687       26.587       60.959       51.134       35.105     3715.965     2614.670     1232.378        0.978        0.378      106.299       21.621        0.041      336.150        7.259      868.331
01/10/2014  10:47:00        2.541       43.345       54.950       28.306       37.824       30.205      801.221     1430.621      912.365        0.402        0.157       43.419       20.828        0.230      336.897        8.507      868.308
01/10/2014  10:48:00       94.783       62.753       15.971       52.663       45.497       36.687     2773.356     2069.947     1345.964        0.968        0.309      113.674       29.089        0.065      336.518        7.873      868.279
01/10/2014  10:49:00       49.786       40.598        7.979       36.107       33.628       28.251     1303.695     1130.855      798.118        0.371        0.162       64.240       20.324        0.100      336.713        8.201      868.266
01/10/2014  10:50:00       46.453        3.706       -9.639       37.956       42.035       21.012     1440.622     1766.912      441.489        0.296        0.182       46.601       10.700        0.053      336.552        7.930      868.243
01/10/2014  10:51:00       76.071       44.008       17.293       31.667       33.009       31.347     1002.809     1089.590      982.645        0.555        0.154       87.884       21.149        0.058      336.535        7.903      868.224
01/10/2014  10:52:00       39.278       30.024       16.615       24.848       22.413       17.500      617.433      502.364      306.264        0.207        0.071       49.439       11.505        0.054      336.513        7.866      868.190
01/10/2014  10:53:00       48.006       19.214       15.365       24.413       18.324       18.378      596.015      335.769      337.767        0.209        0.063       51.708        7.155        0.019      336.580        7.976      868.170
01/10/2014  10:54:00       22.219       21.541       14.491       25.784       21.841       24.054      664.818      477.021      578.594        0.144        0.086       30.947       19.292        0.389      336.856        8.439      868.154
01/10/2014  10:55:00       21.971      -14.579       18.643       31.358       44.994       24.545      983.321     2024.422      602.465        0.233        0.181       26.368       14.928        0.321      336.954        8.603      868.120
01/10/2014  10:56:00       22.449       -7.545       35.406       39.366       41.160       41.410     1549.712     1694.181     1714.752        0.339        0.248       23.683       19.147        0.654      337.120        8.880      868.061
01/10/2014  10:57:00       15.420       65.391       70.289       31.288       48.995       41.974      978.962     2400.549     1761.789        0.730        0.257       67.185       43.739        0.424      336.798        8.343      868.013
01/10/2014  10:58:00       10.466        9.370       39.863       24.245       46.102       20.090      587.814     2125.433      403.599        0.245        0.156       14.047       17.764        1.599      337.043        8.751      867.998
01/10/2014  10:59:00       20.079       27.407       50.634       32.917       36.832       18.998     1083.555     1356.600      360.937        0.326        0.140       33.975       15.229        0.201      337.075        8.805      868.007
01/10/2014  11:00:00        3.633      -94.440      -23.120       27.689       42.428       22.052      766.680     1800.135      486.286        0.626        0.153       94.510       20.790        0.048      336.846        8.422      868.026
01/10/2014  11:01:00      -13.288      -47.328       -8.723       19.903       30.693       22.007      396.133      942.070      484.323        0.216        0.091       49.158       23.018        0.219      336.890        8.495      868.037
01/10/2014  11:02:00      -62.267      -48.191        6.895       74.586       47.549       32.927     5563.111     2260.920     1084.196        0.758        0.445       78.738       41.306        0.275      336.987        8.661      868.027
01/10/2014  11:03:00      -57.662      -33.043        4.303       34.700       23.511       21.935     1204.058      552.781      481.141        0.334        0.112       66.459       21.516        0.105      336.762        8.282      868.008
01/10/2014  11:04:00     -107.354      -35.230       -4.915       38.352       27.191       19.420     1470.871      739.341      377.119        0.769        0.129      112.987       15.037        0.018      336.619        8.044      867.994
01/10/2014  11:05:00      -83.541     -115.323       -9.169       26.668       26.650       17.551      711.208      710.223      308.043        1.105        0.086      142.403       13.072        0.008      336.531        7.894      867.967
01/10/2014  11:06:00      -49.439      -63.104       -3.031       19.392       39.442       13.993      376.032     1555.638      195.816        0.428        0.106       80.164        8.621        0.012      336.625        8.053      867.962
01/10/2014  11:07:00      -34.278      -19.575        7.525       29.743       27.087       19.251      884.642      733.689      370.596        0.180        0.099       39.473       16.127        0.167      336.874        8.469      867.939
01/10/2014  11:08:00      -44.416        5.022       -6.266       40.790       20.510       18.357     1663.789      420.653      336.976        0.223        0.121       44.699       15.874        0.126      336.774        8.303      867.929
01/10/2014  11:09:00      -18.374       21.678       30.939       16.339       19.685       28.119      266.971      387.512      790.685        0.160        0.072       28.418       13.373        0.221      337.403        9.354      867.912
01/10/2014  11:10:00      -17.384        9.787       33.639       19.162       36.995       30.343      367.198     1368.605      920.717        0.209        0.133       19.949       32.188        2.603      337.289        9.162      867.902
01/10/2014  11:11:00      -37.000      -52.990        1.122       19.912       40.865       18.006      396.474     1669.924      324.200        0.328        0.120       64.629       14.936        0.053      336.884        8.486      867.883
01/10/2014  11:12:00      -67.648      -45.394       -3.306       23.922       29.034       14.856      572.282      842.955      220.694        0.414        0.082       81.467       13.547        0.028      336.887        8.491      867.863
01/10/2014  11:13:00      -31.446      -17.263       16.730       24.088       26.144       20.649      580.242      683.508      426.401        0.163        0.085       35.873       21.592        0.362      337.367        9.293      867.858
01/10/2014  11:14:00      -10.818      -52.652        0.745       29.805       32.921       21.553      888.333     1083.782      464.551        0.266        0.122       53.751       15.711        0.085      337.220        9.046      867.857
01/10/2014  11:15:00      -31.312      -40.638       19.611       25.272       46.740       21.427      638.667     2184.644      459.125        0.315        0.164       51.302       19.191        0.140      337.309        9.197      867.858
01/10/2014  11:16:00      -33.596      -24.392        2.279       27.742       17.937       25.768      769.628      321.749      663.994        0.174        0.088       41.517       12.423        0.090      337.232        9.068      867.876
01/10/2014  11:17:00      -26.137       -8.134       -5.998       43.197       29.372       14.737     1865.997      862.701      217.177        0.187        0.147       27.373        9.151        0.112      337.146        8.924      867.883
01/10/2014  11:18:00       -7.717       30.458       71.921       22.140       31.795       35.004      490.170     1010.921     1225.262        0.444        0.136       31.420       28.099        0.800      337.674        9.807      867.891
01/10/2014  11:19:00       -2.549       20.510       48.346       34.877       44.893       28.084     1216.427     2015.393      788.705        0.339        0.201       20.667       28.013        1.837      337.744        9.925      867.888
01/10/2014  11:20:00       24.375       55.643       71.872       51.042       57.789       38.300     2605.277     3339.587     1466.907        0.813        0.371       60.748       27.230        0.201      337.717        9.880      867.863
01/10/2014  11:21:00       18.690       65.459       86.584       38.620       46.193       35.820     1491.501     2133.759     1283.093        0.852        0.245       68.075       26.101        0.147      337.416        9.375      867.843
01/10/2014  11:22:00       56.181       84.306       90.645       63.489       54.173       40.142     4030.804     2934.714     1611.349        1.353        0.429      101.310       27.879        0.076      337.476        9.476      867.809
01/10/2014  11:23:00       88.175       42.004       61.974       84.552       86.247       58.232     7148.990     7438.577     3390.964        1.568        0.899       97.669       62.449        0.409      337.471        9.466      867.795
01/10/2014  11:24:00      120.765      114.537       84.355       87.213       64.782       68.589     7606.033     4196.762     4704.503        2.566        0.825      166.442       55.896        0.113      337.198        9.008      867.771
01/10/2014  11:25:00       71.470       60.800      108.159       76.087      110.975       66.192     5789.212    12315.421     4381.425        2.149        1.124       93.833       77.216        0.677      337.392        9.333      867.740
01/10/2014  11:26:00      140.766       97.332       84.617       83.084      101.227       80.303     6902.997    10246.906     6448.609        3.002        1.180      171.139       74.882        0.191      336.844        8.416      867.700
01/10/2014  11:27:00      135.631      118.820       89.101      101.585       76.538       80.757    10319.474     5858.095     6521.738        3.157        1.135      180.317       59.464        0.109      336.968        8.623      867.683
01/10/2014  11:28:00      163.471       85.933       71.061       99.412       80.256       67.331     9882.702     6441.055     4533.522        3.000        1.043      184.682       62.329        0.114      336.998        8.673      867.665
01/10/2014  11:29:00       88.600       25.519       92.798      104.572       83.688       64.311    10935.299     7003.667     4135.901        1.959        1.104       92.202       57.344        0.387      337.159        8.945      867.686
01/10/2014  11:30:00      115.499       70.848      113.090      108.643       91.875       64.413    11803.323     8440.949     4149.074        2.777        1.220      135.497       63.251        0.218      336.983        8.650      867.676
01/10/2014  11:31:00       93.043      100.320      103.845       86.436       72.468       58.571     7471.101     5251.672     3430.570        2.283        0.808      136.825       48.287        0.125      337.044        8.750      867.679
01/10/2014  11:32:00      108.362      106.353      108.193      100.986       60.542       62.000    10198.256     3665.393     3844.002        2.623        0.885      151.834       54.919        0.131      337.034        8.732      867.668
01/10/2014  11:33:00       75.269       68.489      104.975       86.172       83.291       58.874     7425.602     6937.400     3466.152        1.960        0.891      101.765       57.970        0.324      337.150        8.930      867.689
01/10/2014  11:34:00      125.701      143.634      115.552      100.409       80.095       79.986    10082.018     6415.159     6397.835        3.634        1.145      190.870       66.707        0.122      337.102        8.848      867.687
01/10/2014  11:35:00      204.324      169.134      113.814       96.384       83.191       68.079     9289.779     6920.820     4634.682        5.207        1.042      265.244       53.534        0.041      336.850        8.425      867.664
01/10/2014  11:36:00      116.173      101.255      103.899      103.802       72.900       73.845    10774.758     5314.355     5453.099        2.804        1.077      154.106       64.703        0.176      337.081        8.813      867.636
01/10/2014  11:37:00      124.634       34.703      112.296      109.304      113.035       84.948    11947.260    12776.957     7216.111        3.064        1.597      129.375       74.911        0.335      337.151        8.931      867.597
01/10/2014  11:38:00      107.652       39.612       93.818       76.603       96.326       71.067     5867.978     9278.737     5050.555        2.108        1.010      114.708       69.990        0.372      337.025        8.721      867.574
01/10/2014  11:39:00      128.427      114.525       99.805      100.534       74.822       67.135    10107.013     5598.386     4507.082        2.989        1.011      172.075       60.565        0.124      336.815        8.368      867.556
01/10/2014  11:40:00       98.522      144.125      142.632      100.815       87.272       85.628    10163.755     7616.344     7332.084        3.796        1.256      174.582       65.202        0.139      336.886        8.485      867.538
01/10/2014  11:41:00       64.419       37.920       81.282       72.465      101.273       64.723     5251.233    10256.285     4189.076        1.594        0.985       74.751       72.736        0.947      337.185        8.988      867.546
01/10/2014  11:42:00       99.929        7.441       60.733       85.043       90.769       68.847     7232.272     8239.030     4739.956        1.697        1.011      100.205       74.104        0.547      337.162        8.950      867.552
01/10/2014  11:43:00       91.780     -121.979      -16.444       81.111       69.238       44.553     6579.021     4793.850     1985.013        1.846        0.668      152.651       40.963        0.072      337.210        9.027      867.534
01/10/2014  11:44:00       68.367       -5.618       48.885       69.970       94.336       60.388     4895.757     8899.203     3646.761        1.227        0.872       68.598       63.064        0.845      337.427        9.393      867.486
01/10/2014  11:45:00       58.780       62.381       82.511       68.901       71.249       53.371     4747.308     5076.383     2848.456        1.341        0.634       85.712       41.675        0.236      337.389        9.331      867.445
01/10/2014  11:46:00      100.796       84.494      106.755      100.704       87.246       72.952    10141.230     7611.855     5322.003        2.588        1.154      131.526       58.876        0.200      337.253        9.101      867.380
01/10/2014  11:47:00       61.457       14.733       50.561       87.091       88.060       68.126     7584.838     7754.599     4641.122        1.326        0.999       63.198       62.701        0.984      337.252        9.100      867.320
01/10/2014  11:48:00      151.565     -240.051      -25.838       87.619       97.497       56.621     7677.124     9505.609     3205.901        5.082        1.019      283.895       53.179        0.035      337.032        8.729      867.279
01/10/2014  11:49:00      110.936     -130.284        8.409       55.756      134.854       72.079     3108.760    18185.616     5195.387        2.792        1.324      171.116       87.580        0.262      337.455        9.438      867.269
01/10/2014  11:50:00       25.234        1.422       48.141       58.754      104.790       67.191     3452.075    10980.961     4514.574        1.095        0.947       25.274       79.365        9.861      337.384        9.322      867.269
01/10/2014  11:51:00      120.083      -97.161       -2.847       86.678       70.685       41.685     7513.075     4996.417     1737.604        1.906        0.712      154.467       31.865        0.043      337.118        8.875      867.239
01/10/2014  11:52:00       81.756     -123.255       -1.469       70.131       70.908       43.446     4918.420     5027.992     1887.586        1.685        0.592      147.905       42.278        0.082      337.344        9.253      867.192
01/10/2014  11:53:00       20.648      -11.155       16.642       45.404       64.191       43.907     2061.556     4120.480     1927.795        0.447        0.405       23.468       29.653        1.596      337.608        9.698      867.138
01/10/2014  11:54:00      -14.364      -26.583       11.015       47.107       42.679       39.552     2219.057     1821.539     1564.334        0.332        0.280       30.216       34.584        1.310      337.585        9.658      867.104
01/10/2014  11:55:00       -3.790      -98.310        0.087       95.598       61.456       30.911     9139.062     3776.892      955.487        1.177        0.694       98.383       36.777        0.140      337.561        9.617      867.075
01/10/2014  11:56:00      -63.754      -69.923       18.128       50.690       73.910       33.705     2569.483     5462.705     1136.028        0.922        0.458       94.625       41.509        0.192      337.791       10.003      867.069
01/10/2014  11:57:00      -33.381        9.862       21.496       27.574       34.904       30.116      760.334     1218.277      906.974        0.228        0.144       34.807       29.329        0.710      338.003       10.359      867.072
01/10/2014  11:58:00      -49.933      -42.949        2.390       37.622       43.412       28.103     1415.424     1884.618      789.785        0.422        0.204       65.863       20.006        0.092      337.585        9.658      867.060
01/10/2014  11:59:00     -141.712      -81.713      -16.770       33.115       34.649       23.451     1096.580     1200.564      549.938        1.494        0.142      163.583       14.120        0.007      337.369        9.297      867.036
01/10/2014  12:00:00      -99.053      -80.339       -0.870       50.918       41.921       26.369     2592.660     1757.383      695.330        1.066        0.252      127.538       18.646        0.021      337.559        9.616      867.036
01/10/2014  12:01:00      -47.757      -72.582       10.077       62.671       53.640       35.667     3927.690     2877.267     1272.120        0.786        0.404       86.884       40.688        0.219      337.767        9.963      867.038
01/10/2014  12:02:00      -95.443      -78.888       -7.353       48.175       55.127       26.984     2320.825     3038.991      728.150        1.074        0.304      123.825       26.025        0.044      337.493        9.504      867.037
01/10/2014  12:03:00      -85.163      -42.432       -5.561       48.614       48.973       22.527     2363.297     2398.366      507.488        0.718        0.263       95.148       17.425        0.034      337.643        9.756      867.032
01/10/2014  12:04:00      -31.021      -75.152       -3.189       33.606       35.881       20.567     1129.388     1287.451      422.997        0.473        0.142       81.303       19.319        0.056      337.556        9.609      867.051
01/10/2014  12:05:00      -37.174      -57.106       -3.629       31.590       20.954       18.398      997.899      439.091      338.473        0.322        0.089       68.140       13.007        0.036      337.588        9.662      867.074
01/10/2014  12:06:00      -30.644      -32.414       -5.081       32.962       22.663       17.249     1086.490      513.606      297.536        0.196        0.095       44.606       10.229        0.053      337.675        9.809      867.078
01/10/2014  12:07:00      -20.082      -45.041       -6.956       20.523       32.061       22.084      421.203     1027.889      487.691        0.221        0.097       49.316       19.802        0.161      337.871       10.139      867.086
01/10/2014  12:08:00       17.416      -51.145        3.643       32.203       45.762       25.188     1037.058     2094.149      634.446        0.335        0.188       54.029       27.081        0.251      338.118       10.552      867.079
01/10/2014  12:09:00       -6.506       21.287       57.910       18.231       26.164       17.413      332.374      684.547      303.223        0.258        0.066       22.259       16.352        0.540      338.626       11.404      867.064
01/10/2014  12:10:00       18.346       27.553       52.051       28.713       32.203       26.276      824.443     1037.015      690.447        0.318        0.128       33.102       24.063        0.528      338.169       10.639      867.052
01/10/2014  12:11:00       31.701      -66.593        2.786       35.200       21.320       21.774     1239.061      454.522      474.105        0.381        0.108       73.753       11.385        0.024      337.970       10.304      867.012
01/10/2014  12:12:00      -16.492        7.949       47.484       20.095       70.560       43.575      403.821     4978.690     1898.787        0.493        0.364       18.308       48.675        7.069      338.414       11.049      866.967
01/10/2014  12:13:00       13.174       42.296       56.968       29.593       30.372       32.581      875.772      922.474     1061.551        0.403        0.143       44.301       22.911        0.267      338.277       10.819      866.929
01/10/2014  12:14:00       15.217       33.639       54.777       37.964       49.512       43.331     1441.248     2451.424     1877.574        0.507        0.289       36.921       36.691        0.988      338.380       10.992      866.896
01/10/2014  12:15:00       26.693       84.020       79.998       34.170       31.553       27.108     1167.593      995.603      734.821        0.853        0.145       88.159       24.043        0.074      338.148       10.603      866.886
01/10/2014  12:16:00       11.415       46.359       55.348       20.027       32.479       26.451      401.075     1054.873      699.645        0.375        0.108       47.744       22.451        0.221      338.367       10.971      866.880
01/10/2014  12:17:00       42.406      -39.398        8.831       48.134       42.998       29.686     2316.894     1848.861      881.237        0.424        0.252       57.883       23.004        0.158      338.216       10.716      866.877
01/10/2014  12:18:00       14.116      -21.606        4.151       20.206       32.959       18.540      408.290     1086.323      343.748        0.126        0.092       25.808        8.997        0.122      338.569       11.310      866.860
01/10/2014  12:19:00       -1.712        0.400       31.796       13.787       22.316       14.617      190.071      498.019      213.644        0.096        0.045        1.758       12.660       51.837      339.152       12.289      866.849
01/10/2014  12:20:00       -3.206       13.459       47.478       56.301       28.047       34.379     3169.854      786.610     1181.914        0.379        0.257       13.836       31.863        5.303      338.464       11.133      866.820
01/10/2014  12:21:00      -16.237        2.265        9.940       21.718       24.221       20.612      471.682      586.652      424.844        0.093        0.074       16.394        8.940        0.297      338.614       11.385      866.787
01/10/2014  12:22:00        1.076      -48.054       28.048       32.799       55.559       28.278     1075.760     3086.854      799.617        0.403        0.248       48.066       24.057        0.250      338.607       11.374      866.745
01/10/2014  12:23:00       23.805      -25.571       45.693       28.234       54.582       21.888      797.132     2979.169      479.078        0.378        0.213       34.936       18.462        0.279      338.709       11.545      866.715
01/10/2014  12:24:00       16.466        6.731       27.943       29.806       33.389       29.141      888.426     1114.829      849.188        0.197        0.143       17.788       25.555        2.064      338.713       11.552      866.688
01/10/2014  12:25:00       60.161       58.923       16.390       49.880       37.095       31.240     2488.035     1376.055      975.968        0.610        0.242       84.209       18.431        0.048      338.647       11.442      866.686
01/10/2014  12:26:00      116.796       88.286       21.170       53.019       36.768       39.544     2810.981     1351.912     1563.727        1.380        0.286      146.409       34.048        0.054      338.316       10.884      866.677
01/10/2014  12:27:00       65.428       77.268        5.576       63.699       38.376       38.071     4057.613     1472.696     1449.395        0.863        0.349      101.248       18.517        0.033      338.667       11.473      866.667
01/10/2014  12:28:00       65.568       94.491       13.795       69.476       45.464       37.122     4826.953     2067.018     1378.042        1.084        0.414      115.012       28.190        0.060      338.568       11.308      866.630
01/10/2014  12:29:00       41.374       33.922       69.470       57.829       53.024       40.149     3344.212     2811.537     1611.904        0.773        0.388       53.502       30.816        0.332      338.989       12.016      866.602
01/10/2014  12:30:00       52.510       73.568       93.872       60.932       86.337       49.496     3712.682     7454.127     2449.874        1.530        0.681       90.385       49.939        0.305      338.505       11.201      866.571
01/10/2014  12:31:00       82.136       38.624       25.305       63.306       53.940       46.304     4007.600     2909.508     2144.091        0.897        0.453       90.765       35.383        0.152      338.345       10.933      866.569
01/10/2014  12:32:00       62.158       36.842       30.105       68.927       54.769       51.721     4750.882     2999.602     2675.092        0.827        0.521       72.256       25.480        0.124      338.603       11.366      866.543
01/10/2014  12:33:00       55.327       58.071       51.502       63.984       50.428       52.651     4094.001     2542.936     2772.087        0.925        0.470       80.207       49.614        0.383      338.742       11.599      866.523
01/10/2014  12:34:00       65.815      -48.115       18.044       54.787       55.773       41.939     3001.567     3110.583     1758.903        0.742        0.394       81.527       42.191        0.268      338.573       11.316      866.492
01/10/2014  12:35:00       84.931     -127.723       -9.169       54.090       78.290       53.278     2925.706     6129.313     2838.592        1.775        0.595      153.383       52.143        0.116      338.347       10.937      866.473
01/10/2014  12:36:00       35.582      -42.353       18.481       51.303      104.303       41.209     2631.964    10879.031     1698.173        0.930        0.760       55.316       56.593        1.047      338.517       11.222      866.458
01/10/2014  12:37:00       19.457      -24.460       35.878       43.161       63.805       41.665     1862.838     4071.065     1736.006        0.497        0.383       31.255       37.132        1.411      338.771       11.651      866.431
01/10/2014  12:38:00        0.783       67.952       92.900       34.252       46.963       30.420     1173.172     2205.496      925.347        0.878        0.215       67.956       32.187        0.224      338.886       11.842      866.407
01/10/2014  12:39:00       51.297       61.095       44.546       43.916       28.333       42.476     1928.656      802.741     1804.190        0.644        0.227       79.774       33.733        0.179      338.674       11.486      866.393
01/10/2014  12:40:00       51.903       29.413        2.863       52.516       30.827       14.969     2757.957      950.274      224.063        0.375        0.197       59.658        8.602        0.021      338.407       11.038      866.398
01/10/2014  12:41:00       24.979       19.626       11.458       23.783       20.916       20.959      565.609      437.479      439.285        0.129        0.072       31.766       13.201        0.173      338.585       11.337      866.394
01/10/2014  12:42:00       45.228       48.074       41.045       49.260       34.781       24.517     2426.515     1209.688      601.061        0.514        0.212       66.005       23.742        0.129      338.842       11.769      866.387
01/10/2014  12:43:00       35.703       56.948       71.031       68.505       57.589       59.089     4692.902     3316.437     3491.566        1.053        0.575       67.215       47.381        0.497      338.823       11.737      866.347
01/10/2014  12:44:00       61.747       87.930       80.150       62.809       50.423       52.992     3944.956     2542.468     2808.116        1.363        0.465      107.445       50.825        0.224      338.339       10.923      866.323
01/10/2014  12:45:00       60.382       81.227       79.439       45.702       33.588       26.157     2088.666     1128.178      684.200        1.023        0.195      101.212       20.208        0.040      338.448       11.108      866.288
01/10/2014  12:46:00       74.866       85.938       77.302       46.054       28.854       33.833     2120.941      832.579     1144.657        1.153        0.205      113.975       21.348        0.035      338.286       10.834      866.260
01/10/2014  12:47:00       45.639       54.780       37.073       30.503       25.839       21.523      930.431      667.665      463.240        0.426        0.103       71.300        6.015        0.007      338.307       10.871      866.254
01/10/2014  12:48:00       18.986      -24.880       41.293       44.748       44.974       39.089     2002.349     2022.671     1527.923        0.412        0.278       31.296       33.700        1.160      338.927       11.911      866.245
01/10/2014  12:49:00       29.017       37.302       73.727       51.572       74.953       41.761     2659.644     5617.968     1743.958        0.884        0.501       47.259       45.793        0.939      338.833       11.753      866.252
01/10/2014  12:50:00       60.253       75.591       79.954       54.401       48.274       38.251     2959.521     2330.418     1463.135        1.124        0.338       96.667       32.775        0.115      338.562       11.297      866.242
01/10/2014  12:51:00      128.262     -124.570       15.082       86.973       83.400       51.528     7564.302     6955.617     2655.153        2.468        0.859      178.798       46.805        0.069      338.572       11.312      866.215
01/10/2014  12:52:00       74.171       65.451       92.476       60.193       93.340       53.088     3623.189     8712.398     2818.339        1.674        0.758       98.920       64.177        0.421      338.562       11.296      866.231
01/10/2014  12:53:00       83.071      -80.618        5.770       64.025       55.166       46.982     4099.177     3043.341     2207.310        1.139        0.467      115.758       44.237        0.146      338.507       11.205      866.246
01/10/2014  12:54:00      108.637      -77.433        9.484       64.272       74.067       39.206     4130.869     5485.969     1537.148        1.452        0.558      133.409       39.645        0.088      338.432       11.077      866.266
01/10/2014  12:55:00      129.397     -159.053      -14.506       86.165      129.532       43.853     7424.475    16778.429     1923.102        3.418        1.306      205.040       65.292        0.101      338.343       10.928      866.281
01/10/2014  12:56:00      145.260     -146.137      -12.224       50.907       68.983       29.851     2591.553     4758.607      891.098        2.542        0.412      206.050       30.824        0.022      338.110       10.536      866.293
01/10/2014  12:57:00       90.478      -75.239       15.209       70.094       65.358       51.778     4913.127     4271.653     2680.969        1.297        0.593      117.674       48.416        0.169      338.562       11.298      866.268
01/10/2014  12:58:00       73.536      -22.504       38.988       49.930       99.392       61.304     2493.049     9878.742     3758.213        1.178        0.807       76.903       72.820        0.897      338.429       11.075      866.247
01/10/2014  12:59:00       71.698       49.320       42.985       52.160       48.246       37.096     2720.632     2327.639     1376.143        0.792        0.321       87.024       24.648        0.080      338.251       10.776      866.243
01/10/2014  13:00:00       50.456       45.882       56.030       59.787       68.666       51.420     3574.482     4715.024     2643.966        0.936        0.547       68.198       36.522        0.287      338.479       11.158      866.225
01/10/2014  13:01:00       27.780       89.016      120.544       56.000       49.961       34.165     3136.015     2496.055     1167.226        1.501        0.340       93.250       37.071        0.158      338.608       11.375      866.220
01/10/2014  13:02:00       31.211      -27.331       50.051       58.133      110.098       47.247     3379.447    12121.493     2232.265        1.098        0.887       41.486       65.226        2.472      338.772       11.649      866.195
01/10/2014  13:03:00      101.087     -125.907      -17.331       55.637       69.434       31.227     3095.475     4821.093      975.121        1.763        0.445      161.465       29.546        0.033      338.350       10.939      866.181
01/10/2014  13:04:00       60.868      -88.857       -7.879       50.131       58.919       43.619     2513.104     3471.483     1902.574        0.977        0.394      107.706       41.599        0.149      338.562       11.297      866.158
01/10/2014  13:05:00       32.227      -79.258      -10.596       39.684       53.491       36.240     1574.840     2861.262     1313.348        0.659        0.287       85.559       26.764        0.098      338.556       11.287      866.139
01/10/2014  13:06:00       82.480      -18.020        7.457       35.666       39.595       34.934     1272.095     1567.753     1220.409        0.562        0.203       84.425       30.795        0.133      338.403       11.031      866.118
01/10/2014  13:07:00       29.396      -21.524       17.586       38.908       41.163       25.511     1513.866     1694.404      650.786        0.275        0.193       36.433       21.318        0.342      338.741       11.599      866.088
01/10/2014  13:08:00       76.384      -57.747        6.113       33.629       39.273       25.685     1130.885     1542.361      659.744        0.627        0.167       95.756       26.189        0.075      338.455       11.117      866.061
01/10/2014  13:09:00       25.415      -40.351       14.958       34.677       40.710       23.161     1202.469     1657.322      536.415        0.295        0.170       47.688       21.920        0.211      338.658       11.459      866.024
01/10/2014  13:10:00       57.335       76.156       80.410       67.086       67.358       60.788     4500.546     4537.144     3695.210        1.414        0.637       95.326       52.092        0.299      338.689       11.510      865.993
01/10/2014  13:11:00       32.925       66.265       91.050       67.991       71.064       42.920     4622.823     5050.119     1842.099        1.264        0.576       73.994       36.298        0.241      338.850       11.780      865.962
01/10/2014  13:12:00       43.616      -75.589        2.389       56.654       74.997       39.777     3209.683     5624.498     1582.183        0.902        0.521       87.270       49.173        0.317      338.852       11.785      865.955
01/10/2014  13:13:00       63.101      -90.264       14.110       71.928       86.166       45.948     5173.704     7424.548     2111.192        1.352        0.735      110.133       39.654        0.130      338.817       11.725      865.924
01/10/2014  13:14:00       65.749       33.520       91.006       61.057       63.628       53.774     3727.941     4048.502     2891.595        1.220        0.533       73.801       45.750        0.384      338.867       11.812      865.896
01/10/2014  13:15:00      100.578      -10.987       48.141       90.816      104.049       56.840     8247.482    10826.200     3230.729        1.743        1.115      101.177       73.106        0.522      338.679       11.494      865.871
01/10/2014  13:16:00      115.249      -57.950       14.221       52.539       74.917       48.581     2760.310     5612.585     2360.115        1.379        0.537      128.999       55.049        0.182      338.623       11.400      865.857
01/10/2014  13:17:00       12.343        1.864       44.799       43.149       70.105       43.956     1861.802     4914.744     1932.159        0.543        0.435       12.483       26.167        4.394      339.029       12.083      865.838
01/10/2014  13:18:00       68.928        7.337       59.478       74.189      111.496       61.864     5504.009    12431.364     3827.141        1.505        1.088       69.318       70.074        1.022      338.843       11.770      865.836
01/10/2014  13:19:00      105.440      -89.217       22.412       66.221       94.431       50.483     4385.180     8917.267     2548.565        1.771        0.793      138.121       66.553        0.232      338.736       11.589      865.818
01/10/2014  13:20:00       22.318       47.402       83.802       39.678       66.329       47.352     1574.317     4399.596     2242.220        0.899        0.411       52.394       42.271        0.651      339.170       12.320      865.777
01/10/2014  13:21:00       96.486      101.302       98.571       66.320       61.302       51.652     4398.408     3757.925     2667.886        2.005        0.541      139.899       36.606        0.068      338.674       11.485      865.758
01/10/2014  13:22:00       30.744      104.896      104.654       54.894       51.062       34.842     3013.387     2607.368     1213.997        1.487        0.342      109.309       35.410        0.105      338.692       11.516      865.738
01/10/2014  13:23:00      157.979       80.338       31.286       93.718       68.550       48.608     8783.033     4699.099     2362.730        2.411        0.792      177.233       40.182        0.051      338.799       11.694      865.727
01/10/2014  13:24:00      171.048       77.968       26.495       81.970       65.208       57.208     6719.062     4252.124     3272.783        2.514        0.712      187.980       30.438        0.026      338.626       11.403      865.722
01/10/2014  13:25:00      169.296       83.200       40.519       60.759       56.045       52.243     3691.629     3141.007     2729.321        2.339        0.478      188.636       28.916        0.023      338.601       11.360      865.717
01/10/2014  13:26:00       89.405       13.230       40.002       48.769       94.058       52.180     2378.421     8846.891     2722.792        1.186        0.697       90.378       55.584        0.378      338.685       11.505      865.705
01/10/2014  13:27:00       72.002       61.285       39.769       57.885       53.565       49.712     3350.620     2869.181     2471.289        0.960        0.435       94.552       30.217        0.102      338.779       11.662      865.698
01/10/2014  13:28:00       99.722       80.818       15.155       43.378       29.109       31.691     1881.627      847.310     1004.319        1.022        0.187      128.359       18.913        0.022      338.592       11.349      865.684
01/10/2014  13:29:00       17.282       43.928       -8.920       18.889       33.475       16.400      356.780     1120.581      268.966        0.203        0.087       47.205       17.581        0.139      338.691       11.514      865.676
01/10/2014  13:30:00        3.412        8.724       11.828       18.930       14.800       14.673      358.342      219.048      215.295        0.051        0.040        9.367        9.724        1.078      339.267       12.482      865.687
01/10/2014  13:31:00       31.407       41.525        8.151       55.058       34.308       34.090     3031.413     1177.044     1162.159        0.407        0.269       52.065       27.025        0.269      338.979       12.000      865.695
01/10/2014  13:32:00       64.618      -82.085       10.702       76.510       95.688       48.860     5853.803     9156.185     2387.256        1.421        0.870      104.467       59.760        0.327      339.089       12.183      865.701
01/10/2014  13:33:00       93.813     -139.754       -4.417       82.043      102.981       47.249     6730.999    10605.029     2232.512        2.396        0.978      168.322       66.707        0.157      338.821       11.729      865.710
01/10/2014  13:34:00       75.601      101.529       93.155       59.037       42.932       44.037     3485.406     1843.131     1939.240        1.598        0.363      126.584       26.719        0.045      338.887       11.844      865.728
01/10/2014  13:35:00      108.201       53.361       48.695       33.650       80.944       39.288     1132.297     6551.914     1543.569        1.308        0.461      120.644       45.346        0.141      338.714       11.554      865.738
01/10/2014  13:36:00       83.074       48.390       34.429       43.131       39.989       41.586     1860.242     1599.105     1729.409        0.781        0.259       96.139       11.014        0.013      338.956       11.959      865.740
01/10/2014  13:37:00       70.156       82.818       80.536       73.806       70.289       68.547     5447.274     4940.515     4698.726        1.667        0.754      108.539       34.514        0.101      339.096       12.194      865.733
01/10/2014  13:38:00      100.777       22.861       50.729       79.357       86.907       38.138     6297.537     7552.742     1454.536        1.428        0.765      103.337       31.651        0.094      338.923       11.903      865.732
01/10/2014  13:39:00      151.564      108.587       56.538       45.529       42.869       35.161     2072.858     1837.740     1236.274        2.155        0.257      186.447       27.683        0.022      338.719       11.559      865.731
01/10/2014  13:40:00       67.584       41.226       26.351       53.258       38.336       29.715     2836.440     1469.640      882.989        0.607        0.259       79.166       19.501        0.061      339.037       12.096      865.739
01/10/2014  13:41:00       48.853        2.780       33.234       73.002       59.119       42.665     5329.231     3495.074     1820.263        0.707        0.532       48.932       32.056        0.429      339.042       12.104      865.738
01/10/2014  13:42:00       84.869       84.439       66.390       55.843       57.620       67.245     3118.428     3320.024     4521.914        1.485        0.548      119.719       51.887        0.188      338.976       11.995      865.744
01/10/2014  13:43:00       42.665       51.746       65.789       36.098       41.684       33.192     1303.076     1737.538     1101.714        0.648        0.207       67.067       26.172        0.152      338.910       11.882      865.745
01/10/2014  13:44:00       11.077       -9.561       39.895       42.924       73.650       34.498     1842.497     5424.362     1190.094        0.513        0.423       14.633       35.800        5.986      339.057       12.129      865.743
01/10/2014  13:45:00      103.308     -149.252      -10.875       24.780       33.384       17.090      614.066     1114.466      292.057        1.754        0.101      181.518        8.715        0.002      338.599       11.360      865.736
01/10/2014  13:46:00       47.231     -131.873        6.006       23.297       26.106       17.794      542.734      681.524      316.639        1.060        0.077      140.076       12.767        0.008      338.652       11.449      865.727
01/10/2014  13:47:00       31.386      -31.104       15.502       33.455       40.468       25.504     1119.229     1637.629      650.454        0.280        0.170       44.188       29.839        0.456      338.871       11.818      865.716
01/10/2014  13:48:00        5.816        5.066       -9.117       14.423       14.159        6.610      208.034      200.485       43.687        0.030        0.023        7.713        8.671        1.264      338.674       11.485      865.709
01/10/2014  13:49:00       28.592      -62.249       -2.246       42.070       67.284       26.964     1769.861     4527.146      727.037        0.586        0.351       68.501       22.224        0.105      338.956       11.960      865.699
01/10/2014  13:50:00      110.127     -109.019      -13.112       50.425       60.172       25.758     2542.657     3620.679      663.491        1.550        0.341      154.961       26.317        0.029      338.717       11.558      865.703
01/10/2014  13:51:00       90.836      -60.287       14.523       53.181       70.366       40.153     2828.211     4951.384     1612.251        1.074        0.470      109.022       49.913        0.210      338.728       11.576      865.716
01/10/2014  13:52:00      -14.586        8.606       57.593       32.426       59.746       38.226     1051.464     3569.574     1461.243        0.484        0.304       16.936       35.092        4.293      339.017       12.064      865.713
01/10/2014  13:53:00       30.937      -82.606        8.317       61.816       78.417       41.860     3821.262     6149.263     1752.237        0.978        0.586       88.209       49.181        0.311      338.914       11.889      865.715
01/10/2014  13:54:00       21.063       17.275       39.712       28.630       33.928       32.666      819.677     1151.084     1067.035        0.268        0.152       27.241       26.664        0.958      338.877       11.828      865.710
01/10/2014  13:55:00        9.923       43.620       13.552       16.004       14.531       22.047      256.141      211.150      486.059        0.157        0.048       44.735        5.360        0.014      338.853       11.786      865.699
01/10/2014  13:56:00       49.736       43.440       31.941       37.176       24.137       27.736     1382.020      582.609      769.291        0.406        0.137       66.036       20.733        0.099      338.927       11.911      865.703
01/10/2014  13:57:00       49.396       42.270        3.603       13.342       11.377       10.806      178.016      129.430      116.770        0.233        0.021       65.013        4.548        0.005      338.675       11.488      865.703
01/10/2014  13:58:00        6.439       35.791       -8.649       19.371       18.962       15.544      375.222      359.553      241.620        0.119        0.049       36.366        9.608        0.070      338.820       11.731      865.706
01/10/2014  13:59:00       15.624      -15.503        1.457       22.568       34.242       25.811      509.304     1172.532      666.233        0.142        0.117       22.010       19.073        0.751      339.012       12.053      865.712
01/10/2014  14:00:00       97.707     -110.525      -25.896       41.585       51.172       33.119     1729.345     2618.575     1096.869        1.394        0.272      147.521       29.153        0.039      338.889       11.847      865.720
01/10/2014  14:01:00       58.000      -12.786        7.192       46.838       30.143       34.207     2193.788      908.577     1170.129        0.393        0.214       59.392       22.148        0.139      338.967       11.979      865.732
01/10/2014  14:02:00       19.391      -18.250       15.462       24.681       43.853       39.264      609.171     1923.081     1541.697        0.251        0.204       26.629       35.046        1.732      339.006       12.043      865.746
01/10/2014  14:03:00       -2.295       27.403      -20.772       24.901       26.995        9.448      620.053      728.725       89.262        0.131        0.072       27.499        5.626        0.042      338.785       11.675      865.753
01/10/2014  14:04:00       46.641       38.335        3.913       28.899       24.475       17.669      835.169      599.012      312.188        0.270        0.087       60.373       10.586        0.031      338.918       11.896      865.757
01/10/2014  14:05:00       22.276       46.742       26.780       29.938       38.183       39.593      896.285     1457.974     1567.577        0.366        0.196       51.778       26.354        0.259      339.079       12.166      865.762
01/10/2014  14:06:00        1.927      -23.609       31.550       23.079       51.977       19.959      532.624     2701.659      398.374        0.259        0.182       23.688       23.509        0.985      339.295       12.531      865.786
01/10/2014  14:07:00       -8.952        1.022       18.770       23.327       30.118       21.123      544.133      907.081      446.198        0.117        0.095        9.010       14.215        2.489      339.303       12.545      865.797
01/10/2014  14:08:00       84.313       38.165       17.558       47.624       39.659       28.557     2268.043     1572.839      815.485        0.676        0.233       92.549       13.619        0.022      339.017       12.061      865.802
01/10/2014  14:09:00       62.108       58.037       -5.636       29.345       25.715       19.546      861.150      661.271      382.032        0.458        0.095       85.004       15.406        0.033      338.882       11.835      865.808
01/10/2014  14:10:00       -0.677       75.228       -7.238       32.134       41.500       15.638     1032.625     1722.243      244.542        0.436        0.150       75.231       21.305        0.080      338.874       11.824      865.797
01/10/2014  14:11:00      -14.320      144.788      -18.923       30.912       53.686       24.542      955.575     2882.174      602.324        1.298        0.222      145.495       22.602        0.024      338.879       11.830      865.793
01/10/2014  14:12:00      -26.765      113.107      -23.014       38.192       41.471       23.519     1458.645     1719.877      553.145        0.888        0.187      116.230       14.245        0.015      338.885       11.841      865.782
01/10/2014  14:13:00      -54.789       47.837      -20.066       21.556       22.387       17.829      464.672      501.187      317.858        0.349        0.064       72.734       11.730        0.026      338.885       11.842      865.776
01/10/2014  14:14:00      -48.711       25.218       -7.953       18.422       22.672       14.558      339.376      514.036      211.928        0.207        0.053       54.852        9.794        0.032      339.026       12.077      865.771
01/10/2014  14:15:00        3.836       26.289       12.316       42.506       21.559       25.752     1806.776      464.770      663.188        0.190        0.147       26.568       21.940        0.682      339.079       12.167      865.768
01/10/2014  14:16:00       62.239       47.070       34.313       35.929       34.339       34.831     1290.863     1179.185     1213.181        0.547        0.184       78.034       15.518        0.040      339.003       12.040      865.757
01/10/2014  14:17:00       70.199       11.350       32.274       33.490       29.158       41.649     1121.576      850.165     1734.607        0.490        0.185       71.111       27.278        0.147      338.994       12.023      865.761
01/10/2014  14:18:00       16.104       -4.800        1.015       37.055       23.807       23.608     1373.076      566.780      557.320        0.139        0.125       16.804       16.315        0.943      339.034       12.091      865.748
01/10/2014  14:19:00        4.572        8.708       -7.780       23.535       10.992       14.505      553.914      120.827      210.386        0.052        0.044        9.835        8.856        0.811      339.095       12.193      865.742
01/10/2014  14:20:00      -10.425       36.227       -8.812       16.831       21.135       12.219      283.288      446.709      149.316        0.119        0.044       37.697       10.897        0.084      339.084       12.175      865.738
01/10/2014  14:21:00        9.687       69.303       -1.055       14.839       29.338       14.202      220.198      860.741      201.691        0.309        0.064       69.977       13.144        0.035      339.061       12.135      865.741
01/10/2014  14:22:00       -8.177       28.573       -3.304       13.351       19.614       14.002      178.240      384.711      196.060        0.083        0.038       29.720       13.531        0.207      339.099       12.201      865.732
01/10/2014  14:23:00        0.241       -2.702       10.867       10.445        7.085        8.546      109.108       50.200       73.039        0.018        0.012        2.713        6.887        6.444      339.277       12.501      865.720
01/10/2014  14:24:00       -0.139        5.875       14.729       10.071        8.272        8.905      101.426       68.427       79.304        0.025        0.012        5.877        7.673        1.705      339.282       12.510      865.704
01/10/2014  14:25:00       -6.677       -0.297       -4.935       14.247       16.073       13.732      202.987      258.349      188.576        0.036        0.032        6.684       12.685        3.602      339.191       12.356      865.679
01/10/2014  14:26:00       16.096       -4.704       31.707       39.054       31.747       29.501     1525.223     1007.894      870.293        0.234        0.170       16.769       31.198        3.461      339.291       12.524      865.656
01/10/2014  14:27:00       14.395        9.096       50.561       31.983       30.241       27.249     1022.910      914.498      742.508        0.276        0.134       17.028       18.483        1.178      339.317       12.567      865.632
01/10/2014  14:28:00       34.667       18.527       42.985       35.719       49.791       36.924     1275.817     2479.135     1363.406        0.425        0.256       39.307       33.560        0.729      339.216       12.396      865.615
01/10/2014  14:29:00       14.511      -11.747       33.983       31.482       65.933       42.564      991.114     4347.174     1811.682        0.433        0.357       18.670       44.194        5.603      339.287       12.516      865.607
01/10/2014  14:30:00       58.783       -9.476       24.106       42.544       28.208       28.562     1809.955      795.713      815.781        0.377        0.171       59.542       24.950        0.176      339.212       12.390      865.620
01/10/2014  14:31:00        6.947      -44.619       12.705       28.866       61.686       24.491      833.265     3805.146      599.789        0.372        0.262       45.157       33.814        0.561      339.340       12.606      865.624
01/10/2014  14:32:00       -2.537      -35.626       20.309       41.440       43.703       28.301     1717.271     1909.971      800.919        0.306        0.221       35.716       22.825        0.408      339.305       12.547      865.630
01/10/2014  14:33:00       16.176       26.377       17.957       19.540       26.615       26.955      381.805      708.352      726.582        0.155        0.091       30.942       16.772        0.294      339.297       12.533      865.643
01/10/2014  14:34:00      -12.243       -0.478       11.593       25.426       16.182       11.655      646.460      261.846      135.835        0.066        0.052       12.252       13.350        1.187      339.466       12.820      865.654
01/10/2014  14:35:00        7.318       12.689       23.136       15.534       12.946       13.544      241.307      167.591      183.446        0.067        0.030       14.648        9.883        0.455      339.382       12.676      865.669
01/10/2014  14:36:00       -1.061        2.181       12.349        6.619        6.520        7.304       43.809       42.506       53.352        0.015        0.007        2.425        2.753        1.289      339.563       12.983      865.685
01/10/2014  14:37:00        3.960       15.419        1.320       12.038       10.419       13.646      144.902      108.561      186.220        0.035        0.022       15.919        9.594        0.363      339.275       12.498      865.691
01/10/2014  14:38:00       11.722       12.446       15.032       16.155        8.927       11.872      260.985       79.693      140.944        0.050        0.024       17.097        5.882        0.118      339.330       12.590      865.697
01/10/2014  14:39:00       38.450       27.245       10.347       14.014       10.793       11.143      196.399      116.490      124.176        0.138        0.022       47.125        6.605        0.020      339.108       12.216      865.703
01/10/2014  14:40:00       38.985       12.374       18.943       23.505       24.173       13.802      552.488      584.320      190.507        0.168        0.066       40.902        7.505        0.034      339.316       12.566      865.704
01/10/2014  14:41:00       15.986      -20.377       10.848       28.998       38.043       22.195      840.890     1447.236      492.597        0.178        0.139       25.900       15.711        0.368      339.365       12.648      865.710
01/10/2014  14:42:00       35.345      -22.061       15.653       27.706       42.723       28.560      767.614     1825.273      815.690        0.269        0.170       41.665       31.221        0.562      339.164       12.308      865.724
01/10/2014  14:43:00       25.334      -23.884        4.920       16.932       37.522       22.260      286.703     1407.899      495.509        0.171        0.110       34.817       21.220        0.371      339.191       12.357      865.729
01/10/2014  14:44:00       34.035       31.283       21.190       18.954       23.842       21.399      359.252      568.433      457.933        0.199        0.069       46.227       16.194        0.123      339.155       12.296      865.732
01/10/2014  14:45:00       -3.395        4.825       26.043       13.612       19.928       18.132      185.299      397.136      328.770        0.081        0.046        5.900        9.097        2.378      339.403       12.712      865.728
01/10/2014  14:46:00       -4.695        7.964       16.234       11.169        9.270        7.016      124.752       85.930       49.229        0.030        0.013        9.245        3.263        0.125      339.502       12.879      865.729
01/10/2014  14:47:00       42.841      -56.311       -6.181       34.085       38.680       21.389     1161.766     1496.115      457.500        0.408        0.156       70.755       19.407        0.075      339.180       12.336      865.729
01/10/2014  14:48:00       81.272      -75.995       -7.637       34.462       21.502       17.860     1187.607      462.343      318.994        0.720        0.098      111.268        9.089        0.007      339.119       12.233      865.719
01/10/2014  14:49:00       73.095     -101.515       -7.187       38.262       29.158       23.012     1463.999      850.202      529.551        0.927        0.142      125.092       21.203        0.029      339.223       12.411      865.706
01/10/2014  14:50:00       74.601      -89.278       26.400       35.104       88.743       47.845     1232.271     7875.249     2289.109        1.281        0.570      116.344       56.337        0.234      339.345       12.615      865.702
01/10/2014  14:51:00       34.545       48.439       44.326       33.633       52.901       42.781     1131.204     2798.516     1830.192        0.563        0.288       59.496       36.763        0.382      339.347       12.618      865.714
01/10/2014  14:52:00       82.865       46.131       20.788       58.624       58.537       37.879     3436.793     3426.586     1434.841        0.886        0.415       94.840       28.836        0.092      339.330       12.589      865.721
01/10/2014  14:53:00      108.036       63.989        8.062       72.928       45.405       41.334     5318.458     2061.632     1708.506        1.246        0.454      125.564       23.315        0.034      339.219       12.402      865.739
01/10/2014  14:54:00       42.281       74.732      -10.164       34.687       40.199       26.780     1203.163     1615.923      717.147        0.551        0.177       85.864       17.029        0.039      339.179       12.335      865.779
01/10/2014  14:55:00        1.570       20.685       -1.541       17.155       22.405       16.460      294.302      501.968      270.926        0.075        0.053       20.744       11.194        0.291      339.367       12.652      865.794
01/10/2014  14:56:00       22.519       71.839       -2.611       23.299       36.829       26.677      542.862     1356.381      711.642        0.414        0.131       75.285       25.397        0.114      339.270       12.487      865.795
01/10/2014  14:57:00        7.166       -0.637      -10.502       12.363       29.410       16.271      152.833      864.940      264.761        0.072        0.064        7.194       17.029        5.603      339.274       12.494      865.807
01/10/2014  14:58:00        9.354       33.328       51.819       24.382       36.380       32.832      594.493     1323.524     1077.953        0.344        0.150       34.616       30.568        0.780      339.595       13.035      865.812
01/10/2014  14:59:00       54.992       84.319       60.589       40.545       42.510       44.852     1643.879     1807.090     2011.671        0.963        0.273      100.667       32.271        0.103      339.364       12.647      865.826
01/10/2014  15:00:00       12.002       52.330       50.255       37.221       39.105       43.395     1385.412     1529.169     1883.093        0.510        0.240       53.688       28.883        0.289      339.617       13.073      865.831
01/10/2014  15:01:00       13.763       46.505       77.459       58.852       67.544       38.787     3463.530     4562.133     1504.417        0.894        0.477       48.499       37.245        0.590      339.612       13.065      865.845
01/10/2014  15:02:00       76.035       22.340       31.804       40.813       41.380       28.112     1665.741     1712.346      790.276        0.573        0.208       79.249       21.739        0.075      339.261       12.474      865.868
01/10/2014  15:03:00       60.956       27.917       15.841       46.157       27.853       31.480     2130.515      775.769      991.007        0.432        0.195       67.045       13.039        0.038      339.327       12.584      865.871
01/10/2014  15:04:00       10.354       55.146       69.757       25.226       36.815       29.295      636.329     1355.320      858.218        0.543        0.142       56.110       26.823        0.229      339.467       12.819      865.870
01/10/2014  15:05:00       69.990       82.343       76.625       26.488       27.150       29.506      701.617      737.097      870.585        0.993        0.115      108.070       13.773        0.016      339.285       12.512      865.880
01/10/2014  15:06:00       51.201        8.254       23.610       22.648       41.036       29.279      512.919     1683.939      857.255        0.315        0.153       51.862       25.518        0.242      339.319       12.571      865.903
01/10/2014  15:07:00       40.741       20.509       37.683       33.720       39.200       27.779     1137.012     1536.617      771.693        0.347        0.172       45.612       19.774        0.188      339.429       12.755      865.910
01/10/2014  15:08:00       31.296       -6.472       34.801       29.738       31.582       19.912      884.334      997.441      396.500        0.225        0.114       31.958       21.696        0.461      339.626       13.089      865.916
01/10/2014  15:09:00       63.030       40.386       10.469       26.309       29.371       23.566      692.159      862.673      555.354        0.391        0.106       74.859       12.528        0.028      339.303       12.545      865.912
01/10/2014  15:10:00       80.924       48.379        8.823       34.621       33.451       30.235     1198.641     1118.980      914.160        0.610        0.162       94.283       16.396        0.030      339.308       12.551      865.914
01/10/2014  15:11:00       90.617       50.885        6.550       41.501       42.485       26.394     1722.367     1805.000      696.658        0.753        0.211      103.926       18.785        0.033      339.238       12.432      865.927
01/10/2014  15:12:00       70.117       56.309       20.218       61.710       49.719       35.578     3808.143     2471.946     1265.767        0.802        0.377       89.928       23.792        0.070      339.360       12.640      865.931
01/10/2014  15:13:00      122.658       82.723       16.381       75.952       59.100       47.907     5768.731     3492.751     2295.070        1.685        0.578      147.946       34.372        0.054      339.479       12.839      865.911
01/10/2014  15:14:00       50.601       63.535       51.701       61.797       37.333       32.116     3818.882     1393.770     1031.422        0.776        0.312       81.223       31.385        0.149      339.568       12.990      865.904
01/10/2014  15:15:00       35.440       66.375       82.713       65.597       50.141       54.657     4302.943     2514.160     2987.372        1.115        0.490       75.244       52.325        0.484      339.597       13.040      865.906
01/10/2014  15:16:00       93.055       42.653       28.810       45.379       62.029       38.453     2059.281     3847.582     1478.668        0.935        0.369      102.365       38.068        0.138      339.433       12.763      865.924
01/10/2014  15:17:00        2.983       39.205       72.786       34.865       48.683       34.358     1215.593     2370.006     1180.501        0.580        0.238       39.318       36.637        0.868      339.731       13.265      865.928
01/10/2014  15:18:00       78.611      -10.014       25.493       44.718       30.755       29.481     1999.724      945.855      869.109        0.537        0.191       79.246       16.932        0.046      339.325       12.582      865.944
01/10/2014  15:19:00       -3.516       17.034       41.601        8.088       18.712       12.119       65.412      350.132      146.876        0.130        0.028       17.393       11.641        0.448      339.663       13.151      865.941
01/10/2014  15:20:00       74.034       84.646       73.559       57.799       45.153       37.136     3340.701     2038.802     1379.103        1.241        0.338      112.454       31.925        0.081      339.461       12.811      865.948
01/10/2014  15:21:00      121.144       70.324       24.673       49.825       42.633       34.850     2482.498     1817.570     1214.515        1.287        0.276      140.076       25.588        0.033      339.361       12.640      865.958
01/10/2014  15:22:00       18.680       -3.207       46.699       29.181       34.824       23.993      851.533     1212.726      575.653        0.259        0.132       18.953       14.517        0.587      339.627       13.089      865.958
01/10/2014  15:23:00       38.337       45.418       37.862       32.554       29.386       21.990     1059.755      863.513      483.571        0.369        0.120       59.435       12.535        0.044      339.325       12.581      865.967
01/10/2014  15:24:00       10.988       25.495       41.307       27.039       19.124       10.946      731.132      365.723      119.810        0.185        0.061       27.762        7.707        0.077      339.515       12.901      865.975
01/10/2014  15:25:00        6.681      -37.602        7.970       24.790       42.086       16.922      614.552     1771.264      286.351        0.210        0.134       38.191       19.779        0.268      339.602       13.048      865.989
01/10/2014  15:26:00       31.642       35.581       12.341       31.515       43.199       23.648      993.225     1866.147      559.213        0.292        0.171       47.615       19.146        0.162      339.443       12.781      866.003
01/10/2014  15:27:00       94.245       50.179        2.168       41.734       42.906       28.982     1741.717     1840.928      839.927        0.791        0.221      106.771       19.621        0.034      339.357       12.635      866.022
01/10/2014  15:28:00       98.426       66.001        5.158       71.252       50.098       42.191     5076.788     2509.828     1780.109        1.172        0.468      118.506       22.714        0.037      339.356       12.633      866.034
01/10/2014  15:29:00      105.541       49.584       17.728       49.169       40.217       31.656     2417.631     1617.430     1002.093        0.947        0.252      116.608       20.710        0.032      339.313       12.559      866.054
01/10/2014  15:30:00      138.239       88.759        9.811       25.043       28.157       19.782      627.171      792.836      391.345        1.445        0.091      164.281        9.291        0.003      339.203       12.374      866.074
01/10/2014  15:31:00       55.214       33.669        9.747       24.466       21.765       18.238      598.584      473.696      332.614        0.284        0.070       64.670       12.060        0.035      339.261       12.472      866.079
01/10/2014  15:32:00       69.188       51.355       11.161       36.071       22.337       19.172     1301.129      498.924      367.581        0.486        0.108       86.165       10.703        0.015      339.272       12.493      866.080
01/10/2014  15:33:00       66.994       51.701        2.888       41.024       25.756       28.180     1682.981      663.357      794.128        0.515        0.157       84.624       15.712        0.034      339.305       12.547      866.088
01/10/2014  15:34:00       46.242       40.777       28.781       42.472       26.544       27.680     1803.889      704.578      766.172        0.395        0.164       61.653       26.186        0.180      339.396       12.701      866.085
01/10/2014  15:35:00      116.801       80.038       17.005       30.263       28.786       25.017      915.871      828.647      625.837        1.135        0.119      141.593       17.143        0.015      339.310       12.555      866.099
01/10/2014  15:36:00       73.391       67.510        8.098       24.534       30.198       23.377      601.897      911.914      546.495        0.603        0.103       99.719        8.170        0.007      339.311       12.556      866.105
01/10/2014  15:37:00       42.368       20.190       17.622       25.725       21.255       17.652      661.768      451.792      311.578        0.197        0.071       46.933       12.783        0.074      339.347       12.617      866.101
01/10/2014  15:38:00       41.263       28.651       25.606       35.271       20.829       26.238     1244.018      433.852      688.437        0.277        0.118       50.234       21.635        0.185      339.371       12.658      866.101
01/10/2014  15:39:00       39.018        7.761       -0.293       27.522       24.088       11.732      757.434      580.209      137.645        0.153        0.074       39.782        9.499        0.057      339.323       12.576      866.093
01/10/2014  15:40:00       31.648      -43.086       17.569       34.023       37.295       30.521     1157.594     1390.954      931.541        0.332        0.174       53.460       19.395        0.132      339.476       12.836      866.086
01/10/2014  15:41:00       37.595        5.199       41.272       31.041       33.053       25.147      963.558     1092.513      632.381        0.292        0.134       37.952       18.984        0.250      339.485       12.851      866.082
01/10/2014  15:42:00       57.898      -17.738        6.326       34.556       45.459       27.383     1194.094     2066.513      749.839        0.386        0.201       60.554       25.294        0.174      339.384       12.681      866.091
01/10/2014  15:43:00       10.988       65.771       94.885       35.627       50.007       42.066     1269.278     2500.668     1769.582        0.949        0.277       66.683       41.575        0.389      339.510       12.892      866.087
01/10/2014  15:44:00        5.154       78.880       95.729       29.110       36.231       29.195      847.383     1312.689      852.337        0.921        0.151       79.048       25.520        0.104      339.539       12.941      866.097
01/10/2014  15:45:00       32.085       73.836       67.746       40.952       36.267       26.985     1677.034     1315.294      728.191        0.740        0.186       80.506       16.191        0.040      339.503       12.881      866.091
01/10/2014  15:46:00       82.090       74.742       37.309       70.497       40.879       49.050     4969.801     1671.080     2405.949        1.138        0.452      111.018       47.720        0.185      339.418       12.738      866.096
01/10/2014  15:47:00      181.519       98.598        9.631       49.328       37.058       32.949     2433.299     1373.289     1085.609        2.383        0.245      206.569       16.921        0.007      339.309       12.551      866.104
01/10/2014  15:48:00       91.707       51.851       19.179       43.417       43.572       32.827     1885.074     1898.526     1077.613        0.816        0.243      105.351       23.407        0.049      339.340       12.604      866.100
01/10/2014  15:49:00       58.701       30.507       41.525       45.834       35.533       28.740     2100.779     1262.579      825.981        0.514        0.209       66.155       19.516        0.087      339.388       12.688      866.095
01/10/2014  15:50:00       72.527       61.613       17.389       24.697       23.388       23.133      609.948      546.981      535.124        0.553        0.085       95.165       10.802        0.013      339.379       12.673      866.089
01/10/2014  15:51:00       47.637       47.564       18.882       41.106       32.263       29.705     1689.689     1040.900      882.389        0.425        0.181       67.318       10.586        0.025      339.394       12.698      866.084
01/10/2014  15:52:00       39.705       63.946       -5.494       32.019       47.838       24.588     1025.216     2288.518      604.572        0.481        0.196       75.270       12.768        0.029      339.288       12.518      866.079
01/10/2014  15:53:00       52.626       22.410       13.175       59.326       34.470       19.083     3519.628     1188.188      364.155        0.426        0.254       57.198        6.050        0.011      339.358       12.637      866.067
01/10/2014  15:54:00      125.898       73.721       36.493       74.085       45.855       38.124     5488.660     2102.697     1453.463        1.583        0.452      145.895       26.449        0.033      339.280       12.502      866.054
01/10/2014  15:55:00      162.624      101.256       33.483       68.942       41.611       43.302     4753.057     1731.504     1875.099        2.309        0.418      191.571       24.395        0.016      339.237       12.432      866.053
01/10/2014  15:56:00      127.744       83.211       33.835       60.329       35.682       32.514     3639.588     1273.219     1057.182        1.518        0.298      152.456       21.338        0.020      339.225       12.412      866.047
01/10/2014  15:57:00      130.671       78.898       24.316       55.942       46.219       38.123     3129.471     2136.186     1453.396        1.530        0.336      152.643       22.908        0.023      339.205       12.379      866.044
01/10/2014  15:58:00      138.605       96.487       23.478       62.923       44.306       39.858     3959.340     1963.060     1588.681        1.829        0.376      168.882       24.102        0.020      339.240       12.436      866.048
01/10/2014  15:59:00      146.664      101.460       16.525       56.102       48.805       39.158     3147.391     2381.938     1533.317        1.957        0.353      178.339       24.583        0.019      339.191       12.354      866.048
01/10/2014  16:00:00       66.249       58.206       18.105       56.906       45.114       35.536     3238.241     2035.276     1262.797        0.732        0.327       88.187       24.876        0.080      339.182       12.340      866.065
01/10/2014  16:01:00       90.718       64.278       11.189       33.035       26.924       28.625     1091.308      724.907      819.401        0.756        0.132      111.182       16.341        0.022      339.209       12.386      866.079
01/10/2014  16:02:00       80.060       67.910       10.708       53.942       32.639       33.734     2909.793     1065.312     1137.974        0.812        0.256      104.983       19.358        0.034      339.212       12.392      866.089
01/10/2014  16:03:00       38.938       64.625        3.361       38.534       32.426       21.448     1484.883     1051.435      460.013        0.435        0.150       75.449       21.694        0.083      339.215       12.395      866.084
01/10/2014  16:04:00       72.467       42.652        1.799       52.837       26.425       27.424     2791.716      698.274      752.050        0.566        0.212       84.087       23.569        0.079      339.205       12.381      866.078
01/10/2014  16:05:00       63.688       48.276       13.802       39.663       26.805       30.528     1573.139      718.507      931.984        0.490        0.161       79.916       16.363        0.042      339.192       12.358      866.065
01/10/2014  16:06:00       29.787       59.710        5.242       35.377       36.072       28.802     1251.525     1301.215      829.553        0.393        0.169       66.727       23.607        0.125      339.191       12.355      866.061
01/10/2014  16:07:00      121.537       58.985       24.424       45.220       25.994       28.095     2044.807      675.673      789.305        1.118        0.175      135.095        5.341        0.002      339.213       12.392      866.073
01/10/2014  16:08:00       58.185       43.715       12.793       35.213       26.775       24.676     1239.929      716.876      608.929        0.401        0.128       72.777       14.195        0.038      339.167       12.313      866.085
01/10/2014  16:09:00       84.602       38.364       16.935       28.702       23.559       26.112      823.779      555.025      681.840        0.549        0.103       92.894       15.060        0.026      339.167       12.315      866.094
01/10/2014  16:10:00       89.057       52.036       21.413       40.021       29.733       26.890     1601.691      884.050      723.089        0.715        0.160      103.145       17.046        0.027      339.138       12.267      866.106
01/10/2014  16:11:00      102.402       60.922        8.588       26.797       20.514       21.992      718.092      420.842      483.645        0.795        0.081      119.154        6.811        0.003      339.144       12.277      866.122
01/10/2014  16:12:00       62.756       47.397       11.055       30.288       23.390       22.213      917.383      547.110      493.401        0.413        0.098       78.644       16.031        0.042      339.133       12.258      866.134
01/10/2014  16:13:00       70.564       33.102       13.260       23.981       20.152       17.378      575.104      406.120      302.005        0.377        0.064       77.942        9.487        0.015      339.143       12.274      866.137
01/10/2014  16:14:00       36.717       32.198        5.755       25.604       18.430       13.968      655.576      339.667      195.108        0.180        0.060       48.835       10.843        0.049      339.129       12.251      866.132
01/10/2014  16:15:00       35.311       32.187       12.485       18.088       17.149       13.778      327.162      294.102      189.830        0.162        0.041       47.780        9.298        0.038      339.117       12.230      866.121
01/10/2014  16:16:00       46.304       25.990       16.694       12.763       14.977       12.136      162.900      224.313      147.286        0.182        0.027       53.099        9.762        0.034      339.116       12.227      866.102
01/10/2014  16:17:00       29.062       29.717       44.649       37.832       24.982       21.775     1431.237      624.093      474.129        0.312        0.126       41.566       21.598        0.270      339.164       12.310      866.100
01/10/2014  16:18:00       60.642       22.085       42.795       29.860       27.153       25.180      891.591      737.265      634.055        0.413        0.113       64.538       21.460        0.111      339.148       12.281      866.110
01/10/2014  16:19:00       62.860       42.658       33.030       25.685       23.948       24.361      659.720      573.526      593.441        0.434        0.091       75.967       17.420        0.053      339.169       12.317      866.114
01/10/2014  16:20:00       32.045       14.561        2.937       28.227       18.165       14.767      796.742      329.978      218.078        0.130        0.067       35.198       12.632        0.129      339.187       12.347      866.120
01/10/2014  16:21:00       13.716       15.841       35.242       18.546       39.100       22.958      343.959     1528.842      527.060        0.204        0.120       20.954       28.419        1.840      339.187       12.350      866.143
01/10/2014  16:22:00       17.697       24.145       41.136       23.017       30.344       16.381      529.766      920.772      268.344        0.215        0.086       29.936       16.537        0.305      339.195       12.361      866.150
01/10/2014  16:23:00       17.188        1.332       28.981       15.844       35.156       21.254      251.017     1235.953      451.741        0.154        0.097       17.239       23.287        1.825      339.222       12.407      866.153
01/10/2014  16:24:00       18.890       17.348       33.861       23.241       16.129       14.419      540.149      260.139      207.897        0.141        0.050       25.648       13.964        0.296      339.178       12.333      866.166
01/10/2014  16:25:00       44.265       39.848       25.846       15.835       14.014       14.049      250.755      196.389      197.378        0.243        0.032       59.559        9.087        0.023      339.151       12.288      866.160
01/10/2014  16:26:00       69.893       42.073        5.397       23.621       15.202       18.053      557.963      231.105      325.909        0.390        0.056       81.579       15.111        0.034      339.128       12.250      866.145
01/10/2014  16:27:00       67.786       57.089       25.385       24.835       19.912       19.731      616.755      396.504      389.318        0.495        0.070       88.624       16.041        0.033      339.106       12.212      866.148
01/10/2014  16:28:00       61.851       53.034       35.961       19.085       13.665       12.612      364.255      186.728      159.069        0.432        0.036       81.475        6.916        0.007      339.166       12.312      866.137
01/10/2014  16:29:00       71.124       47.750       25.020       21.998       14.418       18.804      483.902      207.892      353.593        0.450        0.052       85.666       11.739        0.019      339.121       12.238      866.144
01/10/2014  16:30:00       74.197       17.173       17.148       29.571       29.934       16.054      874.444      896.046      257.716        0.406        0.101       76.159       18.632        0.060      339.101       12.204      866.146
01/10/2014  16:31:00       58.786        0.574       21.193       33.917       20.130       20.392     1150.330      405.205      415.835        0.294        0.099       58.789       22.341        0.144      339.075       12.159      866.140
01/10/2014  16:32:00       43.774        2.444       20.218       28.915       27.533       19.222      836.075      758.087      369.496        0.215        0.098       43.842       19.904        0.206      339.097       12.196      866.144
01/10/2014  16:33:00       42.350       36.593       27.879       15.683       13.762       11.041      245.951      189.382      121.909        0.223        0.028       55.970        6.034        0.012      339.076       12.162      866.141
01/10/2014  16:34:00       59.186       33.906       14.696       17.808       16.782       15.980      317.119      281.632      255.348        0.286        0.043       68.210       11.629        0.029      339.052       12.122      866.146
01/10/2014  16:35:00       59.777       33.456        9.218        9.973        9.360        8.683       99.457       87.605       75.401        0.252        0.013       68.503        4.637        0.005      339.047       12.112      866.139
01/10/2014  16:36:00       54.818       20.909       10.139       10.926        9.893        8.559      119.379       97.881       73.263        0.192        0.015       58.670        6.647        0.013      339.054       12.126      866.121
01/10/2014  16:37:00       35.617       20.573       15.405       11.054        8.088        7.633      122.189       65.422       58.264        0.109        0.012       41.132        3.635        0.008      339.033       12.090      866.116
01/10/2014  16:38:00       31.692       22.530        8.254        5.631        6.799        7.091       31.704       46.221       50.283        0.085        0.006       38.884        3.279        0.007      339.035       12.091      866.096
01/10/2014  16:39:00       26.801       13.886        2.471        6.704        5.977        6.873       44.946       35.722       47.238        0.052        0.006       30.184        4.010        0.018      338.989       12.015      866.105
01/10/2014  16:40:00       38.674       21.814        2.544        9.691        5.614        5.012       93.917       31.514       25.121        0.106        0.008       44.402        4.162        0.009      339.035       12.094      866.099
01/10/2014  16:41:00       42.147       20.282        5.312       11.252        9.487        9.000      126.604       90.006       81.005        0.126        0.015       46.774        6.733        0.021      339.020       12.070      866.105
01/10/2014  16:42:00       40.713       32.605        0.535       11.248       12.835        5.275      126.526      164.728       27.825        0.152        0.016       52.160        5.079        0.009      339.045       12.109      866.101
01/10/2014  16:43:00       24.169       19.356        2.685       12.056       13.837       12.408      145.356      191.459      153.965        0.073        0.025       30.965        9.694        0.098      338.954       11.956      866.095
01/10/2014  16:44:00       29.021       22.048       -3.337        9.082        9.590        7.816       82.484       91.972       61.089        0.079        0.012       36.446        6.421        0.031      339.021       12.069      866.077
01/10/2014  16:45:00       21.774        7.972        1.973        9.517        6.869        6.307       90.569       47.182       39.772        0.036        0.009       23.187        2.573        0.012      338.962       11.971      866.068
01/10/2014  16:46:00       34.265        9.266        0.903        6.260        4.031        3.696       39.182       16.248       13.657        0.066        0.003       35.496        2.215        0.004      339.054       12.126      866.056
01/10/2014  16:47:00       34.515       14.934        5.470        7.135        5.894        5.009       50.914       34.745       25.094        0.078        0.006       37.607        2.541        0.005      339.001       12.034      866.043
01/10/2014  16:48:00       53.984       25.987        5.036       14.191       15.854        7.110      201.394      251.346       50.546        0.206        0.025       59.913        5.568        0.009      339.070       12.150      866.027
01/10/2014  16:49:00       23.469       15.285       11.991       18.913       15.060       10.852      357.699      226.809      117.772        0.082        0.035       28.008       10.673        0.145      338.975       11.993      865.997
01/10/2014  16:50:00        3.751       24.929       25.736       13.522       15.676       19.812      182.838      245.748      392.513        0.106        0.041       25.210        9.748        0.150      338.929       11.914      865.972
01/10/2014  16:51:00        3.526       31.400       41.197       13.004       15.039       10.257      169.101      226.182      105.208        0.160        0.025       31.597        7.502        0.056      338.974       11.991      865.939
01/10/2014  16:52:00        8.533       28.441       42.027       15.439       19.533       10.407      238.367      381.556      108.300        0.169        0.036       29.693       11.088        0.139      338.985       12.008      865.918
01/10/2014  16:53:00       27.456       20.424       33.118       24.537       17.398       15.987      602.078      302.703      255.587        0.171        0.058       34.219       15.813        0.214      338.962       11.972      865.891
01/10/2014  16:54:00       14.892       42.335       43.464       16.758       14.906       13.102      280.820      222.175      171.665        0.229        0.034       44.878       10.247        0.052      338.953       11.955      865.875
01/10/2014  16:55:00       12.765       37.776       47.805       18.006       17.334        7.953      324.216      300.463       63.246        0.228        0.034       39.874        7.923        0.039      338.973       11.989      865.860
01/10/2014  16:56:00       31.428       43.898       44.386       24.864       15.317       16.597      618.242      234.619      275.466        0.301        0.056       53.988       13.307        0.061      338.963       11.973      865.860
01/10/2014  16:57:00       18.626       24.440       40.904       24.350       16.740       11.667      592.925      280.220      136.111        0.181        0.050       30.729        8.820        0.082      338.929       11.915      865.863
01/10/2014  16:58:00       35.306        5.899       21.265       29.711       23.002       16.612      882.727      529.077      275.959        0.171        0.084       35.795       13.411        0.140      338.926       11.909      865.861
01/10/2014  16:59:00       36.407        6.039       16.462       20.656       13.739       15.400      426.652      188.772      237.171        0.124        0.043       36.904       11.625        0.099      338.928       11.912      865.856
01/10/2014  17:00:00       31.499        3.141        4.142       24.072       14.555       10.409      579.476      211.839      108.351        0.096        0.045       31.655       12.640        0.159      338.941       11.935      865.845
01/10/2014  17:01:00       34.489       -6.609        4.212       16.104       10.998        7.370      259.335      120.946       54.321        0.084        0.022       35.116        6.554        0.035      338.942       11.937      865.825
01/10/2014  17:02:00       11.485        1.110        0.550        6.887        6.787        5.721       47.433       46.061       32.726        0.013        0.006       11.538        2.115        0.034      338.940       11.933      865.801
01/10/2014  17:03:00        4.018        3.491        2.086       11.461        6.848        5.944      131.344       46.889       35.332        0.012        0.011        5.322        5.470        1.056      338.939       11.933      865.789
01/10/2014  17:04:00      -23.244      -21.409       -2.464       10.197       11.505        5.435      103.977      132.363       29.534        0.064        0.013       31.601        3.666        0.013      338.582       11.330      865.773
01/10/2014  17:05:00      -55.141      -10.234      -10.025       16.552       10.163        7.503      273.966      103.291       56.295        0.184        0.022       56.083        6.624        0.014      338.467       11.138      865.772
01/10/2014  17:06:00      -60.697      -11.667       -7.299       18.581       15.876        7.710      345.271      252.033       59.445        0.226        0.033       61.808        6.067        0.010      338.338       10.922      865.768
01/10/2014  17:07:00      -61.113       10.337      -13.200       15.112        7.983        5.268      228.369       63.730       27.748        0.217        0.016       61.981        3.843        0.004      338.352       10.947      865.760
01/10/2014  17:08:00      -61.327        9.633       -7.953        9.133        6.443        6.012       83.417       41.517       36.146        0.204        0.008       62.079        2.706        0.002      338.222       10.726      865.758
01/10/2014  17:09:00      -59.715        3.253      -11.261        8.349        3.965        4.596       69.698       15.721       21.119        0.190        0.005       59.804        1.868        0.001      338.471       11.146      865.754
01/10/2014  17:10:00      -60.037        3.989      -11.524       12.918        5.209        6.179      166.881       27.129       38.179        0.199        0.012       60.169        2.652        0.002      338.292       10.844      865.752
01/10/2014  17:11:00      -80.749       -4.197      -16.970        9.796       11.103        7.916       95.956      123.287       62.661        0.355        0.014       80.858        5.555        0.005      338.163       10.628      865.752
01/10/2014  17:12:00      -69.016       -6.558      -12.003       11.243        7.494        9.745      126.405       56.163       94.971        0.261        0.014       69.327        4.403        0.004      338.135       10.582      865.747
01/10/2014  17:13:00      -70.271      -16.925      -10.850       13.094       14.426       10.497      171.445      208.116      110.186        0.292        0.024       72.280       10.052        0.019      338.113       10.543      865.732
01/10/2014  17:14:00      -86.643        6.539      -12.386       21.971       20.286       14.091      482.724      411.535      198.555        0.440        0.055       86.890        7.139        0.007      337.969       10.301      865.714
01/10/2014  17:15:00      -77.133        8.965      -19.323       20.825       18.209       11.610      433.667      331.584      134.784        0.365        0.045       77.653        6.930        0.008      337.888       10.167      865.687
01/10/2014  17:16:00      -70.561       -5.332      -11.951       15.371       14.829       12.143      236.268      219.893      147.460        0.288        0.030       70.762        9.594        0.018      337.791       10.004      865.682
01/10/2014  17:17:00      -71.149       -3.269      -11.123       17.747       11.589       10.770      314.972      134.305      115.984        0.288        0.028       71.224        9.424        0.018      337.776        9.978      865.673
01/10/2014  17:18:00      -71.052      -30.937      -16.358       25.232       20.988       15.949      636.671      440.492      254.355        0.380        0.067       77.495        9.946        0.016      337.859       10.116      865.676
01/10/2014  17:19:00      -86.406      -24.301      -14.127       17.618       22.602       14.001      310.397      510.845      196.021        0.464        0.051       89.758        9.012        0.010      337.754        9.942      865.687
01/10/2014  17:20:00     -100.599      -30.604      -11.633       34.267       22.398       18.963     1174.222      501.688      359.585        0.661        0.102      105.151       15.781        0.023      337.680        9.818      865.679
01/10/2014  17:21:00      -89.044      -20.049       -6.886       37.390       31.573       19.617     1397.990      996.859      384.838        0.558        0.139       91.273       18.770        0.042      337.581        9.651      865.680
01/10/2014  17:22:00      -45.084        1.654       -1.001       53.178       26.894       25.410     2827.915      723.286      645.662        0.312        0.210       45.114       29.142        0.417      337.593        9.672      865.671
01/10/2014  17:23:00      -57.959        8.282      -11.105       52.000       40.640       24.993     2703.967     1651.576      624.654        0.426        0.249       58.548       26.312        0.202      337.668        9.798      865.676
01/10/2014  17:24:00     -132.035        0.272       -1.332       52.563       43.935       31.104     2762.896     1930.289      967.428        1.155        0.283      132.035       28.778        0.048      337.527        9.561      865.678
01/10/2014  17:25:00     -133.464        9.369       -7.239       58.981       28.835       25.387     3478.796      831.450      644.503        1.145        0.248      133.793       28.413        0.045      337.372        9.302      865.670
01/10/2014  17:26:00     -150.011        8.235      -20.305       31.358       32.229       18.686      983.353     1038.739      349.155        1.268        0.119      150.237       14.370        0.009      337.370        9.298      865.679
01/10/2014  17:27:00     -105.185        7.333       -1.628       59.745       27.144       24.783     3569.476      736.804      614.188        0.802        0.246      105.440       29.449        0.078      337.383        9.319      865.673
01/10/2014  17:28:00      -88.940        0.213       -3.850       48.043       36.123       22.321     2308.162     1304.854      498.240        0.602        0.206       88.940       25.961        0.085      337.404        9.357      865.659
01/10/2014  17:29:00      -91.127      -31.303       -0.893       31.133       30.265       19.234      969.255      915.983      369.956        0.577        0.113       96.354       16.875        0.031      337.381        9.317      865.664
01/10/2014  17:30:00      -81.415      -46.428       -2.152       25.720       21.112       16.806      661.520      445.705      282.425        0.509        0.069       93.723       14.566        0.024      337.436        9.409      865.656
01/10/2014  17:31:00      -70.312      -46.350      -10.327       41.230       25.245       17.367     1699.877      637.325      301.622        0.492        0.132       84.215       13.325        0.025      337.409        9.363      865.649
01/10/2014  17:32:00      -43.804      -26.124        5.898       27.064       19.193       21.427      732.471      368.386      459.108        0.210        0.078       51.002       17.966        0.124      337.303        9.186      865.652
01/10/2014  17:33:00      -56.702      -27.650       -3.443       25.734       19.039       12.289      662.263      362.500      151.029        0.258        0.059       63.085       11.456        0.033      337.244        9.088      865.652
01/10/2014  17:34:00      -77.577      -29.460      -10.121       20.766       16.049        9.002      431.239      257.567       81.032        0.388        0.038       82.983       11.135        0.018      337.271        9.134      865.650
01/10/2014  17:35:00      -88.310      -41.310       -5.306       22.075       13.450       14.874      487.327      180.912      221.228        0.521        0.044       97.494       13.699        0.020      337.199        9.013      865.651
01/10/2014  17:36:00     -101.558      -38.434      -12.550       12.765       17.544       10.447      162.952      307.786      109.133        0.626        0.029      108.587        6.044        0.003      337.234        9.071      865.651
01/10/2014  17:37:00      -97.711      -42.658       -9.400       21.214       17.624       11.809      450.044      310.615      139.445        0.618        0.045      106.616        4.696        0.002      337.222        9.050      865.668
01/10/2014  17:38:00      -94.598      -24.214       -3.427       28.257       21.128       15.619      798.456      446.409      243.946        0.552        0.074       97.648       14.709        0.023      337.099        8.844      865.674
01/10/2014  17:39:00      -96.983      -28.229       -7.056       27.408       24.902       14.241      751.191      620.133      202.804        0.591        0.079      101.008       14.770        0.021      337.031        8.731      865.684
01/10/2014  17:40:00      -83.780      -35.784       -3.857       22.393       17.444       15.193      501.467      304.284      230.834        0.468        0.052       91.102       10.410        0.013      337.020        8.710      865.696
01/10/2014  17:41:00      -94.672      -32.510       -3.433       17.830       21.719       16.592      317.897      471.695      275.309        0.555        0.053      100.099       10.568        0.011      337.076        8.805      865.698
01/10/2014  17:42:00      -91.869      -36.707       -2.208       17.071       17.854       14.085      291.420      318.779      198.391        0.530        0.040       98.931       10.512        0.011      337.132        8.900      865.713
01/10/2014  17:43:00     -105.671      -26.438       -7.156       18.996       13.212       12.201      360.833      174.567      148.864        0.630        0.034      108.928       11.290        0.011      337.083        8.816      865.730
01/10/2014  17:44:00      -88.188       -4.492       -7.666       27.010       18.536       15.174      729.518      343.581      230.247        0.458        0.065       88.303       13.266        0.023      337.046        8.755      865.740
01/10/2014  17:45:00      -76.679      -11.144       -2.021       28.511       17.137       16.553      812.881      293.694      273.986        0.369        0.069       77.484       15.041        0.038      336.994        8.667      865.751
01/10/2014  17:46:00      -60.088      -10.455       -1.765       24.879       18.791       13.441      618.940      353.091      180.662        0.244        0.058       60.991        9.233        0.023      336.935        8.570      865.764
01/10/2014  17:47:00     -100.499       15.720       -7.868       33.006       24.903       16.146     1089.413      620.178      260.700        0.619        0.099      101.721       13.011        0.016      336.986        8.655      865.779
01/10/2014  17:48:00     -102.104       -3.288      -13.670       25.675       21.612       12.764      659.210      467.066      162.912        0.596        0.064      102.157       11.817        0.013      336.940        8.579      865.773
01/10/2014  17:49:00      -61.040       11.403       -4.372       39.434       24.614       16.558     1555.061      605.862      274.183        0.315        0.122       62.097       17.671        0.081      337.003        8.682      865.780
01/10/2014  17:50:00      -79.783        9.158       -3.519       28.692       27.495       18.356      823.211      755.992      336.954        0.419        0.096       80.307       14.009        0.030      337.067        8.788      865.773
01/10/2014  17:51:00      -61.685        4.952       -2.682       49.193       21.878       19.752     2419.991      478.628      390.145        0.356        0.164       61.883       22.867        0.137      337.081        8.814      865.765
01/10/2014  17:52:00      -77.527      -26.588       -5.589       31.242       23.733       13.960      976.085      563.245      194.870        0.424        0.087       81.959       15.400        0.035      337.055        8.770      865.767
01/10/2014  17:53:00      -84.499       -7.097       -7.692       26.779       19.749       14.652      717.112      390.006      214.673        0.429        0.066       84.796       12.401        0.021      337.084        8.819      865.758
01/10/2014  17:54:00      -69.564      -15.660       -5.122       24.613       28.244       14.071      605.787      797.733      197.999        0.336        0.080       71.305       12.213        0.029      337.059        8.777      865.760
01/10/2014  17:55:00      -75.362      -35.177       -2.003       25.998       24.850       11.112      675.916      617.501      123.466        0.417        0.071       83.168       10.452        0.016      336.951        8.596      865.760
01/10/2014  17:56:00     -110.024      -48.624       -8.436       17.749       18.793       12.655      315.033      353.159      160.154        0.768        0.041      120.289        6.497        0.003      336.942        8.581      865.758
01/10/2014  17:57:00      -84.531      -35.585       -1.860       29.467       21.823       17.116      868.319      476.240      292.961        0.503        0.082       91.715       12.536        0.019      336.768        8.293      865.777
01/10/2014  17:58:00      -85.711       -3.713        1.700       58.415       26.745       25.977     3412.275      715.318      674.801        0.608        0.240       85.792       31.399        0.134      336.826        8.390      865.783
01/10/2014  17:59:00     -103.613        5.165       -8.458       36.548       24.019       21.862     1335.779      576.933      477.958        0.661        0.120      103.741       19.491        0.035      336.824        8.385      865.795
01/10/2014  18:00:00     -110.638       -2.259      -14.813       20.641       18.371       13.164      426.065      337.511      173.295        0.670        0.047      110.661        8.305        0.006      336.816        8.372      865.813
01/10/2014  18:01:00      -98.934      -22.649       -9.103       30.402       20.224       14.999      924.260      409.023      224.977        0.597        0.078      101.493       11.284        0.012      336.805        8.353      865.819
01/10/2014  18:02:00     -104.644       -6.237      -11.400       24.796       24.415       15.535      614.841      596.106      241.326        0.629        0.073      104.830       13.807        0.017      336.885        8.488      865.822
01/10/2014  18:03:00     -104.694       -4.906       -7.012       21.802       16.782       14.414      475.317      281.639      207.776        0.600        0.048      104.809       13.416        0.016      337.024        8.718      865.821
01/10/2014  18:04:00      -93.689      -14.439       -2.723       23.189       21.771       14.990      537.734      473.964      224.699        0.511        0.062       94.795       13.786        0.021      337.014        8.701      865.824
01/10/2014  18:05:00      -90.856      -28.769       -3.275       15.483       13.912        9.696      239.733      193.548       94.014        0.481        0.026       95.302        6.868        0.005      337.007        8.690      865.837
01/10/2014  18:06:00      -83.422      -45.148       -4.376       24.183       20.949       13.358      584.821      438.844      178.447        0.511        0.060       94.855       13.005        0.019      337.097        8.842      865.841
01/10/2014  18:07:00      -93.529      -48.164        0.100       26.630       19.663       12.040      709.183      386.629      144.951        0.615        0.062      105.202       11.139        0.011      337.105        8.853      865.844
01/10/2014  18:08:00      -88.630      -36.871       -5.533       18.398       23.977       13.711      338.469      574.884      187.989        0.517        0.055       95.993       11.848        0.015      337.030        8.728      865.854
01/10/2014  18:09:00      -91.085      -42.949       -4.524       22.308       23.607       11.951      497.666      557.288      142.831        0.568        0.060      100.703        6.801        0.005      337.016        8.704      865.855
01/10/2014  18:10:00      -44.965      -37.323        7.926       34.705       25.481       17.253     1204.456      649.270      297.663        0.281        0.108       58.437       19.346        0.110      336.860        8.445      865.865
01/10/2014  18:11:00      -62.162      -55.756        1.721       38.919       33.380       14.536     1514.667     1114.257      211.284        0.491        0.142       83.503       19.693        0.056      336.916        8.537      865.874
01/10/2014  18:12:00      -90.484      -60.804       -4.597       26.124       27.730       17.469      682.453      768.952      305.159        0.683        0.088      109.016        9.380        0.007      336.940        8.578      865.869
01/10/2014  18:13:00      -87.632      -64.099        5.615       43.647       28.968       22.546     1905.020      839.154      508.338        0.754        0.163      108.573       20.289        0.035      336.880        8.478      865.885
01/10/2014  18:14:00      -90.369      -80.394        3.216       57.619       45.208       31.555     3319.970     2043.761      995.712        1.050        0.318      120.954       27.838        0.053      336.914        8.534      865.883
01/10/2014  18:15:00      -98.330      -70.246       -0.515       38.639       41.037       28.386     1492.935     1684.060      805.790        0.929        0.199      120.844       22.708        0.035      336.866        8.453      865.893
01/10/2014  18:16:00     -114.259      -66.571        0.688       39.027       35.891       23.539     1523.112     1288.170      554.074        1.043        0.168      132.238       20.207        0.023      337.013        8.701      865.896
01/10/2014  18:17:00      -89.715      -61.948        5.701       44.861       42.739       25.265     2012.544     1826.657      638.319        0.820        0.224      109.025       24.539        0.051      337.020        8.713      865.894
01/10/2014  18:18:00     -107.090      -72.054        0.311       44.050       31.114       20.000     1940.389      968.107      400.018        0.998        0.165      129.074       17.700        0.019      337.096        8.840      865.901
01/10/2014  18:19:00     -139.727      -58.026       -8.612       37.255       25.716       19.760     1387.937      661.295      390.474        1.270        0.122      151.296       17.037        0.013      337.108        8.860      865.889
01/10/2014  18:20:00     -108.213      -36.720        0.971       39.254       32.962       21.352     1540.894     1086.489      455.914        0.807        0.154      114.273       22.344        0.038      337.006        8.687      865.877
01/10/2014  18:21:00      -79.075      -19.306        1.825       36.157       25.076       15.870     1307.335      628.808      251.852        0.441        0.109       81.397       18.295        0.051      336.849        8.428      865.867
01/10/2014  18:22:00      -84.826      -18.576       -7.115       24.177       28.768       15.950      584.541      827.601      254.390        0.463        0.083       86.836       13.519        0.024      336.799        8.345      865.865
01/10/2014  18:23:00      -73.187      -18.047       -6.337       31.647       22.082       13.091     1001.544      487.631      171.369        0.369        0.083       75.380       13.571        0.032      336.766        8.290      865.866
01/10/2014  18:24:00      -93.360      -10.367       -6.794       20.163       23.317       15.711      406.554      543.692      246.828        0.503        0.060       93.934       11.338        0.015      336.736        8.239      865.863
01/10/2014  18:25:00     -119.451       -9.414       -9.001       29.863       24.071       17.489      891.797      579.395      305.859        0.811        0.089      119.821       13.909        0.013      336.672        8.134      865.865
01/10/2014  18:26:00     -110.626        0.101       -6.388       42.535       29.864       23.861     1809.214      891.884      569.368        0.777        0.164      110.626       21.993        0.040      336.638        8.076      865.855
01/10/2014  18:27:00     -122.384      -17.773       -9.598       44.758       22.347       24.509     2003.318      499.377      600.710        0.924        0.155      123.668       24.925        0.041      336.631        8.065      865.853
01/10/2014  18:28:00     -143.118      -22.889      -15.014       33.200       23.443       17.900     1102.268      549.558      320.409        1.160        0.099      144.937       14.501        0.010      336.647        8.091      865.862
01/10/2014  18:29:00     -103.167      -16.140       -2.715       36.008       27.055       24.009     1296.544      731.988      576.429        0.676        0.130      104.422       23.021        0.049      336.624        8.052      865.866
01/10/2014  18:30:00     -139.646       -6.240       -9.704       44.791       30.501       25.340     2006.265      930.323      642.141        1.161        0.179      139.786       22.303        0.025      336.693        8.166      865.859
01/10/2014  18:31:00     -145.166      -13.062      -10.206       38.009       31.116       18.895     1444.688      968.232      357.039        1.206        0.138      145.753       21.699        0.022      336.758        8.276      865.875
01/10/2014  18:32:00     -113.180      -23.153       -5.845       61.607       42.941       22.297     3795.450     1843.936      497.161        0.976        0.307      115.524       24.951        0.047      336.754        8.268      865.885
01/10/2014  18:33:00     -149.560      -27.532      -17.261       36.301       34.348       19.450     1317.769     1179.766      378.289        1.315        0.144      152.073       15.361        0.010      336.793        8.334      865.904
01/10/2014  18:34:00      -84.592      -27.047       -3.154       33.422       25.753       21.276     1117.035      663.235      452.677        0.506        0.112       88.811       12.884        0.021      336.803        8.350      865.938
01/10/2014  18:35:00      -62.818      -17.552       -5.292       42.924       19.649       17.909     1842.445      386.095      320.715        0.342        0.127       65.224       21.980        0.114      336.848        8.426      865.962
01/10/2014  18:36:00      -74.696      -33.884       -1.893       21.401       29.562       15.738      458.010      873.902      247.675        0.416        0.079       82.022       10.742        0.017      336.876        8.472      865.972
01/10/2014  18:37:00      -66.298      -20.590        0.724       20.443       17.600       12.461      417.930      309.777      155.288        0.285        0.044       69.421       12.101        0.030      336.935        8.570      865.988
01/10/2014  18:38:00      -18.166      -21.335        3.661       17.962       12.279       16.250      322.623      150.773      264.071        0.077        0.037       28.021       13.608        0.236      336.888        8.491      866.002
01/10/2014  18:39:00      -14.080       -7.851        1.000       26.668       13.834       11.689      711.177      191.379      136.622        0.065        0.052       16.121       14.955        0.861      336.955        8.602      866.005
01/10/2014  18:40:00       -3.556       -4.920        3.259        7.029        8.092        7.147       49.410       65.481       51.075        0.011        0.008        6.070        5.390        0.788      336.920        8.546      866.009
01/10/2014  18:41:00      -23.998      -11.410        3.771       15.043        9.242       10.264      226.296       85.418      105.355        0.057        0.021       26.573       10.907        0.168      337.000        8.677      866.027
01/10/2014  18:42:00      -34.736       -8.094       -2.275       15.644        9.740        9.339      244.735       94.868       87.222        0.085        0.021       35.666        8.713        0.060      337.066        8.787      866.037
01/10/2014  18:43:00      -49.180        6.418       -7.417        9.514        8.992        7.167       90.507       80.855       51.371        0.137        0.011       49.597        4.147        0.007      337.075        8.801      866.040
01/10/2014  18:44:00      -55.289       14.727       -4.742        7.910        8.345        6.215       62.570       69.638       38.624        0.173        0.009       57.216        2.602        0.002      337.076        8.804      866.037
01/10/2014  18:45:00      -55.117        4.613       -4.369       14.272       11.811        8.189      203.680      139.493       67.068        0.174        0.021       55.309        6.792        0.015      336.940        8.579      866.036
01/10/2014  18:46:00      -44.064        2.184       -5.910        9.671        6.753        5.733       93.526       45.597       32.863        0.108        0.009       44.118        5.681        0.017      336.877        8.474      866.017
01/10/2014  18:47:00      -42.688      -22.957       -5.507       11.247        6.664        4.618      126.492       44.406       21.329        0.129        0.010       48.470        3.335        0.005      336.810        8.362      866.003
01/10/2014  18:48:00      -50.708      -19.879       -4.257       12.625        6.748        4.358      159.379       45.531       18.996        0.160        0.011       54.465        3.202        0.003      336.777        8.306      866.000
01/10/2014  18:49:00      -71.929      -11.016       -7.081       13.859        9.119        5.672      192.082       83.161       32.172        0.283        0.015       72.767        5.556        0.006      336.790        8.329      866.011
01/10/2014  18:50:00      -81.776      -18.865      -12.901        9.553        8.638        6.749       91.268       74.621       45.555        0.371        0.011       83.924        4.440        0.003      336.649        8.092      866.011
01/10/2014  18:51:00      -54.194      -33.923      -12.610        9.440        7.040        5.832       89.119       49.568       34.016        0.221        0.009       63.935        3.049        0.002      336.674        8.135      866.007
01/10/2014  18:52:00      -74.959      -17.847       -8.881       11.382        9.369        5.459      129.560       87.786       29.802        0.313        0.012       77.054        1.881        0.001      336.629        8.061      865.997
01/10/2014  18:53:00      -73.809      -22.360       -5.039       10.832        7.839        5.453      117.322       61.444       29.734        0.309        0.010       77.121        4.645        0.004      336.603        8.016      865.987
01/10/2014  18:54:00      -77.423      -31.056       -5.045       11.004       10.180        5.793      121.091      103.641       33.562        0.362        0.013       83.419        1.411        0.000      336.776        8.305      865.982
01/10/2014  18:55:00      -82.369      -44.179       -0.618       16.332       14.838        9.806      266.732      220.174       96.165        0.466        0.029       93.469        9.064        0.009      336.787        8.323      865.986
01/10/2014  18:56:00      -68.871      -37.343       -2.055       10.507       11.405        5.977      110.404      130.064       35.726        0.321        0.014       78.344        2.735        0.001      336.762        8.281      865.985
01/10/2014  18:57:00      -56.600      -31.167       -1.944       15.415       13.031        6.818      237.628      169.802       46.487        0.232        0.023       64.613        5.728        0.008      336.917        8.541      865.988
01/10/2014  18:58:00      -32.060      -32.374       -3.815        9.566        7.017        4.827       91.517       49.234       23.297        0.113        0.008       45.563        3.289        0.005      336.917        8.539      865.997
01/10/2014  18:59:00      -17.399      -26.243       -2.929        8.728        9.238        6.461       76.184       85.346       41.748        0.060        0.010       31.487        1.791        0.003      337.019        8.710      866.010
01/10/2014  19:00:00        6.102      -17.738       -0.536       12.447       10.204        5.647      154.928      104.124       31.886        0.032        0.015       18.759        6.113        0.106      337.184        8.989      866.023
01/10/2014  19:01:00       17.476        6.866        6.426        6.629        9.993        7.449       43.944       99.867       55.482        0.030        0.010       18.777        4.751        0.064      337.056        8.771      866.024
01/10/2014  19:02:00       39.049       30.974       16.808       14.493       11.042       13.844      210.045      121.935      191.646        0.165        0.026       49.842        6.555        0.017      336.931        8.562      866.026
01/10/2014  19:03:00       26.109       26.095       32.877       15.932       14.725       10.333      253.836      216.815      106.761        0.151        0.029       36.914        6.775        0.034      336.803        8.352      866.033
01/10/2014  19:04:00       14.012        7.435       14.181       11.399        9.352       13.354      129.929       87.454      178.340        0.042        0.020       15.862       11.594        0.534      336.794        8.337      866.044
01/10/2014  19:05:00       17.849       -7.543       -1.058       12.042        9.197        7.971      145.007       84.584       63.533        0.033        0.015       19.378        7.226        0.139      336.984        8.651      866.058
01/10/2014  19:06:00       16.341      -17.620        5.867       18.846       19.666       11.640      355.171      386.732      135.498        0.074        0.044       24.031       12.958        0.291      337.058        8.775      866.063
01/10/2014  19:07:00       -1.693      -19.843        5.406        9.318       10.047        9.937       86.827      100.940       98.752        0.036        0.014       19.915        3.701        0.035      337.108        8.858      866.064
01/10/2014  19:08:00      -29.306      -14.127       -3.593       27.727       16.723       10.482      768.782      279.662      109.870        0.111        0.058       32.533       12.382        0.145      337.067        8.791      866.062
01/10/2014  19:09:00      -29.430      -26.742       -6.196       23.397        8.651        6.069      547.424       74.847       36.828        0.114        0.033       39.765        6.206        0.024      336.783        8.317      866.057
01/10/2014  19:10:00       -0.001      -15.995       -3.272       25.624       11.829       13.226      656.601      139.917      174.921        0.062        0.049       15.995        6.922        0.187      337.006        8.690      866.045
01/10/2014  19:11:00      -47.436      -44.048        2.721       45.560       25.350       13.795     2075.679      642.620      190.290        0.355        0.145       64.733       17.114        0.070      336.852        8.432      866.044
01/10/2014  19:12:00      -78.614      -80.460        3.620       34.235       31.162       25.110     1172.054      971.058      630.517        0.772        0.139      112.490       20.714        0.034      336.948        8.592      866.036
01/10/2014  19:13:00      -60.657      -70.127        0.801       31.482       38.540       22.721      991.143     1485.304      516.264        0.579        0.150       92.721       20.853        0.051      337.096        8.839      866.013
01/10/2014  19:14:00      -91.545      -76.590        0.808       47.489       28.099       22.324     2255.208      789.529      498.357        0.889        0.177      119.359       23.655        0.039      336.926        8.554      866.004
01/10/2014  19:15:00      -87.665      -69.952       -1.582       31.738       34.191       22.118     1007.311     1169.002      489.200        0.762        0.133      112.154       23.447        0.044      336.916        8.538      865.993
01/10/2014  19:16:00      -66.881      -59.803        1.083       36.610       31.567       18.562     1340.282      996.503      344.549        0.537        0.134       89.719       18.679        0.043      336.833        8.400      865.984
01/10/2014  19:17:00      -44.854      -34.381       11.222       48.223       25.192       14.070     2325.452      634.656      197.953        0.324        0.158       56.515       17.295        0.094      336.756        8.272      865.985
01/10/2014  19:18:00      -37.423      -16.150       -4.161       20.679       13.251       13.448      427.630      175.602      180.850        0.123        0.039       40.759        9.763        0.057      336.730        8.228      865.995
01/10/2014  19:19:00      -16.986        3.200       -0.205        9.753        8.132        7.950       95.127       66.130       63.197        0.026        0.011       17.285        6.597        0.146      336.677        8.139      866.009
01/10/2014  19:20:00        3.974        6.952        6.998        9.066        4.529        6.943       82.199       20.513       48.204        0.013        0.008        8.007        2.178        0.074      336.670        8.129      866.012
01/10/2014  19:21:00       13.483       11.451       -2.644       18.233        9.300        7.928      332.443       86.496       62.850        0.040        0.024       17.690        4.545        0.066      336.694        8.168      866.014
01/10/2014  19:22:00       51.873       36.519       16.230       24.213       15.135       19.237      586.276      229.073      370.060        0.274        0.059       63.438       12.195        0.037      336.545        7.919      866.016
01/10/2014  19:23:00       88.601       57.830       31.831       36.951       26.601       26.373     1365.375      707.589      695.530        0.749        0.138      105.804       16.279        0.024      336.559        7.943      866.032
01/10/2014  19:24:00       64.518      111.109       97.658       51.574       39.758       30.619     2659.897     1580.718      937.526        1.561        0.259      128.482       21.026        0.027      336.617        8.041      866.054
01/10/2014  19:25:00       97.981       69.031       52.971       48.863       45.221       45.486     2387.578     2044.933     2068.967        1.184        0.325      119.857       33.818        0.080      336.393        7.666      866.089
01/10/2014  19:26:00       57.741       24.471       20.796       38.791       28.224       27.396     1504.712      796.588      750.543        0.371        0.153       62.712       15.672        0.062      336.338        7.574      866.106
01/10/2014  19:27:00       41.567        3.322       24.224       41.247       19.655       20.090     1701.276      386.313      403.592        0.241        0.125       41.699       19.750        0.224      336.517        7.872      866.113
01/10/2014  19:28:00       22.946       14.962       37.849       25.901       24.655       12.972      670.876      607.890      168.275        0.181        0.072       27.393       14.123        0.266      336.818        8.375      866.119
01/10/2014  19:29:00       25.838      -27.797       15.136       25.964       29.253       19.177      674.103      855.759      367.768        0.178        0.095       37.951       19.427        0.262      336.934        8.567      866.112
01/10/2014  19:30:00       21.085      -57.421        5.910       16.424       20.274       14.270      269.732      411.039      203.641        0.233        0.044       61.170        5.994        0.010      336.985        8.653      866.102
01/10/2014  19:31:00       17.708      -15.866       12.634       17.084       22.037       14.336      291.865      485.633      205.529        0.085        0.049       23.776       14.387        0.366      336.890        8.495      866.103
01/10/2014  19:32:00       27.458       21.864       17.831       11.235       11.711        9.884      126.219      137.151       97.686        0.096        0.018       35.099        8.180        0.054      336.874        8.469      866.101
01/10/2014  19:33:00       55.680       38.155       11.444       10.577        8.395        8.670      111.878       70.483       75.166        0.247        0.013       67.499        5.949        0.008      336.865        8.454      866.088
01/10/2014  19:34:00       38.196       40.957        5.107       26.151       11.795       10.126      683.865      139.127      102.532        0.204        0.046       56.004        6.322        0.013      336.735        8.238      866.091
01/10/2014  19:35:00       28.310       33.633        4.311       14.979       17.823       14.196      224.356      317.650      201.537        0.135        0.037       43.962       10.339        0.055      336.614        8.034      866.097
01/10/2014  19:36:00       28.231       29.773        0.297       14.908       17.382       13.567      222.257      302.146      184.055        0.120        0.035       41.029        9.965        0.059      336.600        8.012      866.107
01/10/2014  19:37:00        9.957       15.030        2.624       10.499       15.625        8.370      110.233      244.130       70.063        0.038        0.021       18.029        8.344        0.214      336.572        7.965      866.113
01/10/2014  19:38:00       10.376       27.130       -3.990       13.699       18.596        8.846      187.674      345.809       78.256        0.074        0.031       29.047        8.804        0.092      336.517        7.870      866.114
01/10/2014  19:39:00       -7.491       61.684       -9.857       13.975       26.088        8.744      195.294      680.563       76.463        0.246        0.048       62.137       10.932        0.031      336.542        7.914      866.130
01/10/2014  19:40:00      -17.197       61.295      -10.780       10.833       14.972        8.438      117.348      224.173       71.202        0.229        0.021       63.662        4.452        0.005      336.624        8.051      866.144
01/10/2014  19:41:00      -13.600       13.352       -4.013       11.061        9.245       10.161      122.344       85.471      103.253        0.035        0.016       19.059        6.828        0.128      336.652        8.100      866.156
01/10/2014  19:42:00      -17.935       14.665       -0.613       13.982        7.534        7.903      195.488       56.768       62.460        0.043        0.016       23.167        5.920        0.065      336.508        7.857      866.164
01/10/2014  19:43:00       13.821       37.100       -3.121       14.459       22.292        9.723      209.076      496.942       94.529        0.119        0.040       39.591       11.243        0.081      336.712        8.198      866.171
01/10/2014  19:44:00       39.368       55.546       -4.496       18.930       23.813       15.108      358.332      567.037      228.239        0.290        0.058       68.082       13.025        0.037      336.669        8.129      866.181
01/10/2014  19:45:00       33.633       39.873        0.342       22.682       20.949       15.573      514.460      438.850      242.513        0.196        0.060       52.163       12.625        0.059      336.629        8.060      866.188
01/10/2014  19:46:00       39.261       32.774       10.329       19.655       12.654       14.631      386.308      160.119      214.066        0.174        0.038       51.143       10.610        0.043      336.632        8.065      866.196
01/10/2014  19:47:00       47.179       29.104       11.330       11.910        9.736       11.250      141.856       94.783      126.566        0.178        0.018       55.434        8.171        0.022      336.621        8.046      866.204
01/10/2014  19:48:00       32.325       18.459        2.068       13.904       19.096       14.416      193.329      364.660      207.819        0.108        0.038       37.224        9.139        0.060      336.515        7.870      866.220
01/10/2014  19:49:00       51.035       23.384        5.306       17.180       16.603        9.872      295.168      275.648       97.455        0.192        0.033       56.137        8.322        0.022      336.400        7.676      866.232
01/10/2014  19:50:00       59.447       22.543        6.157       19.493       15.396       13.645      379.993      237.042      186.185        0.244        0.040       63.577        8.771        0.019      336.394        7.667      866.235
01/10/2014  19:51:00       47.084       12.104       10.953       19.462       10.098       11.554      378.772      101.973      133.493        0.155        0.031       48.615        7.171        0.022      336.464        7.781      866.239
01/10/2014  19:52:00       28.462        2.768       10.511       11.862       11.526       10.598      140.716      132.842      112.326        0.066        0.019       28.596        7.041        0.061      336.497        7.839      866.250
01/10/2014  19:53:00       -7.137       -2.843        5.138        7.188        7.256        4.542       51.664       52.650       20.631        0.011        0.006        7.683        2.520        0.108      336.384        7.649      866.261
01/10/2014  19:54:00      -28.845      -22.862       -3.426        9.996       10.496        5.785       99.922      110.160       33.471        0.080        0.012       36.807        4.354        0.014      336.047        7.086      866.267
01/10/2014  19:55:00      -52.063      -14.048       -9.622        9.295        8.196        5.801       86.399       67.173       33.653        0.159        0.009       53.924        3.763        0.005      335.953        6.929      866.269
01/10/2014  19:56:00      -74.593      -15.196      -10.573       12.975       10.235        6.288      168.342      104.752       39.535        0.311        0.016       76.125        3.488        0.002      335.788        6.656      866.263
01/10/2014  19:57:00     -115.460      -10.023      -12.192       27.779       16.610       15.726      771.679      275.908      247.311        0.744        0.065      115.894       17.058        0.022      335.691        6.494      866.259
01/10/2014  19:58:00     -103.814      -34.437       -8.965       27.679       21.353       16.913      766.127      455.943      286.056        0.678        0.075      109.376       13.782        0.016      335.697        6.505      866.257
01/10/2014  19:59:00     -115.545      -24.016      -14.455       26.047       17.406       19.037      678.450      302.979      362.393        0.774        0.067      118.015       17.080        0.021      335.646        6.417      866.262
01/10/2014  20:00:00     -113.574      -32.273      -11.745       17.863       17.926       12.239      319.080      321.337      149.802        0.743        0.040      118.071       10.133        0.007      335.714        6.533      866.282
01/10/2014  20:01:00     -114.757      -28.302      -16.974       19.977       20.201       12.374      399.076      408.083      153.126        0.761        0.048      118.195        8.098        0.005      335.781        6.642      866.293
01/10/2014  20:02:00     -115.130      -30.123       -1.339       29.577       20.454       15.178      874.783      418.349      230.385        0.784        0.076      119.006       11.953        0.010      335.736        6.569      866.312
01/10/2014  20:03:00     -150.419      -31.613      -13.676       21.776       20.220       19.468      474.212      408.868      378.984        1.254        0.063      153.705       16.485        0.012      335.650        6.425      866.333
01/10/2014  20:04:00     -148.712      -38.875      -13.491       17.235       20.369       16.183      297.033      414.909      261.875        1.239        0.049      153.709        6.312        0.002      335.548        6.256      866.352
01/10/2014  20:05:00     -143.313      -44.792      -16.528       21.103       21.948       15.905      445.340      481.705      252.957        1.200        0.059      150.150        7.668        0.003      335.535        6.234      866.373
01/10/2014  20:06:00     -125.197      -46.943       -1.705       32.613       31.240       18.256     1063.630      975.934      333.271        1.013        0.119      133.708       10.979        0.007      335.531        6.227      866.394
01/10/2014  20:07:00     -153.828      -68.372       -0.120       38.909       27.297       17.963     1513.891      745.147      322.659        1.546        0.129      168.339       15.748        0.009      335.699        6.507      866.412
01/10/2014  20:08:00     -158.336      -53.901       -1.934       52.748       32.933       27.765     2782.343     1084.580      770.913        1.631        0.232      167.259       30.300        0.033      335.967        6.953      866.421
01/10/2014  20:09:00      -95.566      -29.813        1.409       47.444       31.808       25.300     2250.932     1011.729      640.076        0.696        0.195      100.109       29.325        0.086      335.830        6.726      866.433
01/10/2014  20:10:00     -110.409      -23.133       -1.405       48.374       26.958       22.804     2340.004      726.720      520.001        0.816        0.179      112.806       24.627        0.048      335.821        6.711      866.446
01/10/2014  20:11:00     -143.905      -26.931       -2.301       39.719       34.706       22.488     1577.628     1204.538      505.693        1.236        0.164      146.404       20.699        0.020      335.843        6.747      866.473
01/10/2014  20:12:00     -138.845      -70.374       -0.956       41.308       35.397       24.665     1706.318     1252.952      608.374        1.390        0.178      155.661       22.752        0.021      335.853        6.763      866.499
01/10/2014  20:13:00     -137.248      -69.785        0.956       49.012       45.147       26.678     2402.159     2038.286      711.741        1.443        0.258      153.971       26.943        0.031      335.929        6.888      866.514
01/10/2014  20:14:00     -147.933      -62.105       -0.109       44.449       42.486       26.609     1975.699     1805.078      708.064        1.511        0.224      160.441       22.273        0.019      335.853        6.762      866.518
01/10/2014  20:15:00     -127.399      -22.452       -6.557       32.549       34.125       19.923     1059.458     1164.487      396.908        0.970        0.131      129.362       17.699        0.019      335.750        6.593      866.526
01/10/2014  20:16:00     -117.514      -43.771       -6.130       29.716       28.592       13.927      883.014      817.522      193.951        0.883        0.095      125.401       10.199        0.007      335.764        6.615      866.527
01/10/2014  20:17:00     -112.436      -16.268       -8.382       25.230       18.625       17.881      636.537      346.902      319.715        0.714        0.065      113.606       13.608        0.014      335.685        6.484      866.508
01/10/2014  20:18:00     -150.892        3.866      -14.858       30.866       16.211       16.928      952.709      262.810      286.545        1.225        0.075      150.942       14.506        0.009      335.720        6.542      866.492
01/10/2014  20:19:00     -153.672       37.741      -17.909       54.468       38.295       21.069     2966.814     1466.492      443.919        1.512        0.244      158.239       20.795        0.017      335.715        6.533      866.477
01/10/2014  20:20:00     -185.405       74.577      -17.732       44.287       34.478       32.363     1961.297     1188.765     1047.352        2.222        0.210      199.842       19.006        0.009      335.862        6.776      866.452
01/10/2014  20:21:00     -177.324       46.602      -15.704       59.486       38.843       30.560     3538.545     1508.805      933.904        1.992        0.299      183.345       28.718        0.025      335.761        6.609      866.425
01/10/2014  20:22:00     -187.814        5.867      -18.229       52.331       55.524       26.153     2738.541     3082.916      683.987        2.107        0.325      187.906       22.923        0.015      335.635        6.398      866.415
01/10/2014  20:23:00     -137.927      -32.756      -17.821       29.055       36.431       28.795      844.215     1327.218      829.138        1.171        0.150      141.763       19.138        0.018      335.548        6.255      866.419
01/10/2014  20:24:00     -135.392      -45.509      -22.537       29.074       35.431       27.706      845.285     1255.383      767.627        1.189        0.143      142.836       18.687        0.017      335.467        6.120      866.422
01/10/2014  20:25:00     -108.285      -23.180      -11.823       35.001       33.866       28.229     1225.042     1146.919      796.857        0.779        0.158      110.738       22.560        0.042      335.440        6.074      866.407
01/10/2014  20:26:00     -134.569       50.631       -8.488       33.850       30.839       26.584     1145.832      951.040      706.697        1.177        0.140      143.779       23.106        0.026      335.789        6.657      866.408
01/10/2014  20:27:00     -103.268       58.850       -4.209       43.600       30.745       28.599     1900.944      945.244      817.917        0.890        0.183      118.860       27.423        0.053      335.867        6.787      866.397
01/10/2014  20:28:00      -73.054       40.968       -7.016       40.410       25.027       16.588     1632.998      626.350      275.175        0.480        0.127       83.757       14.424        0.030      335.880        6.809      866.393
01/10/2014  20:29:00      -92.886        0.014       -6.836       33.166       38.207       17.055     1099.967     1459.747      290.890        0.576        0.143       92.886       15.412        0.028      335.826        6.717      866.407
01/10/2014  20:30:00     -112.396       -1.303       -1.751       52.740       36.056       23.549     2781.536     1300.051      554.553        0.864        0.232      112.404       25.642        0.052      335.747        6.587      866.417
01/10/2014  20:31:00      -52.604      -17.923        9.927       56.408       30.678       21.725     3181.820      941.131      471.962        0.389        0.230       55.574       20.981        0.143      335.686        6.486      866.439
01/10/2014  20:32:00      -18.063      -23.759       -3.808       21.274       16.217       16.051      452.565      263.007      257.620        0.094        0.049       29.845       10.968        0.135      335.653        6.429      866.460
01/10/2014  20:33:00        6.569      -13.459       -0.220       20.197       13.791       12.645      407.936      190.180      159.891        0.049        0.038       14.976        6.259        0.175      335.730        6.558      866.461
01/10/2014  20:34:00       -4.889      -20.922        9.270       23.944       21.494       20.737      573.336      462.008      430.013        0.101        0.073       21.485        8.688        0.164      335.665        6.451      866.457
01/10/2014  20:35:00      -40.202      -34.669        2.428       60.040       13.035       19.551     3604.815      169.922      382.238        0.349        0.208       53.086       27.019        0.259      335.572        6.295      866.461
01/10/2014  20:36:00     -126.628      -35.280      -15.216       11.551       12.473       12.841      133.416      155.569      164.885        0.898        0.023      131.451        6.509        0.002      335.605        6.351      866.458
01/10/2014  20:37:00     -121.006      -25.746      -14.523       13.374       13.494        9.287      178.865      182.086       86.242        0.798        0.022      123.715        4.658        0.001      335.693        6.497      866.453
01/10/2014  20:38:00      -78.904      -23.912       -4.501       27.373       15.157       15.632      749.269      229.745      244.365        0.402        0.061       82.448       13.144        0.025      335.633        6.398      866.459
01/10/2014  20:39:00      -74.052       -1.046       -8.406       15.019       14.727       11.383      225.578      216.874      129.580        0.306        0.029       74.059        7.649        0.011      335.660        6.441      866.471
01/10/2014  20:40:00      -71.893      -11.545       -4.927       25.332       13.943        9.018      641.735      194.409       81.318        0.312        0.046       72.814        7.411        0.010      335.672        6.463      866.473
01/10/2014  20:41:00      -77.791       -9.762       -3.155       22.678       23.107       17.598      514.280      533.928      309.676        0.376        0.068       78.401       10.672        0.019      335.646        6.419      866.475
01/10/2014  20:42:00     -100.807      -45.019       -4.198       21.585       13.852        9.224      465.922      191.865       85.075        0.647        0.037      110.403        9.533        0.007      335.674        6.464      866.482
01/10/2014  20:43:00     -102.788      -55.903       -6.198       33.159       20.204       15.549     1099.537      408.190      241.769        0.774        0.087      117.007        9.330        0.006      335.691        6.492      866.491
01/10/2014  20:44:00     -103.491      -20.861       -3.370       35.014       24.262       16.161     1225.948      588.658      261.168        0.662        0.104      105.573       17.421        0.027      335.683        6.482      866.498
01/10/2014  20:45:00     -105.470      -10.189       -4.575       24.538       14.811       14.556      602.110      219.362      211.876        0.614        0.052      105.961       13.745        0.017      335.641        6.411      866.495
01/10/2014  20:46:00     -105.870       -8.192       -8.790       16.062       11.407        8.495      257.990      130.116       72.161        0.591        0.023      106.186        4.606        0.002      335.689        6.491      866.493
01/10/2014  20:47:00      -79.631       -8.738      -11.837       16.832       12.107       10.240      283.305      146.576      104.856        0.355        0.027       80.109        9.201        0.013      335.731        6.560      866.497
01/10/2014  20:48:00      -64.707      -36.800      -11.846       16.587       18.018       11.823      275.134      324.665      139.776        0.321        0.037       74.439       10.051        0.018      335.706        6.520      866.498
01/10/2014  20:49:00      -87.613      -28.253      -17.411        9.111       12.151       10.468       83.003      147.659      109.588        0.456        0.017       92.055        6.713        0.005      335.712        6.530      866.490
01/10/2014  20:50:00      -80.355       -5.708      -18.036       16.325        8.008        7.508      266.508       64.124       56.373        0.360        0.019       80.557        5.597        0.005      335.836        6.736      866.472
01/10/2014  20:51:00      -39.589      -18.015       -5.656       13.462        8.898        7.532      181.228       79.170       56.737        0.112        0.016       43.495        7.957        0.033      335.955        6.930      866.466
01/10/2014  20:52:00      -16.435      -36.379       -9.554       12.048        6.604        6.062      145.150       43.617       36.745        0.096        0.011       39.919        4.904        0.015      335.826        6.718      866.464
01/10/2014  20:53:00      -51.410      -31.300       -7.522       15.080       10.983        6.604      227.398      120.624       43.613        0.204        0.020       60.189        4.243        0.005      335.741        6.576      866.468
01/10/2014  20:54:00      -88.224      -54.400       -0.865       25.744       18.289       16.880      662.755      334.494      284.946        0.601        0.064      103.648       12.429        0.014      335.465        6.116      866.479
01/10/2014  20:55:00      -94.654      -47.820       -5.604       22.470       21.968       15.363      504.892      482.586      236.030        0.625        0.061      106.048       11.274        0.011      335.375        5.966      866.498
01/10/2014  20:56:00      -93.550      -32.102      -10.544       15.691       26.742       10.692      246.219      715.161      114.323        0.548        0.054       98.905        7.151        0.005      335.429        6.056      866.517
01/10/2014  20:57:00      -95.658      -24.957      -15.046       13.707       16.128       12.626      187.880      260.114      159.406        0.530        0.030       98.860        9.053        0.008      335.506        6.184      866.530
01/10/2014  20:58:00      -74.292      -12.272       -9.614       14.177       12.469        8.761      201.001      155.473       76.757        0.310        0.022       75.299        8.537        0.013      335.595        6.334      866.540
01/10/2014  20:59:00      -74.052      -23.291      -10.689       10.547       12.479       10.049      111.240      155.729      100.989        0.325        0.018       77.628        6.458        0.007      335.681        6.477      866.541
01/10/2014  21:00:00      -81.294      -14.907       -7.948       15.478       11.698        8.824      239.559      136.841       77.856        0.367        0.023       82.650        6.716        0.007      335.592        6.327      866.543
01/10/2014  21:01:00     -110.170      -13.407      -11.173       23.725       11.391        8.121      562.863      129.747       65.948        0.660        0.038      110.982        9.109        0.007      335.499        6.172      866.562
01/10/2014  21:02:00      -94.873      -32.673       -9.771       19.503       17.575       12.885      380.385      308.874      166.022        0.551        0.043      100.341       12.031        0.014      335.475        6.135      866.588
01/10/2014  21:03:00      -92.924      -36.317      -11.290       14.190        9.364        8.291      201.352       87.685       68.748        0.522        0.018       99.768        8.176        0.007      335.545        6.250      866.617
01/10/2014  21:04:00      -63.642      -18.207       -9.522       15.356        8.193        7.790      235.811       67.119       60.681        0.242        0.018       66.196        2.502        0.001      335.552        6.261      866.630
01/10/2014  21:05:00      -67.959      -18.376      -12.661       10.468       11.652        8.306      109.574      135.763       68.995        0.272        0.016       70.400        5.609        0.006      335.871        6.794      866.629
01/10/2014  21:06:00     -105.940      -22.275      -11.866       21.707       10.309        7.661      471.211      106.283       58.689        0.625        0.032      108.256        5.771        0.003      335.428        6.056      866.625
01/10/2014  21:07:00     -122.803      -51.795       -6.911       28.293       25.950       23.501      800.505      673.404      552.309        0.992        0.101      133.279       19.058        0.020      335.216        5.701      866.615
01/10/2014  21:08:00      -63.149      -47.344       -1.485       30.931       22.902       18.162      956.719      524.522      329.852        0.402        0.091       78.925       16.511        0.044      335.268        5.788      866.598
01/10/2014  21:09:00      -48.505      -45.605        3.265       27.779       18.257       14.340      771.692      333.334      205.641        0.288        0.066       66.578       16.367        0.060      335.455        6.100      866.575
01/10/2014  21:10:00      -32.268      -25.449        1.478       19.345       17.274        9.917      374.232      298.384       98.345        0.123        0.039       41.096        7.183        0.031      335.523        6.212      866.567
01/10/2014  21:11:00      -55.812      -48.194       -2.349       28.594       28.131       12.354      817.617      791.347      152.617        0.360        0.088       73.740       12.173        0.027      335.622        6.379      866.567
01/10/2014  21:12:00      -83.386      -56.727        5.436       39.569       38.162       23.887     1565.734     1456.352      570.579        0.690        0.180      100.852       24.279        0.058      335.599        6.340      866.578
01/10/2014  21:13:00     -106.127      -89.425       -0.570       40.723       38.566       25.699     1658.377     1487.327      660.435        1.153        0.190      138.780       20.352        0.022      335.624        6.383      866.584
01/10/2014  21:14:00      -51.649      -50.220        5.165       27.721       23.319       15.767      768.459      543.763      248.593        0.339        0.078       72.039       17.107        0.056      335.632        6.396      866.572
01/10/2014  21:15:00      -72.886      -42.982       -3.904       26.241       16.340       12.747      688.613      267.001      162.477        0.415        0.056       84.616        9.792        0.013      335.458        6.104      866.556
01/10/2014  21:16:00     -120.420      -16.981       -5.681       30.432       25.451       19.355      926.100      647.776      374.602        0.838        0.097      121.612       15.141        0.016      335.137        5.570      866.545
01/10/2014  21:17:00     -111.057      -31.052       -3.980       30.302       26.290       17.843      918.185      691.184      318.371        0.762        0.096      115.316       16.334        0.020      335.064        5.449      866.552
01/10/2014  21:18:00     -115.258      -56.234        2.382       24.229       24.900       12.774      587.064      620.017      163.188        0.891        0.069      128.245       11.944        0.009      335.363        5.947      866.555
01/10/2014  21:19:00     -104.481      -53.551       -3.574       28.200       19.263       14.675      795.219      371.066      215.345        0.759        0.069      117.405       10.916        0.009      335.471        6.128      866.553
01/10/2014  21:20:00     -131.696      -40.086       -3.484       32.325       19.268       15.635     1044.877      371.261      244.462        1.031        0.083      137.662       17.557        0.016      335.262        5.779      866.547
01/10/2014  21:21:00      -87.145       -8.845       -1.895       51.171       37.380       24.137     2618.463     1397.241      582.616        0.614        0.230       87.593       22.750        0.067      334.951        5.262      866.543
01/10/2014  21:22:00     -124.270       -9.922      -12.922       28.494       32.223       18.544      811.929     1038.328      343.898        0.895        0.110      124.666       13.396        0.012      334.967        5.289      866.529
01/10/2014  21:23:00     -126.618      -50.068       -6.181       25.507       22.968       16.526      650.612      527.548      273.096        1.001        0.073      136.158       14.268        0.011      335.089        5.493      866.525
01/10/2014  21:24:00     -134.316      -66.231       -6.170       25.259       24.637       15.054      637.994      607.003      226.633        1.197        0.074      149.758        8.634        0.003      335.062        5.447      866.518
01/10/2014  21:25:00     -122.945      -55.820        1.445       21.586       19.349       15.026      465.946      374.374      225.793        0.965        0.053      135.023        8.493        0.004      335.186        5.653      866.519
01/10/2014  21:26:00     -100.443      -13.729       -8.312       28.891       17.317       13.563      834.699      299.871      183.957        0.583        0.066      101.377       14.669        0.021      335.173        5.632      866.524
01/10/2014  21:27:00     -138.582      -24.034      -11.352       19.395       24.113       15.568      376.156      581.456      242.350        1.056        0.060      140.650       12.063        0.007      335.040        5.411      866.519
01/10/2014  21:28:00     -140.663      -58.027       -6.326       47.489       41.047       23.185     2255.227     1684.823      537.535        1.383        0.224      152.162       22.915        0.023      334.914        5.201      866.529
01/10/2014  21:29:00     -114.400      -15.197       -6.872       60.289       39.081       24.164     3634.813     1527.324      583.914        0.955        0.287      115.405       24.669        0.046      334.935        5.237      866.532
01/10/2014  21:30:00      -88.636       -2.981       -2.008       31.675       28.407       22.611     1003.302      806.959      511.268        0.509        0.116       88.686       16.710        0.036      334.995        5.336      866.520
01/10/2014  21:31:00      -25.574       -5.644       -3.162       26.901       21.175       13.307      723.657      448.394      177.075        0.102        0.067       26.190       12.714        0.236      335.015        5.369      866.516
01/10/2014  21:32:00     -119.777       -7.391      -12.756       52.568       31.491       24.341     2763.399      991.656      592.483        0.946        0.217      120.005       22.256        0.034      335.025        5.386      866.510
01/10/2014  21:33:00     -112.772      -57.115       -2.080       41.931       37.772       21.904     1758.234     1426.752      479.769        0.982        0.183      126.411       18.576        0.022      334.882        5.147      866.505
01/10/2014  21:34:00     -140.629       -9.669       -9.926       52.433       33.230       24.609     2749.202     1104.262      605.591        1.221        0.223      140.961       24.808        0.031      334.783        4.984      866.504
01/10/2014  21:35:00     -121.788       34.670       -7.451       47.744       30.679       22.399     2279.513      941.194      501.696        0.991        0.186      126.627       20.476        0.026      334.931        5.230      866.503
01/10/2014  21:36:00      -96.010       15.079       -6.526       41.261       27.813       21.604     1702.499      773.565      466.711        0.621        0.147       97.187       20.220        0.043      335.006        5.355      866.502
01/10/2014  21:37:00     -118.835      -20.948       -9.614       25.120       24.674       13.936      630.991      608.787      194.214        0.804        0.072      120.667       10.100        0.007      334.921        5.212      866.514
01/10/2014  21:38:00      -85.692       10.240       -6.404       58.229       43.589       28.378     3390.569     1899.966      805.301        0.679        0.305       86.302       30.841        0.128      334.953        5.266      866.535
01/10/2014  21:39:00     -145.876       37.370      -10.495       58.476       32.560       24.905     3419.400     1060.166      620.248        1.394        0.255      150.587       24.977        0.028      335.075        5.469      866.547
01/10/2014  21:40:00      -91.858       -2.490       -5.941       52.999       30.860       24.049     2808.873      952.336      578.378        0.641        0.217       91.892       30.019        0.107      334.988        5.325      866.550
01/10/2014  21:41:00      -78.642      -41.977       -9.359       38.363       25.751       20.597     1471.715      663.105      424.232        0.530        0.128       89.144       14.806        0.028      334.862        5.115      866.539
01/10/2014  21:42:00     -101.081      -52.596      -10.626       35.950       30.747       21.329     1292.438      945.368      454.938        0.789        0.135      113.946       10.029        0.008      334.735        4.903      866.522
01/10/2014  21:43:00     -135.817      -70.621       -1.544       33.677       33.462       22.393     1134.170     1119.724      501.449        1.310        0.138      153.080       16.887        0.012      334.671        4.797      866.511
01/10/2014  21:44:00      -95.933      -38.395       -3.315       32.048       37.585       21.363     1027.099     1412.630      456.391        0.679        0.145      103.331       19.116        0.034      334.721        4.881      866.502
01/10/2014  21:45:00      -83.984      -12.606       -1.536       39.671       19.360       14.002     1573.800      374.827      196.064        0.468        0.107       84.925       17.213        0.041      334.737        4.906      866.490
01/10/2014  21:46:00      -82.393      -23.913       -4.705       33.135       24.189       17.627     1097.914      585.104      310.726        0.469        0.100       85.793        8.771        0.010      334.655        4.772      866.499
01/10/2014  21:47:00     -137.579      -20.471      -16.332       51.725       36.110       23.073     2675.488     1303.944      532.384        1.206        0.226      139.094       22.885        0.027      334.641        4.748      866.506
01/10/2014  21:48:00     -149.427        0.330       -6.473       62.408       32.236       28.913     3894.791     1039.191      835.955        1.407        0.288      149.427       29.958        0.040      334.642        4.748      866.515
01/10/2014  21:49:00     -100.556       -7.507       -0.313       52.061       38.332       28.704     2710.381     1469.338      823.929        0.758        0.250      100.836       24.361        0.058      334.579        4.645      866.499
01/10/2014  21:50:00      -87.544      -21.642       -5.209       42.394       34.959       24.122     1797.281     1222.166      581.865        0.588        0.180       90.179       21.368        0.056      334.613        4.701      866.471
01/10/2014  21:51:00      -27.838      -16.525        5.176       40.313       23.748       16.956     1625.144      563.972      287.520        0.178        0.124       32.374        9.632        0.089      334.642        4.749      866.447
01/10/2014  21:52:00      -75.954      -29.894      -11.192       33.903       35.176       19.827     1149.404     1237.339      393.103        0.478        0.139       81.625       19.157        0.055      334.674        4.802      866.442
01/10/2014  21:53:00      -98.162      -35.538       -0.772       44.915       42.547       26.473     2017.358     1810.225      700.829        0.771        0.226      104.397       18.875        0.033      334.680        4.811      866.449
01/10/2014  21:54:00     -101.956      -35.949      -11.186       38.674       38.590       20.960     1495.661     1489.181      439.313        0.762        0.171      108.108       12.657        0.014      334.683        4.818      866.436
01/10/2014  21:55:00      -84.845      -45.583       -0.628       44.436       36.326       23.609     1974.577     1319.567      557.388        0.656        0.193       96.314       22.662        0.055      334.717        4.873      866.428
01/10/2014  21:56:00     -102.584      -34.736       -8.867       40.538       32.915       17.461     1643.362     1083.391      304.885        0.742        0.152      108.305       13.378        0.015      334.723        4.885      866.427
01/10/2014  21:57:00     -100.836      -41.333       -2.916       35.950       37.357       23.278     1292.396     1395.582      541.867        0.756        0.161      108.979       14.545        0.018      334.662        4.781      866.426
01/10/2014  21:58:00      -91.630      -26.521       -8.296       36.810       34.446       22.286     1354.989     1186.549      496.655        0.610        0.152       95.391        5.515        0.003      334.710        4.862      866.428
01/10/2014  21:59:00      -80.472      -23.714       -7.757       23.009       29.016       17.735      529.421      841.904      314.532        0.439        0.084       83.893       11.207        0.018      334.831        5.063      866.428
01/10/2014  22:00:00     -123.157      -44.946      -10.398       36.739       21.232       15.091     1349.726      450.817      227.741        0.966        0.101      131.102        9.036        0.005      334.717        4.873      866.432
01/10/2014  22:01:00     -105.204      -43.931       -2.588       42.746       30.230       25.850     1827.205      913.843      668.235        0.821        0.170      114.008       20.329        0.032      334.755        4.935      866.455
01/10/2014  22:02:00     -134.236       28.293      -10.088       69.488       36.732       30.527     4828.541     1349.258      931.880        1.301        0.355      137.185       32.015        0.054      334.776        4.970      866.485
01/10/2014  22:03:00     -161.713       38.601      -18.524       35.226       31.843       26.749     1240.845     1013.985      715.490        1.548        0.149      166.256       13.604        0.007      334.757        4.939      866.510
01/10/2014  22:04:00     -158.840       19.707      -19.809       43.871       40.200       34.468     1924.671     1616.003     1188.062        1.537        0.236      160.058       30.125        0.035      334.797        5.006      866.523
01/10/2014  22:05:00     -123.591       20.364      -22.474       24.112       51.969       27.242      581.409     2700.829      742.150        1.011        0.201      125.258       14.265        0.013      334.841        5.079      866.527
01/10/2014  22:06:00      -59.310       -9.882       -1.653       50.468       30.732       22.608     2547.030      944.427      511.143        0.381        0.200       60.127       23.315        0.150      334.760        4.945      866.506
01/10/2014  22:07:00       -9.956       -7.293        5.037       21.977       12.486       13.343      483.006      155.899      178.046        0.050        0.041       12.341        8.698        0.497      334.800        5.011      866.487
01/10/2014  22:08:00      -55.686      -15.127        0.047       20.669       20.642       17.577      427.221      426.111      308.960        0.225        0.058       57.704       13.881        0.058      334.640        4.747      866.472
01/10/2014  22:09:00      -65.348      -16.414       -7.537       23.968       20.745        9.404      574.458      430.352       88.439        0.284        0.055       67.378        5.076        0.006      334.681        4.815      866.469
01/10/2014  22:10:00      -78.909      -12.293      -11.177       19.351       14.121       11.702      374.444      199.392      136.944        0.361        0.036       79.861        9.173        0.013      334.710        4.863      866.440
01/10/2014  22:11:00      -80.822      -21.609      -12.247       12.060       11.867        7.870      145.440      140.835       61.933        0.375        0.017       83.661        2.888        0.001      334.701        4.848      866.410
01/10/2014  22:12:00      -85.736      -21.470      -16.830        9.103       12.480        6.595       82.867      155.755       43.488        0.419        0.014       88.383        3.693        0.002      334.706        4.856      866.364
01/10/2014  22:13:00      -93.199       -8.331      -16.491       11.898        9.532        8.131      141.553       90.852       66.107        0.466        0.015       93.571        5.443        0.003      334.777        4.973      866.333
01/10/2014  22:14:00     -105.502       -8.498      -20.662       11.852       14.696        9.564      140.461      215.965       91.462        0.604        0.022      105.844        2.798        0.001      334.695        4.838      866.322
01/10/2014  22:15:00      -93.593      -18.926      -14.450       14.980       13.572        9.628      224.404      184.212       92.699        0.491        0.025       95.488        7.492        0.006      334.693        4.834      866.319
01/10/2014  22:16:00      -76.481      -38.277      -13.044        8.493        8.596        8.560       72.137       73.899       73.268        0.385        0.011       85.525        4.868        0.003      334.709        4.861      866.314
01/10/2014  22:17:00     -105.940      -56.191       -8.096       20.358       12.065        9.389      414.440      145.570       88.151        0.755        0.032      119.919        6.831        0.003      334.745        4.921      866.319
01/10/2014  22:18:00     -107.118      -66.711       -9.122       49.325       30.696       20.234     2432.974      942.224      409.400        0.990        0.189      126.193       15.276        0.015      334.801        5.013      866.324
01/10/2014  22:19:00     -148.898      -67.264       -4.461       26.368       27.238       16.413      695.270      741.891      269.384        1.421        0.085      163.386       13.233        0.007      334.894        5.166      866.326
01/10/2014  22:20:00     -131.751      -49.127       -8.839       21.574       21.539       17.666      465.455      463.921      312.102        1.055        0.062      140.612       10.167        0.005      334.956        5.271      866.310
01/10/2014  22:21:00      -82.872      -60.092        3.479       35.528       27.974       21.621     1262.232      782.536      467.470        0.650        0.126      102.366       19.718        0.037      334.842        5.082      866.293
01/10/2014  22:22:00      -97.236      -53.758       -9.691       29.124       22.595       14.199      848.191      510.556      201.621        0.700        0.078      111.107        7.983        0.005      334.732        4.899      866.273
01/10/2014  22:23:00     -108.385      -46.627       -9.430       19.873       19.909        8.584      394.932      396.349       73.692        0.744        0.043      117.989        6.971        0.003      334.757        4.939      866.250
01/10/2014  22:24:00      -91.935      -68.834       -3.530       23.171       21.810       12.515      536.892      475.692      156.636        0.719        0.058      114.848        9.814        0.007      334.856        5.105      866.239
01/10/2014  22:25:00      -84.961      -53.277        3.010       44.612       36.235       20.848     1990.265     1312.999      434.647        0.690        0.187      100.283       17.902        0.032      334.807        5.023      866.235
01/10/2014  22:26:00      -92.867      -59.747        1.715       37.238       29.720       21.513     1386.643      883.303      462.829        0.746        0.137      110.427       21.923        0.039      334.792        4.998      866.222
01/10/2014  22:27:00     -117.056      -44.993       -2.144       46.971       31.091       20.653     2206.239      966.664      426.536        0.966        0.180      125.405       14.294        0.013      334.752        4.931      866.202
01/10/2014  22:28:00     -136.236      -42.952       -1.869       28.506       29.795       17.133      812.568      887.730      293.541        1.120        0.100      142.847        7.915        0.003      334.734        4.901      866.204
01/10/2014  22:29:00     -112.984      -39.101       -4.429       26.091       24.537       14.328      680.739      602.048      205.287        0.790        0.074      119.558       11.601        0.009      334.640        4.745      866.203
01/10/2014  22:30:00      -89.569      -30.658        1.906       30.773       26.723       20.407      946.997      714.113      416.434        0.552        0.104       94.671       19.350        0.042      334.621        4.713      866.207
01/10/2014  22:31:00     -111.007      -27.370       -2.216       35.422       22.054       15.919     1254.690      486.398      253.406        0.754        0.100      114.331       15.844        0.019      334.598        4.676      866.182
01/10/2014  22:32:00      -90.961      -32.835        1.745       25.235       25.999       15.208      636.816      675.952      231.298        0.545        0.077       96.706       11.085        0.013      334.633        4.734      866.156
01/10/2014  22:33:00      -60.920       -6.003       -0.665       20.553       24.776       12.518      422.412      613.840      156.696        0.247        0.060       61.215        6.584        0.012      334.609        4.694      866.146
01/10/2014  22:34:00      -79.027      -13.172       -1.230       29.047       18.846       13.862      843.754      355.189      192.159        0.391        0.070       80.117       16.878        0.044      334.627        4.723      866.145
01/10/2014  22:35:00     -104.776      -31.609      -11.082       19.421       14.539       10.209      377.158      211.377      104.220        0.640        0.035      109.440        9.787        0.008      334.651        4.763      866.148
01/10/2014  22:36:00      -96.714      -57.138       -9.542       19.443       13.204        9.482      378.048      174.350       89.907        0.668        0.032      112.331        6.644        0.003      334.615        4.703      866.152
01/10/2014  22:37:00      -56.807      -40.369        0.845       25.146       15.965       13.412      632.303      254.875      179.882        0.296        0.053       69.690       15.376        0.049      334.569        4.627      866.154
01/10/2014  22:38:00      -75.385      -40.130       -5.654       15.702       13.722        9.919      246.565      188.299       98.394        0.393        0.027       85.401        5.868        0.005      334.594        4.668      866.143
01/10/2014  22:39:00     -105.684      -42.999      -13.424       19.899       17.416       11.881      395.959      303.323      141.163        0.702        0.042      114.097        8.883        0.006      334.656        4.771      866.129
01/10/2014  22:40:00     -103.509      -72.240       -6.380       23.780       23.669       19.470      565.507      560.242      379.081        0.874        0.075      126.225       14.841        0.014      334.553        4.601      866.106
01/10/2014  22:41:00      -96.566      -38.619       -6.961       24.777       26.734       15.805      613.916      714.720      249.796        0.622        0.079      104.002        8.896        0.007      334.556        4.606      866.096
01/10/2014  22:42:00      -99.579      -48.002       -6.983       36.469       20.684       15.860     1329.965      427.840      251.526        0.714        0.100      110.545       15.131        0.019      334.535        4.573      866.069
01/10/2014  22:43:00     -133.774      -35.612      -10.337       12.844       12.994        9.515      164.963      168.846       90.528        0.985        0.021      138.433        6.269        0.002      334.451        4.433      866.050
01/10/2014  22:44:00     -106.766      -33.982       -5.061       29.600       19.267       13.741      876.170      371.199      188.821        0.701        0.072      112.044       13.719        0.015      334.482        4.484      866.038
01/10/2014  22:45:00     -125.763      -35.320      -12.157       17.388       21.971       15.103      302.357      482.745      228.089        0.911        0.051      130.628       11.644        0.008      334.418        4.376      866.032
01/10/2014  22:46:00      -94.667      -41.994       -7.953       22.996       30.303       15.495      528.803      918.273      240.097        0.624        0.084      103.563        7.703        0.006      334.393        4.336      866.015
01/10/2014  22:47:00      -59.138      -22.331       -5.106       28.176       16.350       17.892      793.879      267.324      320.115        0.270        0.069       63.214       17.932        0.080      334.379        4.314      865.995
01/10/2014  22:48:00      -86.338      -11.457       -6.573       20.353        7.633        9.143      414.241       58.267       83.587        0.409        0.028       87.095       10.558        0.015      334.408        4.362      865.976
01/10/2014  22:49:00      -69.133      -16.260       -2.293       23.198       12.000        9.584      538.138      143.992       91.858        0.291        0.039       71.020        9.590        0.018      334.452        4.435      865.978
01/10/2014  22:50:00      -77.517      -23.818       -7.333        9.459        8.154        6.638       89.467       66.484       44.063        0.341        0.010       81.094        4.506        0.003      334.475        4.473      865.996
01/10/2014  22:51:00      -76.863      -14.736      -11.346       10.756        5.848        5.636      115.692       34.201       31.767        0.322        0.009       78.263        3.764        0.002      334.526        4.556      866.011
01/10/2014  22:52:00      -62.347      -26.803       -4.918       14.412       13.789        8.748      207.718      190.133       76.519        0.255        0.024       67.865        6.370        0.009      334.541        4.580      866.021
01/10/2014  22:53:00     -101.638       -9.521      -14.902       11.260       10.311        6.520      126.790      106.315       42.507        0.546        0.014      102.083        3.201        0.001      334.544        4.585      866.027
01/10/2014  22:54:00     -101.896        1.933      -11.191        9.589        7.585        6.473       91.943       57.531       41.896        0.535        0.010      101.914        2.089        0.000      334.587        4.658      866.035
01/10/2014  22:55:00      -79.169       -1.694       -7.849       13.566        9.369        6.631      184.032       87.777       43.970        0.332        0.016       79.187        3.180        0.002      334.581        4.648      866.033
01/10/2014  22:56:00      -64.383       -4.939       -5.292        8.630        9.582        5.993       74.469       91.821       35.912        0.220        0.010       64.572        2.845        0.002      334.564        4.619      866.032
01/10/2014  22:57:00      -65.767      -12.424       -8.873        5.471        7.228        6.260       29.933       52.241       39.191        0.234        0.006       66.930        3.322        0.002      334.575        4.637      866.027
01/10/2014  22:58:00      -41.545       -8.260       -3.865       10.742        4.395        6.084      115.384       19.314       37.021        0.099        0.009       42.359        6.498        0.024      334.644        4.752      866.010
01/10/2014  22:59:00       10.494       -3.319        5.591       10.802        7.995        8.209      116.686       63.922       67.393        0.020        0.012       11.006        6.000        0.297      334.644        4.753      865.973
01/10/2014  23:00:00       18.014       13.815       17.600       11.637        9.828        8.881      135.426       96.593       78.873        0.057        0.016       22.702        4.706        0.043      334.676        4.807      865.942
01/10/2014  23:01:00       21.882       18.643       18.909       15.020       12.409       12.499      225.594      153.979      156.220        0.086        0.027       28.747        7.541        0.069      334.736        4.906      865.916
01/10/2014  23:02:00       20.052       33.950       27.064       23.063       11.351       16.298      531.898      128.846      265.637        0.161        0.046       39.429       16.567        0.177      334.616        4.706      865.907
01/10/2014  23:03:00        5.353       20.809       33.399       15.534       15.187        9.037      241.294      230.648       81.671        0.107        0.028       21.487        9.246        0.185      334.577        4.640      865.900
01/10/2014  23:04:00       11.216       12.152       19.942       16.900       14.158       11.070      285.596      200.452      122.548        0.064        0.030       16.537        8.754        0.280      334.521        4.548      865.895
01/10/2014  23:05:00       -9.083       -4.714        0.048        7.328        5.501        6.508       53.697       30.260       42.353        0.012        0.006       10.234        2.671        0.068      334.565        4.620      865.894
01/10/2014  23:06:00      -20.194       -1.986        5.602        6.504       13.586        6.811       42.297      184.592       46.385        0.036        0.014       20.291        6.370        0.099      334.430        4.399      865.886
01/10/2014  23:07:00      -34.062       26.544       -4.633       10.476        9.398        6.809      109.752       88.316       46.356        0.107        0.012       43.183        6.912        0.026      334.492        4.500      865.863
01/10/2014  23:08:00      -45.666        8.945       -6.014        6.576       15.903        5.456       43.238      252.921       29.765        0.126        0.016       46.534        5.912        0.016      334.367        4.293      865.848
01/10/2014  23:09:00      -46.891      -21.824       -8.035        8.813        6.636        5.285       77.667       44.035       27.926        0.144        0.007       51.721        3.321        0.004      334.217        4.045      865.836
01/10/2014  23:10:00      -54.021      -16.485       -9.717        9.292        9.655        7.733       86.345       93.228       59.801        0.176        0.012       56.481        1.000        0.000      334.125        3.893      865.839
01/10/2014  23:11:00      -49.285      -11.708       -9.676        5.330        7.329        4.815       28.407       53.721       23.183        0.138        0.005       50.656        1.716        0.001      334.183        3.987      865.852
01/10/2014  23:12:00      -50.126       -5.133       -8.354        8.040        7.443        6.565       64.646       55.401       43.103        0.139        0.008       50.389        2.814        0.003      334.164        3.958      865.865
01/10/2014  23:13:00      -60.013      -12.381       -5.635        7.080       10.860        8.520       50.122      117.933       72.583        0.201        0.012       61.277        6.904        0.013      334.123        3.887      865.882
01/10/2014  23:14:00      -54.393       -7.955      -10.494       10.519       10.152        7.162      110.649      103.069       51.288        0.170        0.013       54.972        3.490        0.004      333.992        3.671      865.890
01/10/2014  23:15:00      -38.330      -12.118       -2.309       11.801        8.243        9.039      139.266       67.947       81.710        0.096        0.014       40.200        7.239        0.032      334.123        3.890      865.889
01/10/2014  23:16:00       11.328       -5.548        9.312       13.883        8.117        7.764      192.736       65.883       60.277        0.028        0.016       12.614        4.626        0.134      334.338        4.245      865.871
01/10/2014  23:17:00       27.537       11.746        4.687       17.263       12.505       13.635      298.004      156.386      185.914        0.078        0.032       29.938        7.641        0.065      334.572        4.633      865.846
01/10/2014  23:18:00       24.848       37.344       -1.733       14.048       16.767       14.474      197.339      281.140      209.510        0.135        0.034       44.855       12.396        0.076      334.393        4.336      865.840
01/10/2014  23:19:00        9.277       42.842       -3.481       13.777       17.895        8.342      189.815      320.246       69.590        0.126        0.029       43.835        8.289        0.036      334.392        4.335      865.820
01/10/2014  23:20:00       12.697       82.820      -12.028        9.876       15.329        6.828       97.539      234.974       46.623        0.377        0.019       83.787        5.437        0.004      334.500        4.515      865.806
01/10/2014  23:21:00       10.946       87.909      -12.980       13.835       13.166        6.536      191.421      173.339       42.721        0.421        0.020       88.588        4.782        0.003      334.548        4.592      865.804
01/10/2014  23:22:00       -2.054       96.232      -15.984        9.148       13.011        7.178       83.678      169.294       51.518        0.491        0.015       96.254        4.586        0.002      334.611        4.698      865.805
01/10/2014  23:23:00      -13.037       58.206       -7.316       17.412       49.314       17.007      303.177     2431.829      289.254        0.332        0.151       59.648       23.468        0.155      334.556        4.606      865.819
01/10/2014  23:24:00      -32.589       -7.685       -3.098       14.862       14.607        9.292      220.888      213.376       86.350        0.083        0.026       33.483        6.090        0.033      334.173        3.971      865.829
01/10/2014  23:25:00      -28.730       -3.869       -2.631       24.476       17.177       14.544      599.054      295.038      211.514        0.098        0.055       28.989        9.810        0.115      334.294        4.171      865.835
01/10/2014  23:26:00      -55.153      -10.780       -9.582       10.950       10.970        7.443      119.908      120.349       55.392        0.177        0.015       56.197        4.750        0.007      334.030        3.734      865.828
01/10/2014  23:27:00      -75.344       -0.695      -12.500       20.677       15.143       12.991      427.535      229.304      168.758        0.333        0.041       75.348        9.627        0.016      333.888        3.498      865.808
01/10/2014  23:28:00      -64.269        3.386       -7.953       25.073       27.410       19.843      628.656      751.330      393.763        0.299        0.089       64.358       20.493        0.101      333.888        3.500      865.784
01/10/2014  23:29:00      -59.465       -7.462      -21.010       18.930       18.941        9.268      358.350      358.765       85.888        0.242        0.040       59.931        5.401        0.008      334.091        3.835      865.742
01/10/2014  23:30:00      -22.598       -1.451       -0.255       20.151       12.982       12.093      406.061      168.539      146.238        0.062        0.036       22.644       11.651        0.265      334.066        3.793      865.712
01/10/2014  23:31:00      -17.282      -13.178       -1.731        6.126        8.006        5.222       37.524       64.102       27.273        0.030        0.006       21.733        3.366        0.024      334.089        3.832      865.688
01/10/2014  23:32:00      -24.032       -7.071       -5.311        6.807        8.788        5.232       46.337       77.224       27.379        0.040        0.008       25.051        3.814        0.023      334.321        4.218      865.684
01/10/2014  23:33:00      -27.256      -13.475        0.235       14.529        9.759        8.913      211.080       95.245       79.440        0.066        0.019       30.405        8.784        0.083      334.361        4.284      865.682
01/10/2014  23:34:00      -60.117      -11.637       -7.059        9.715       11.783       10.529       94.381      138.832      110.869        0.207        0.017       61.233        3.814        0.004      334.031        3.737      865.679
01/10/2014  23:35:00      -80.638      -12.228      -12.901       14.053       11.220        8.028      197.474      125.878       64.454        0.360        0.019       81.560        7.892        0.009      333.953        3.609      865.683
01/10/2014  23:36:00      -72.047      -19.010      -10.670       14.642       18.895       11.309      214.391      357.022      127.894        0.318        0.035       74.513        8.143        0.012      334.032        3.738      865.693
01/10/2014  23:37:00      -65.916      -10.750      -11.296       15.142       21.298       12.212      229.269      453.589      149.145        0.271        0.042       66.787       11.082        0.028      334.092        3.837      865.693
01/10/2014  23:38:00      -50.253      -16.603       -3.476       16.746       16.453       17.369      280.418      270.709      301.696        0.183        0.043       52.925       13.680        0.067      333.938        3.582      865.686
01/10/2014  23:39:00      -41.205      -15.392       -2.225       16.193       13.123       12.552      262.212      172.223      157.554        0.127        0.030       43.986        7.717        0.031      334.299        4.180      865.671
01/10/2014  23:40:00      -67.917      -17.933      -13.574       18.179       14.032       12.424      330.473      196.904      154.355        0.290        0.034       70.244        7.289        0.011      333.999        3.683      865.665
01/10/2014  23:41:00      -74.565      -16.864      -12.626       12.515        9.310        7.994      156.622       86.674       63.903        0.316        0.015       76.448        7.530        0.010      334.131        3.902      865.661
01/10/2014  23:42:00      -66.885       -7.586       -7.121        8.295        8.494        6.328       68.807       72.140       40.039        0.238        0.009       67.313        4.323        0.004      334.289        4.164      865.645
01/10/2014  23:43:00      -38.384       -3.469       -4.759       14.253       10.967        6.636      203.157      120.284       44.041        0.094        0.018       38.540        5.635        0.021      334.211        4.033      865.626
01/10/2014  23:44:00       -6.919       16.056       -2.924       16.011       14.647        7.517      256.367      214.546       56.499        0.042        0.026       17.483        5.120        0.086      334.668        4.793      865.612
01/10/2014  23:45:00       11.146       33.640       -2.532        9.245        8.684        4.225       85.470       75.407       17.851        0.072        0.009       35.439        3.614        0.010      334.922        5.214      865.608
01/10/2014  23:46:00       21.910       30.696       -4.998       14.987       13.914       11.688      224.606      193.596      136.608        0.100        0.028       37.713       10.339        0.075      335.048        5.424      865.588
01/10/2014  23:47:00       14.405        4.106        6.889       11.624       17.971       10.463      135.129      322.948      109.483        0.042        0.028       14.979        5.408        0.130      334.912        5.197      865.575
01/10/2014  23:48:00       30.937       23.016        7.550       10.273       12.483        9.310      105.528      155.833       86.682        0.095        0.017       38.560        7.958        0.043      334.966        5.286      865.551
01/10/2014  23:49:00       38.714       13.045        5.976       15.889       12.199        9.793      252.445      148.819       95.898        0.110        0.025       40.853        5.565        0.019      334.751        4.931      865.548
01/10/2014  23:50:00       44.844       40.023        2.799       14.592       10.673       10.106      212.919      113.919      102.132        0.202        0.021       60.107        6.784        0.013      334.958        5.275      865.544
01/10/2014  23:51:00       24.639       16.594       -3.996       17.531       16.705       10.972      307.338      279.045      120.387        0.080        0.035       29.706        9.234        0.097      334.879        5.144      865.556
01/10/2014  23:52:00       30.513       -2.192       -5.423       15.783       16.714        8.808      249.090      279.359       77.579        0.079        0.030       30.591        9.104        0.089      334.906        5.187      865.568
01/10/2014  23:53:00        2.051        2.950        8.478        9.927        4.500        8.818       98.539       20.247       77.752        0.014        0.010        3.593        6.985        3.780      334.806        5.020      865.568
01/10/2014  23:54:00       28.617       19.857        6.988       13.556        9.422       10.304      183.771       88.779      106.167        0.082        0.019       34.832       10.676        0.094      334.870        5.129      865.557
01/10/2014  23:55:00       20.862       20.622        8.970        9.992        9.998        6.735       99.834       99.964       45.366        0.059        0.012       29.334        6.790        0.054      334.829        5.060      865.547
01/10/2014  23:56:00      -10.282       15.164       10.651       15.148        9.120        6.078      229.452       83.175       36.946        0.040        0.017       18.321        5.925        0.105      334.630        4.730      865.526
01/10/2014  23:57:00      -38.918      -24.602       -5.270       16.363       11.431        9.899      267.758      130.661       97.986        0.132        0.025       46.042       10.062        0.048      334.074        3.810      865.511
01/10/2014  23:58:00      -25.849      -15.568       -8.561       17.743       11.436        7.126      314.832      130.774       50.786        0.074        0.025       30.175        9.796        0.105      334.188        3.997      865.492
01/10/2014  23:59:00       31.730       19.451       -0.746        8.786        8.040        6.459       77.187       64.638       41.721        0.078        0.009       37.218        4.308        0.013      334.657        4.775      865.476
